     2              OBSERVATION DATA    GPS                 RINEX VERSION / TYPE
teqc 2000Jul20 Karen Wendt 20030328 21:22:56UTC             PGM / RUN BY / DATE
                                                            COMMENT
L2: 1 -> 1; 150 -> 5; 250 -> 9                              COMMENT
L2: 1 -> 1; 150 -> 5; 250 -> 9                              COMMENT
L2: 1 -> 1; 150 -> 5; 250 -> 9                              COMMENT
L2: 1 -> 1; 150 -> 5; 250 -> 9                              COMMENT
L2: 1 -> 1; 150 -> 5; 250 -> 9                              COMMENT
L2: 1 -> 1; 150 -> 5; 250 -> 9                              COMMENT
L2: 1 -> 1; 150 -> 5; 250 -> 9                              COMMENT
L2: 1 -> 1; 150 -> 5; 250 -> 9                              COMMENT
L2: 1 -> 1; 150 -> 5; 250 -> 9                              COMMENT
L2: 1 -> 1; 150 -> 5; 250 -> 9                              COMMENT
L2: 1 -> 1; 150 -> 5; 250 -> 9                              COMMENT
L2: 1 -> 1; 150 -> 5; 250 -> 9                              COMMENT
L2: 1 -> 1; 150 -> 5; 250 -> 9                              COMMENT
L2: 1 -> 1; 150 -> 5; 250 -> 9                              COMMENT
Original Marker Name: bhrm Black_Hill_1881_USC&GS           COMMENT
Campaign Name: USGS 2003                                    COMMENT
4-Character Station Name: BHRM                              COMMENT
6-Character Antenna Code: DMRCHT                            COMMENT
Vertical Measurement Point: BCR                             COMMENT
Vertical Offset to Rinex Ref. Point: 0.0348                 COMMENT
Radial Measurement Point: ECF                               COMMENT
Radial Offset to Rinex Ref. Point: 0.1897                   COMMENT
Antenna Height from Field Measurement: 0.6110 m             COMMENT
Additional Antenna Identification Info.:                    COMMENT
Turborogue and Ashtech Choke Ring                           COMMENT
Original XYZ: -2668989.1400 -4471692.6203 3670502.8701      COMMENT
New XYZ position is based on association with SCEC monument COMMENT
E1F1A0T5+0011. Position of that monument is believed to be  COMMENT
valid to within 1 m horizontally; vertical accuracy         COMMENT
should be no worse than 3-times this value.                 COMMENT
                                                            COMMENT
Revised Rinex header created by UCSD GPS archive for        COMMENT
GSAC on 11-Jul-2003 (2003:192) 16:12:54 GMT                 COMMENT
For assistance contact dagnew@ucsd.edu                      COMMENT
or anderson@python.ucsd.edu                                 COMMENT
                                                            COMMENT
BLACK HILL 1881                                             MARKER NAME
JMS US GEOLOGICAL SURVEY                                    OBSERVER / AGENCY
LP020000801 ASHTECH Z-XII3 CD00                             REC # / TYPE / VERS
CR519993706 DORNE-MARGOL. TYPE T                            ANT # / TYPE
 -2669008.9190 -4471671.3372  3670491.2701                  APPROX POSITION XYZ
        0.5460        0.0000        0.0000                  ANTENNA: DELTA H/E/N
     1     1     0                                          WAVELENGTH FACT L1/2
     5    C1    L1    L2    P1    P2                        # / TYPES OF OBSERV
    30                                                      INTERVAL
  2003     3    26    16    50    0.000000                  TIME OF FIRST OBS
  2003     3    26    23    30   30.000000                  TIME OF LAST OBS
                                                            END OF HEADER
 03  3 26 16 50  0.0000000  0  5G24G 4G 5G 7G 9
  20860041.596     -101875.60449    -74318.29247  20860041.114    20860048.398
  20752635.300       93334.29949     67148.85247  20752635.070    20752641.062
  21991495.689     -156808.40449   -106131.25146  21991494.775    21991501.901
  22830400.124      172766.85849    120879.64346  22830399.174    22830407.187
  21083605.724       94178.36449     67580.40547  21083605.264    21083611.799
 03  3 26 16 50 30.0000000  0  5G24G 4G 5G 7G 9
  20852927.111     -139261.69349   -103450.26447  20852926.739    20852934.044
  20759042.117      127003.75849     93384.78247  20759042.134    20759048.186
  21979094.212     -221978.10849   -156912.82746  21979093.390    21979100.539
  22844663.168      247719.03149    179283.86146  22844662.219    22844670.178
  21090047.722      128030.93249     93958.99447  21090047.214    21090053.708
 03  3 26 16 51  0.0000000  0  5G24G 4G 5G 7G 9
  20797250.446     -431844.24649   -331436.62747  20797250.093    20797257.435
  20716899.487      -94457.47249    -79182.42747  20716899.449    20716905.551
  21918062.643     -542700.91349   -406826.67146  21918061.842    21918069.022
  22810272.901       66996.97349     38461.41146  22810271.997    22810279.958
  21047937.178      -93261.64449    -78476.81447  21047936.677    21047943.140
 03  3 26 16 51 30.0000000  0  5G24G 4G 5G 7G 9
  20788639.977     -477092.76349   -366695.15347  20788639.584    20788646.896
  20721834.879      -68522.27349    -58973.19047  20721834.782    20721840.903
  21904029.537     -616445.63549   -464290.06847  21904028.717    21904035.850
  22822857.397      133128.20749     89992.18946  22822856.435    22822864.348
  21052901.922      -67171.95549    -58147.22247  21052901.419    21052907.834
 03  3 26 16 52  0.0000000  0  5G24G 4G 5G 7G 9
  20780129.587     -521815.34649   -401543.87247  20780129.146    20780136.465
  20726881.838      -42000.49049    -38306.88547  20726881.738    20726887.865
  21890028.911     -690020.05649   -521620.75747  21890028.069    21890035.107
  22835450.216      199303.29949    141557.12246  22835449.188    22835457.136
  21057975.592      -40510.08749    -37371.76547  21057975.087    21057981.462
 03  3 26 16 52 30.0000000  0  5G24G 4G 5G 7G 9
  20771719.894     -566008.52049   -435980.07948  20771719.438    20771726.751
  20732040.570      -14891.37249    -17182.91147  20732040.457    20732046.592
  21876061.433     -763420.05749   -578815.55147  21876060.588    21876067.514
  22848051.667      265523.95349    193157.56446  22848050.674    22848058.554
  21063158.327      -13274.96849    -16149.62547  21063157.829    21063164.177
 03  3 26 16 53  0.0000000  0  5G24G 4G 5G 7G 9
  20763410.945     -609672.25849   -470003.72548  20763410.490    20763417.825
  20737310.552       12802.24049      4396.52047  20737310.409    20737316.525
  21862127.160     -836645.18749   -635874.06747  21862126.325    21862133.181
  22860661.398      331788.26849    244792.01346  22860660.444    22860668.336
  21068449.702       14531.14849      5517.44747  21068449.196    21068455.554
 03  3 26 16 53 30.0000000  0  5G24G 4G 5G 7G 9
  20755203.030     -652805.30449   -503613.83448  20755202.552    20755209.891
  20742691.639       41079.66549     26430.86147  20742691.493    20742697.616
  21848226.611     -909693.18249   -692794.57347  21848225.748    21848232.567
  22873279.507      398096.46149    296460.68446  22873278.549    22873286.435
  21073849.600       42907.51249     27628.87947  21073849.108    21073855.479
 03  3 26 16 54  0.0000000  0  5G24G 4G 5G 7G 9
  20747096.206     -695406.83549   -536809.79648  20747095.725    20747103.081
  20748183.326       69938.58949     48918.32547  20748183.192    20748189.309
  21834359.871     -982563.14349   -749576.31547  21834359.018    21834365.857
  22885905.684      464447.11349    348162.40946  22885904.718    22885912.701
  21079357.675       71852.39749     50183.31847  21079357.185    21079363.587
 03  3 26 16 54 30.0000000  0  5G24G 4G 5G 7G 9
  20739090.975     -737474.49349   -569589.74348  20739090.506    20739097.841
  20753785.733       99379.06249     71858.94547  20753785.583    20753791.689
  21820527.622    -1055251.89349   -806216.86647  21820526.774    21820533.644
  22898540.082      530840.90249    399897.74946  22898539.111    22898547.132
  21084973.934      101365.77449     73180.73247  21084973.447    21084979.864
 03  3 26 16 55  0.0000000  0  5G24G 4G 5G 7G 9
  20731187.456     -779007.91049   -601953.40948  20731186.968    20731194.276
  20759498.414      129399.13649     95251.20147  20759498.258    20759504.390
  21806730.159    -1127758.12949   -862715.20547  21806729.315    21806736.186
  22911182.516      597276.99149    451666.06746  22911181.539    22911189.600
  21090697.998      131445.79449     96619.69147  21090697.504    21090703.967
 03  3 26 16 55 30.0000000  0  5G24G 4G 5G 7G 9
  20723385.795     -820006.20249   -633900.09448  20723385.299    20723392.598
  20765321.017      159996.83249    119093.55447  20765320.857    20765326.971
  21792967.652    -1200080.50349   -919070.27147  21792966.813    21792973.711
  22923832.772      663754.28749    503466.49646  22923831.831    22923839.936
  21096529.560      162090.87049    120498.94647  21096529.067    21096535.595
 03  3 26 16 56  0.0000000  0  5G24G 4G 5G 7G 9
  20715686.175     -860468.09449   -665428.80248  20715685.669    20715692.949
  20771253.326      191171.00649    143385.11247  20771253.141    20771259.210
  21779240.551    -1272216.97349   -975280.47247  21779239.706    21779246.622
  22936490.861      730272.64649    555298.90846  22936489.948    22936498.064
  21102468.471      193299.96849    144817.70847  21102467.995    21102474.564
 03  3 26 16 56 30.0000000  0  5G24G 4G 5G 7G 9
  20708088.794     -900392.54449   -696538.72448  20708088.289    20708095.583
  20777295.030      222920.24449    168124.77447  20777294.838    20777300.878
  21765549.190    -1344165.61149  -1031344.31547  21765548.315    21765555.314
  22949156.659      796831.51349    607162.89146  22949155.760    22949163.914
  21108514.494      225071.85549    169574.99747  21108514.030    21108520.593
 03  3 26 16 57  0.0000000  0  5G24G 4G 5G 7G 9
  20700593.926     -939778.38449   -727228.95848  20700593.417    20700600.743
  20783445.841      255242.86249    193311.23247  20783445.660    20783451.686
  21751893.823    -1415924.80949  -1087260.54547  21751892.968    21751899.963
  22961830.078      863430.24749    659057.93646  22961829.146    22961837.368
  21114667.335      257405.20249    194769.78647  21114666.870    21114673.448
 03  3 26 16 57 30.0000000  0  5G24G 4G 5G 7G 9
  20693201.654     -978624.90049   -757498.93648  20693201.145    20693208.508
  20789705.447      288137.25249    218943.21847  20789705.266    20789711.317
  21738274.951    -1487492.63749  -1143027.65247  21738274.106    21738281.122
  22974510.956      930068.57149    710983.82346  22974510.038    22974518.340
  21120926.731      290298.46949    220400.87847  21120926.267    21120932.874
 03  3 26 16 58  0.0000000  0  5G24G 4G 5G 7G 9
  20685912.334    -1016930.40849   -787347.35448  20685911.831    20685919.189
  20796073.739      321602.65749    245020.15547  20796073.558    20796079.614
  21724692.949    -1558866.70849  -1198643.78747  21724692.089    21724699.049
  22987199.366      996746.58349    762940.64746  22987198.404    22987206.833
  21127292.574      323751.05749    246467.80847  21127292.110    21127298.735
 03  3 26 16 58 30.0000000  0  5G24G 4G 5G 7G 9
  20678726.124    -1054694.21549   -816773.66548  20678725.616    20678732.953
  20802550.358      355637.34549    271540.67947  20802550.184    20802556.236
  21711148.141    -1630045.30149  -1254107.60047  21711147.266    21711154.190
  22999895.288     1063463.79649    814928.03046  22999894.354    22999902.820
  21133764.642      357761.71349    272969.59747  21133764.169    21133770.818
 03  3 26 16 59  0.0000000  0  5G24G 4G 5G 7G 9
  20671642.869    -1091916.72249   -845778.18648  20671642.370    20671649.670
  20809134.693      390238.22949    298502.39447  20809134.516    20809140.583
  21697640.626    -1701027.84549  -1309418.65247  21697639.747    21697646.636
  23012598.289     1130218.18849    866944.35146  23012597.390    23012605.853
  21140342.303      392327.29249    299903.79447  21140341.826    21140348.461
 03  3 26 16 59 30.0000000  0  6G30G24G 4G 5G 7G 9
  24349902.923    -2270862.99249  -1751271.51545  24349902.643    24349911.935
  20664660.907    -1128607.28649   -874368.20348  20664660.423    20664667.642
  20815824.512      425393.35449    325895.97947  20815824.345    20815830.415
  21684168.756    -1771823.02449  -1364583.69347  21684167.893    21684174.736
  23025306.320     1196998.92049    918981.21646  23025305.373    23025313.845
  21147023.340      427436.10349    327261.29047  21147022.871    21147029.482
 03  3 26 17  0  0.0000000  0  6G30G24G 4G 5G 7G 9
  24331386.017    -2368169.63449  -1827094.81245  24331385.841    24331395.097
  20657781.748    -1164757.49549   -902537.16148  20657781.246    20657788.411
  20822620.929      461108.56149    353725.99047  20822620.749    20822626.853
  21670734.321    -1842421.41049  -1419595.40147  21670733.443    21670740.297
  23038020.708     1263813.22549    971044.23446  23038019.761    23038028.220
  21153808.898      463094.17149    355046.78147  21153808.423    21153815.003
 03  3 26 17  0 30.0000000  0  6G30G24G 4G 5G 7G 9
  24312868.154    -2465481.38449  -1902922.08445  24312868.201    24312877.263
  20651007.725    -1200355.34349   -930275.71448  20651007.225    20651014.360
  20829525.764      497393.47949    381999.92647  20829525.589    20829531.690
  21657339.812    -1912809.85649  -1474443.51547  21657338.966    21657345.826
  23050743.588     1330672.00449   1023141.91146  23050742.643    23050751.059
  21160700.840      499311.26049    383267.86647  21160700.372    21160706.922
 03  3 26 17  1  0.0000000  0  6G30G24G 4G 5G 7G 9
  24294348.844    -2562800.81449  -1978755.35445  24294348.732    24294357.796
  20644338.309    -1235403.36449   -957585.82048  20644337.812    20644344.939
  20836537.995      534242.67249    410713.56647  20836537.825    20836543.908
  21643984.937    -1982990.24449  -1529129.49947  21643984.092    21643990.987
  23063474.095     1397570.91149   1075270.85446  23063473.180    23063481.552
  21167698.174      536082.20049    411920.52547  21167697.698    21167704.240
 03  3 26 17  1 30.0000000  0  6G30G24G 4G 5G 7G 9
  24275828.094    -2660128.22649  -2054594.81245  24275828.034    24275837.021
  20637773.288    -1269902.70549   -984468.40248  20637772.797    20637779.899
  20843656.950      571652.97149    439864.42147  20843656.787    20843662.845
  21630669.677    -2052962.43249  -1583653.26247  21630668.820    21630675.706
  23076211.873     1464507.96049   1127429.53346  23076210.951    23076219.311
  21174800.291      573403.76249    441002.23947  21174799.811    21174806.354
 03  3 26 17  2  0.0000000  0  6G30G24G 4G 5G 7G 9
  24257305.836    -2757463.08749  -2130440.09145  24257305.697    24257314.804
  20631312.638    -1303853.51649  -1010923.55448  20631312.130    20631319.245
  20850882.237      609621.77849    469450.48247  20850882.055    20850888.107
  21617394.234    -2122725.38549  -1638013.98247  21617393.360    21617400.245
  23088956.764     1531482.03849   1179617.04646  23088955.818    23088964.137
  21182006.667      611273.57449    470511.15547  21182006.202    21182012.792
 03  3 26 17  2 30.0000000  0  6G30G24G 4G 5G 7G 9
  24238782.281    -2854804.80349  -2206290.68845  24238782.340    24238791.113
  20624956.434    -1337255.44749  -1036950.99948  20624955.940    20624963.052
  20858213.300      648146.63249    499469.82847  20858213.120    20858219.145
  21604158.809    -2192277.88049  -1692210.71247  21604157.923    21604164.807
  23101708.364     1598491.92149   1231832.47746  23101707.440    23101715.783
  21189316.984      649689.44249    500445.57547  21189316.531    21189323.148
 03  3 26 17  3  0.0000000  0  6G30G24G 4G 5G 7G 9
  24220257.578    -2952152.38649  -2282145.84245  24220257.624    24220266.577
  20618704.748    -1370108.15549  -1062550.48448  20618704.248    20618711.405
  20865649.741      687225.40249    529920.79647  20865649.581    20865655.615
  21590963.723    -2261618.34549  -1746242.22447  21590962.867    21590969.769
  23114466.642     1665536.82449   1284075.19346  23114465.709    23114474.106
  21196730.843      688649.33649    530803.90447  21196730.379    21196737.006
 03  3 26 17  3 30.0000000  0  6G30G24G 4G 5G 7G 9
  24201732.080    -3049504.38349  -2358004.45245  24201732.050    24201741.027
  20612557.723    -1402410.86149  -1087721.39348  20612557.234    20612564.433
  20873191.272      726856.25549    560801.97047  20873191.120    20873197.149
  21577809.353    -2330744.92249  -1800107.07247  21577808.504    21577815.402
  23127231.491     1732616.43549   1336344.94046  23127230.601    23127239.044
  21204247.940      728151.91549    561585.10347  21204247.485    21204254.095
 03  3 26 17  4  0.0000000  0  6G30G24G 4G 5G 7G 9
  24183205.892    -3146860.24149  -2433866.06045  24183205.865    24183214.600
  20606515.414    -1434163.50549  -1112463.69148  20606514.907    20606522.115
  20880837.403      767036.82849    592111.48947  20880837.247    20880843.272
  21564695.967    -2399656.22649  -1853804.17147  21564695.092    21564702.014
  23140002.812     1799729.72949   1388640.94246  23140001.950    23140010.302
  21211867.935      768194.97149    592787.45647  21211867.470    21211874.068
 03  3 26 17  4 30.0000000  0  6G30G24G 4G 5G 7G 9
  24164679.198    -3244218.33849  -2509729.41745  24164679.101    24164688.028
  20600577.911    -1465365.34549  -1136776.79348  20600577.417    20600584.587
  20888587.832      807765.52849    623848.12947  20888587.672    20888593.686
  21551623.875    -2468350.54549  -1907332.19647  21551623.002    21551629.907
  23152780.503     1866876.46249   1440963.00346  23152779.614    23152787.998
  21219590.461      808776.89949    624409.70847  21219590.003    21219596.609
 03  3 26 17  5  0.0000000  0  6G30G24G 4G 5G 7G 9
  24146152.385    -3341577.44949  -2585593.55745  24146152.147    24146161.061
  20594745.312    -1496015.81349  -1160660.25348  20594744.805    20594751.966
  20896442.164      849040.14649    656010.15747  20896442.014    20896447.982
  21538593.424    -2536825.94949  -1960689.63947  21538592.573    21538599.450
  23165564.411     1934056.12949   1493310.71046  23165563.554    23165571.880
  21227415.200      849895.87349    656450.43247  21227414.746    21227421.334
 03  3 26 17  5 30.0000000  0  6G30G24G 4G 5G 7G 9
  24127625.602    -3438936.24449  -2661457.47645  24127625.403    24127634.251
  20589017.812    -1526114.02849  -1184113.38748  20589017.310    20589024.440
  20904400.061      890858.95349    688596.22947  20904399.915    20904405.869
  21525605.035    -2605080.38949  -2013874.90047  21525604.194    21525611.069
  23178354.537     2001268.36949   1545683.80846  23178353.719    23178362.067
  21235341.824      891550.38149    688908.45747  21235341.349    21235347.966
 03  3 26 17  6  0.0000000  0  6G30G24G 4G 5G 7G 9
  24109099.148    -3536293.10349  -2737319.89245  24109099.038    24109107.867
  20583395.369    -1555659.92149  -1207136.14048  20583394.882    20583402.014
  20912461.134      933220.27349    721605.03747  20912460.985    20912466.975
  21512659.035    -2673112.02049  -2066886.54847  21512658.207    21512665.059
  23191150.823     2068512.81849   1598082.01146  23191149.981    23191158.313
  21243369.959      933738.47849    721782.26147  21243369.491    21243376.155
 03  3 26 17  6 30.0000000  0  6G30G24G 4G 5G 7G 9
  24090573.318    -3633646.80049  -2813179.84045  24090573.223    24090582.024
  20577878.220    -1584652.65549  -1229727.85748  20577877.742    20577884.903
  20920625.059      976122.11449    755035.03947  20920624.913    20920630.956
  21499755.837    -2740918.85149  -2119723.02647  21499755.009    21499761.837
  23203953.191     2135789.19549   1650505.08846  23203952.308    23203960.656
  21251499.317      976458.45349    755070.51847  21251498.873    21251505.519
 03  3 26 17  7  0.0000000  0  6G30G24G 4G 5G 7G 9
  24072048.374    -3730995.88949  -2889036.21145  24072048.288    24072057.049
  20572466.452    -1613091.46549  -1251887.94848  20572465.978    20572473.159
  20928891.479     1019562.37449    788884.58247  20928891.350    20928897.388
  21486895.754    -2808499.06649  -2172382.91747  21486894.952    21486901.720
  23216761.572     2203097.12549   1702952.74646  23216760.681    23216768.982
  21259729.552     1019708.51649    788771.83147  21259729.106    21259735.757
 03  3 26 17  7 30.0000000  0  6G30G24G 4G 5G 7G 9
  24053524.604    -3828338.98349  -2964887.93145  24053524.561    24053533.215
  20567160.181    -1640976.11849  -1273616.23448  20567159.722    20567166.867
  20937260.065     1063539.38749    823152.36847  20937259.937    20937266.008
  21474079.227    -2875850.72149  -2224864.71047  21474078.435    21474085.131
  23229575.907     2270436.32049   1755424.75846  23229575.000    23229583.269
  21268060.355     1063487.06349    822884.94347  21268059.918    21268066.614
 03  3 26 17  8  0.0000000  0  6G30G24G 4G 5G 7G 9
  24035002.257    -3925674.63349  -3040733.83745  24035002.204    24035010.797
  20561959.481    -1668306.15849  -1294912.34748  20561959.002    20561966.125
  20945730.308     1108050.91449    857836.65947  20945730.173    20945736.289
  21461306.535    -2942971.92549  -2277166.92347  21461305.737    21461312.385
  23242396.104     2337806.33349   1807920.78846  23242395.204    23242403.462
  21276491.369     1107792.10649    857408.31347  21276490.912    21276497.665
 03  3 26 17  8 30.0000000  0  6G30G24G 4G 5G 7G 9
  24016481.550    -4023001.55149  -3116572.91445  24016481.486    24016490.032
  20556864.421    -1695080.91649  -1315775.77448  20556863.939    20556871.062
  20954301.974     1153095.08449    892935.98847  20954301.829    20954307.955
  21448578.036    -3009860.87649  -2329288.15947  21448577.219    21448583.815
  23255222.074     2405206.62549   1860440.40746  23255221.146    23255229.409
  21285022.191     1152621.82949    892340.52447  21285021.726    21285028.534
 03  3 26 17  9  0.0000000  0  6G30G24G 4G 5G 7G 9
  23997962.803    -4120318.08949  -3192403.92245  23997962.726    23997971.231
  20551875.110    -1721299.82649  -1336206.07148  20551874.643    20551881.747
  20962974.591     1198669.97049    928448.86947  20962974.455    20962980.586
  21435894.143    -3076515.32849  -2381226.67547  21435893.290    21435899.902
  23268053.759     2472637.18249   1912983.60946  23268052.842    23268061.077
  21293652.569     1197974.69949    927680.37247  21293652.141    21293658.940
 03  3 26 17  9 30.0000000  0  6G30G24G 4G 5G 7G 9
  23979446.246    -4217622.91849  -3268225.81345  23979446.235    23979454.658
  20546991.592    -1746962.85549  -1356203.21148  20546991.134    20546998.231
  20971747.815     1244773.26149    964373.49347  20971747.691    20971753.782
  21423255.092    -3142933.97349  -2432981.43347  21423254.260    21423260.885
  23280891.069     2540097.29949   1965549.86046  23280890.135    23280898.385
  21302382.101     1243848.41349    963426.08047  21302381.668    21302388.438
 03  3 26 17 10  0.0000000  0  6G30G24G 4G 5G 7G 9
  23960932.169    -4314914.80949  -3344037.60545  23960932.132    23960940.554
  20542213.982    -1772069.36749  -1375766.70448  20542213.522    20542220.604
  20980621.217     1291403.15249   1000708.44847  20980621.098    20980627.172
  21410661.250    -3209114.70149  -2484550.80647  21410660.428    21410667.075
  23293733.949     2607586.88349   2018139.05846  23293732.985    23293741.321
  21311210.419     1290241.03549    999576.13147  21311209.966    21311216.679
 03  3 26 17 10 30.0000000  0  6G30G24G 4G 5G 7G 9
  23942420.902    -4412191.97949  -3419837.93645  23942420.957    23942429.179
  20537542.281    -1796619.09649  -1394896.34048  20537541.836    20537548.933
  20989594.397     1338557.51249   1037452.08747  20989594.266    20989600.383
  21398113.102    -3275055.50549  -2535933.22547  21398112.305    21398118.972
  23306582.383     2675105.66549   2070751.01546  23306581.449    23306589.819
  21320137.109     1337150.86249   1036129.20147  21320136.666    21320143.363
 03  3 26 17 11  0.0000000  0  6G30G24G 4G 5G 7G 9
  23923912.635    -4509453.42249  -3495626.01345  23923912.560    23923920.919
  20532976.578    -1820611.99549  -1413592.08248  20532976.116    20532983.271
  20998666.950     1386234.05049   1074602.61447  20998666.815    20998672.972
  21385610.905    -3340754.67049  -2587127.35647  21385610.110    21385616.806
  23319436.262     2742652.97049   2123385.19846  23319435.321    23319443.725
  21329161.805     1384575.63449   1073083.52647  21329161.379    21329168.035
 03  3 26 17 11 30.0000000  0  6G30G24G 4G 5G 7G 9
  23905407.657    -4606697.40649  -3571400.48845  23905407.541    23905415.992
  20528516.924    -1844047.61749  -1431853.58148  20528516.464    20528523.599
  21007838.537     1434430.87349   1112158.56647  21007838.406    21007844.597
  21373155.085    -3406210.11649  -2638131.57847  21373154.303    21373161.034
  23332295.561     2810228.62749   2176041.47646  23332294.659    23332303.100
  21338284.135     1432513.55249   1110437.70847  21338283.703    21338290.363
 03  3 26 17 12  0.0000000  0  6G30G24G 4G 5G 7G 9
  23886906.295    -4703922.36149  -3647160.12645  23886906.299    23886914.558
  20524163.443    -1866925.31749  -1449680.34048  20524162.988    20524170.095
  21017108.716     1483145.83049   1150118.24947  21017108.598    21017114.773
  21360746.089    -3471419.62449  -2688944.15947  21360745.324    21360752.092
  23345160.284     2877832.47049   2228719.72246  23345159.402    23345167.783
  21347503.742     1480962.68749   1148190.23747  21347503.311    21347510.010
 03  3 26 17 12 30.0000000  0  6G30G24G 4G 5G 7G 9
  23868408.875    -4801126.84549  -3722903.83445  23868408.825    23868417.080
  20519916.193    -1889244.65649  -1467072.01348  20519915.728    20519922.826
  21026477.163     1532377.06649   1188480.23647  21026477.043    21026483.179
  21348384.270    -3536381.49249  -2739563.77647  21348383.502    21348390.244
  23358030.245     2945464.21849   2281419.71646  23358029.363    23358037.745
  21356820.256     1529921.27649   1186339.75047  21356819.831    21356826.606
 03  3 26 17 13  0.0000000  0  6G30G24G 4G 5G 7G 9
  23849915.757    -4898308.73149  -3798629.91445  23849915.706    23849923.871
  20515775.249    -1911005.39849  -1484028.41948  20515774.805    20515781.875
  21035943.513     1582122.78549   1227243.11447  21035943.399    21035949.501
  21336070.057    -3601093.11849  -2789988.39847  21336069.267    21336076.020
  23370905.539     3013124.07049   2334141.60346  23370904.709    23370913.129
  21366233.419     1579387.84449   1224885.09147  21366233.005    21366239.838
 03  3 26 17 13 30.0000000  0  6G30G24G 4G 5G 7G 9
  23831426.824    -4995468.54949  -3874338.78345  23831426.856    23831434.951
  20511740.337    -1932209.10849  -1500550.77648  20511739.878    20511746.934
  21045506.938     1632378.84849   1266403.66647  21045506.829    21045512.937
  21323803.420    -3665554.79649  -2840218.26247  21323802.629    21323809.352
  23383785.748     3080809.71749   2386883.58346  23383784.902    23383793.383
  21375742.458     1629358.30149   1263823.07647  21375742.062    21375748.916
 03  3 26 17 14  0.0000000  0  6G30G24G 4G 5G 7G 9
  23812942.830    -5092602.61849  -3950027.60345  23812942.783    23812950.937
  20507811.735    -1952853.77749  -1516637.51948  20507811.278    20507818.360
  21055167.526     1683145.47249   1305962.05947  21055167.441    21055173.553
  21311585.158    -3729762.39449  -2890250.14247  21311584.377    21311591.062
  23396671.195     3148522.98349   2439647.07546  23396670.312    23396678.829
  21385347.423     1679832.62849   1303153.68647  21385347.022    21385353.912
 03  3 26 17 14 30.0000000  0  6G30G24G 4G 5G 7G 9
  23794463.921    -5189709.87449  -4025695.50545  23794463.895    23794472.005
  20503989.618    -1972939.17349  -1532288.47348  20503989.184    20503996.225
  21064924.678     1734419.55249   1345915.87347  21064924.586    21064930.708
  21299415.518    -3793714.33349  -2940082.80747  21299414.732    21299421.418
  23409561.848     3216263.34149   2492431.67346  23409560.938    23409569.526
  21395047.761     1730808.21849   1342874.88747  21395047.367    21395054.252
 03  3 26 17 15  0.0000000  0  6G30G24G 4G 5G 7G 9
  23775990.371    -5286789.01249  -4101341.51145  23775990.324    23775998.377
  20500273.938    -1992465.24549  -1547503.58648  20500273.506    20500280.545
  21074777.992     1786198.98149   1386263.46847  21074777.895    21074784.007
  21287294.790    -3857408.91149  -2989714.92947  21287294.003    21287300.721
  23422457.488     3284030.05349   2545236.81846  23422456.561    23422465.192
  21404843.104     1782282.91249   1382985.00647  21404842.696    21404849.605
 03  3 26 17 15 30.0000000  0  6G30G24G 4G 5G 7G 9
  23757522.482    -5383838.22249  -4176964.17245  23757522.470    23757530.499
  20496664.709    -2011431.89449  -1562282.78648  20496664.275    20496671.286
  21084727.082     1838481.79349   1427003.30447  21084726.977    21084733.111
  21275223.478    -3920844.01049  -3039144.86247  21275222.690    21275229.410
  23435358.079     3351823.14549   2598062.51046  23435357.230    23435365.894
  21414733.061     1834254.76849   1423482.52347  21414732.679    21414739.589
 03  3 26 17 16  0.0000000  0  6G30G24G 4G 5G 7G 9
  23739060.582    -5480855.93349  -4252562.29645  23739060.681    23739068.610
  20493161.921    -2029839.14249  -1576626.09248  20493161.489    20493168.487
  21094771.557     1891265.74349   1468133.64047  21094771.474    21094777.581
  21263201.937    -3984017.67049  -3088371.07347  21263201.152    21263207.888
  23448263.727     3419642.51849   2650908.67045  23448262.955    23448271.621
  21424717.269     1886721.84449   1464365.92247  21424716.877    21424723.795
 03  3 26 17 16 30.0000000  0  6G30G24G 4G 5G 7G 9
  23720604.949    -5577841.25149  -4328135.17445  23720604.927    23720612.826
  20489765.505    -2047687.46649  -1590533.87048  20489765.061    20489772.085
  21104910.798     1944547.71849   1509652.05047  21104910.704    21104916.803
  21251230.396    -4046928.49549  -3137392.47847  21251229.610    21251236.334
  23461174.211     3487487.06249   2703774.45345  23461173.378    23461182.128
  21434795.140     1939681.26849   1505632.97147  21434794.760    21434801.680
 03  3 26 17 17  0.0000000  0  6G30G24G 4G 5G 7G 9
  23702155.739    -5674792.50549  -4403681.51945  23702155.729    23702163.595
  20486475.513    -2064976.46349  -1604005.80848  20486475.078    20486482.113
  21115144.470     1998326.08249   1551557.25647  21115144.370    21115150.489
  21239309.276    -4109574.24649  -3186207.32947  21239308.473    21239315.222
  23474089.487     3555356.92049   2756659.95345  23474088.657    23474097.420
  21444966.382     1993131.12849   1547282.17447  21444965.989    21444972.898
 03  3 26 17 17 30.0000000  0  6G30G24G 4G 5G 7G 9
  23683713.346    -5771707.77949  -4479199.83745  23683713.417    23683721.165
  20483292.021    -2081705.79749  -1617041.64548  20483291.592    20483298.621
  21125472.166     2052598.58349   1593847.50247  21125472.070    21125478.281
  21227438.972    -4171952.96649  -3234814.10547  21227438.180    21227444.910
  23487009.624     3623251.99749   2809565.10645  23487008.782    23487017.480
  21455230.542     2047069.49649   1589312.03347  21455230.163    21455237.064
 03  3 26 17 18  0.0000000  0  6G30G24G 4G 5G 7G 9
  23665278.065    -5868585.58749  -4554688.96045  23665278.179    23665285.852
  20480214.922    -2097875.83749  -1629641.66648  20480214.483    20480221.549
  21135893.348     2107362.40549   1636520.59147  21135893.266    21135899.529
  21215619.836    -4234062.97649  -3283211.49047  21215619.053    21215625.743
  23499934.451     3691171.77649   2862489.50745  23499933.574    23499942.269
  21465587.182     2101493.74649   1631720.50447  21465586.803    21465593.690
 03  3 26 17 18 30.0000000  0  6G30G24G 4G 5G 7G 9
  23646850.261    -5965424.05849  -4630147.43245  23646850.316    23646858.039
  20477244.308    -2113486.46749  -1641805.78748  20477243.889    20477250.988
  21146407.783     2162616.02849   1679575.33047  21146407.707    21146413.997
  21203852.313    -4295901.69549  -3331397.48447  21203851.529    21203858.175
  23512863.983     3759116.39949   2915433.26445  23512863.094    23512871.804
  21476035.916     2156402.09549   1674506.18747  21476035.530    21476042.444
 03  3 26 17 19  0.0000000  0  6G30G24G 4G 5G 7G 9
  23628430.270    -6062221.67249  -4705574.07045  23628430.388    23628438.045
  20474380.154    -2128537.57049  -1653533.90348  20474379.732    20474386.844
  21157014.962     2218357.00649   1723009.83247  21157014.873    21157021.183
  21192136.775    -4357467.33149  -3379370.67647  21192136.030    21192142.595
  23525798.143     3827085.65749   2968396.21345  23525797.299    23525805.996
  21486576.352     2211792.21749   1717667.28747  21486575.953    21486582.857
 03  3 26 17 19 30.0000000  0  6G30G24G 4G 5G 7G 9
  23610018.340    -6158976.65149  -4780967.47745  23610018.454    23610026.130
  20471622.567    -2143028.93049  -1664825.86148  20471622.151    20471629.244
  21167714.459     2274583.13249   1766822.36047  21167714.356    21167720.680
  21180473.591    -4418757.83649  -3427129.48747  21180472.854    21180479.360
  23538737.010     3895079.51149   3021378.34245  23538736.132    23538744.890
  21497208.094     2267662.17949   1761202.28247  21497207.703    21497214.599
 03  3 26 17 20  0.0000000  0  6G30G24G 4G 5G 7G 9
  23591614.761    -6255687.71549  -4856326.67645  23591614.835    23591622.553
  20468971.318    -2156961.30349  -1675682.24648  20468970.886    20468977.970
  21178505.771     2331291.79849   1811010.90247  21178505.676    21178512.012
  21168863.095    -4479771.62549  -3474672.67247  21168862.342    21168868.800
  23551680.458     3963097.20749   3074379.01645  23551679.532    23551688.324
  21507930.629     2324009.23749   1805109.04347  21507930.240    21507937.094
 03  3 26 17 20 30.0000000  0  6G30G24G 4G 5G 7G 9
  23573219.900    -6352353.14249  -4931650.31245  23573219.909    23573227.698
  20466426.494    -2170334.38649  -1686102.81848  20466426.088    20466433.164
  21189388.475     2388480.62249   1855573.59347  21189388.392    21189394.734
  21157305.622    -4540506.61849  -3521998.61347  21157304.873    21157311.308
  23564628.445     4031138.77749   3127398.31645  23564627.507    23564636.347
  21518743.548     2380831.21649   1849385.86947  21518743.154    21518749.958
 03  3 26 17 21  0.0000000  0  6G30G24G 4G 5G 7G 9
  23554834.043    -6448971.22049  -5006937.04845  23554834.118    23554841.854
  20463988.075    -2183148.27849  -1696087.65148  20463987.666    20463994.748
  21200362.134     2446147.41849   1900508.72947  21200362.045    21200368.353
  21145801.594    -4600960.67049  -3569105.63947  21145800.847    21145807.294
  23577580.923     4099204.05049   3180436.08545  23577580.030    23577588.873
  21529646.433     2438126.07749   1894031.17547  21529646.056    21529652.860
 03  3 26 17 21 30.0000000  0  6G30G24G 4G 5G 7G 9
  23536457.507    -6545540.23949  -5082185.56545  23536457.590    23536465.368
  20461655.984    -2195403.52149  -1705637.17448  20461655.571    20461662.649
  21211426.308     2504289.83149   1945814.46847  21211426.215    21211432.511
  21134351.326    -4661131.97749  -3615992.34547  21134350.554    21134357.040
  23590537.892     4167292.79349   3233492.13745  23590537.001    23590545.880
  21540638.895     2495891.48149   1939043.13447  21540638.486    21540645.296
 03  3 26 17 22  0.0000000  0  6G30G24G 4G 5G 7G 9
  23518090.587    -6642058.78249  -5157394.73845  23518090.645    23518098.400
  20459430.186    -2207100.10249  -1714751.37448  20459429.772    20459436.878
  21222580.408     2562905.03049   1991488.61347  21222580.333    21222586.633
  21122955.156    -4721018.81949  -3662657.39447  21122954.403    21122960.947
  23603499.208     4235404.53749   3286566.11145  23603498.287    23603507.276
  21551720.295     2554124.51049   1984419.47647  21551719.875    21551726.689
 03  3 26 17 22 30.0000000  0  6G30G24G 4G 5G 7G 9
  23499733.617    -6738524.94049  -5232563.09345  23499733.703    23499741.371
  20457310.654    -2218238.22949  -1723430.41848  20457310.249    20457317.371
  21233824.118     2621990.99849   2037529.58647  21233824.049    21233830.355
  21111613.567    -4780618.74549  -3709098.87447  21111612.825    21111619.456
  23616464.904     4303539.32749   3339658.04145  23616463.992    23616473.051
  21562890.326     2612823.28649   2030158.73647  21562889.922    21562896.751
 03  3 26 17 23  0.0000000  0  6G30G24G 4G 5G 7G 9
  23481386.949    -6834936.95749  -5307689.24845  23481386.984    23481394.770
  20455297.384    -2228818.13949  -1731674.48948  20455296.993    20455304.085
  21245157.020     2681545.64749   2083935.77647  21245156.954    21245163.245
  21100327.000    -4839929.79749  -3755315.26147  21100326.258    21100332.942
  23629435.009     4371697.22649   3392767.95545  23629434.123    23629443.119
  21574148.584     2671985.60349   2076259.19547  21574148.188    21574155.004
 03  3 26 17 23 30.0000000  0  6G30G24G 4G 5G 7G 9
  23463050.891    -6931293.34449  -5382772.06645  23463050.958    23463058.576
  20453390.288    -2238840.02149  -1739483.73448  20453389.893    20453396.961
  21256578.569     2741565.97249   2130704.82747  21256578.497    21256584.753
  21089095.747    -4898950.31449  -3801305.26147  21089095.013    21089101.674
  23642409.408     4439877.79549   3445895.55645  23642408.511    23642417.532
  21585494.559     2731608.89549   2122718.86247  21585494.173    21585500.973
 03  3 26 17 24  0.0000000  0  6G30G24G 4G 5G 7G 9
  23444725.753    -7027592.12349  -5457809.98545  23444725.785    23444733.382
  20451589.390    -2248303.77949  -1746858.07948  20451588.980    20451596.041
  21268088.359     2802049.92549   2177835.14247  21268088.289    21268094.524
  21077920.261    -4957677.88249  -3847066.98947  21077919.510    21077926.183
  23655388.146     4508081.00649   3499040.78345  23655387.266    23655396.209
  21596927.847     2791690.94649   2169535.99447  21596927.468    21596934.301
 03  3 26 17 24 30.0000000  0  6G30G24G 4G 5G 7G 9
  23426411.876    -7123831.53749  -5532801.65245  23426411.843    23426419.539
  20449894.548    -2257210.10849  -1753798.05948  20449894.163    20449901.198
  21279685.909     2862995.34649   2225325.04547  21279685.850    21279692.106
  21066800.917    -5016110.56149  -3892598.93347  21066800.158    21066806.792
  23668371.215     4576306.95749   3552203.74245  23668370.297    23668379.398
  21608447.983     2852229.55049   2216708.87847  21608447.613    21608454.487
 03  3 26 17 25  0.0000000  0  6G30G24G 4G 5G 7G 9
  23408109.598    -7220010.05549  -5607745.87545  23408109.633    23408117.310
  20448305.801    -2265558.97249  -1760303.65348  20448305.413    20448312.440
  21291370.760     2924399.40649   2273172.32747  21291370.721    21291376.962
  21055738.051    -5074246.44449  -3937899.60547  21055737.306    21055743.903
  23681358.479     4644555.12649   3605383.99545  23681357.527    23681366.692
  21620054.517     2913221.99649   2264235.40947  21620054.148    21620061.090
 03  3 26 17 25 30.0000000  0  6G30G24G 4G 5G 7G 9
  23389819.291    -7316125.57449  -5682641.00645  23389819.325    23389827.064
  20446823.144    -2273350.38849  -1766374.87648  20446822.759    20446829.772
  21303142.480     2986259.92749   2321375.29547  21303142.421    21303148.665
  21044732.039    -5132083.49949  -3982967.42647  21044731.296    21044737.882
  23694349.970     4712825.68249   3658581.70045  23694349.093    23694358.256
  21631746.968     2974666.13149   2312113.90747  21631746.593    21631753.619
 03  3 26 17 26  0.0000000  0  6G30G24G 4G 5G 7G 9
  23371541.241    -7412176.64949  -5757485.92245  23371541.259    23371549.043
  20445446.375    -2280585.48549  -1772012.60048  20445445.982    20445452.974
  21315000.542     3048574.38549   2369931.98347  21315000.482    21315006.734
  21033783.239    -5189619.77549  -4027800.87447  21033782.505    21033789.095
  23707345.667     4781118.46449   3711796.72345  23707344.857    23707354.117
  21643524.918     3036559.61249   2360342.54747  21643524.560    21643531.654
 03  3 26 17 26 30.0000000  0  6G30G24G 4G 5G 7G 9
  23353275.797    -7508161.42949  -5832279.18245  23353275.865    23353283.585
  20444175.451    -2287264.21749  -1777216.79248  20444175.062    20444182.048
  21326944.519     3111340.31049   2418840.45947  21326944.453    21326950.736
  21022892.089    -5246853.23349  -4072398.36447  21022891.365    21022897.887
  23720345.610     4849433.28249   3765028.89445  23720344.837    23720354.113
  21655387.865     3098899.76249   2408919.24147  21655387.507    21655394.633
 03  3 26 17 27  0.0000000  0  6G30G24G 4G 5G 7G 9
  23335023.276    -7604078.36849  -5907019.57945  23335023.300    23335031.168
  20443010.187    -2293387.55249  -1781988.20648  20443009.809    20443016.798
  21338973.858     3174554.93449   2468098.57247  21338973.786    21338980.129
  21012058.901    -5303782.10849  -4116758.51547  21012058.175    21012064.645
  23733349.665     4917769.55649   3818277.81845  23733348.885    23733358.225
  21667335.324     3161683.76849   2457841.79747  21667334.946    21667342.097
 03  3 26 17 27 30.0000000  0  6G30G24G 4G 5G 7G 9
  23316784.061    -7699925.63849  -5981705.68845  23316784.136    23316792.025
  20441950.645    -2298955.52049  -1786326.87048  20441950.272    20441957.237
  21351088.147     3238215.78449   2517704.40047  21351088.079    21351094.451
  21001284.011    -5360404.60949  -4160879.93547  21001283.284    21001289.770
  23746357.854     4986127.32149   3871543.47445  23746357.078    23746366.402
  21679366.772     3224909.33949   2507108.43147  21679366.367    21679373.557
 03  3 26 17 28  0.0000000  0  6G30G24G 4G 5G 7G 9
  23298558.412    -7795701.61949  -6056336.24545  23298558.534    23298566.391
  20440996.627    -2303968.79549  -1790233.30648  20440996.253    20441003.204
  21363286.873     3302320.35349   2567655.98547  21363286.814    21363293.195
  20990567.771    -5416718.70349  -4204761.03847  20990567.043    20990573.559
  23759370.090     5054506.40549   3924825.74045  23759369.311    23759378.659
  21691481.739     3288573.93349   2556717.15447  21691481.350    21691488.589
 03  3 26 17 28 30.0000000  0  6G30G24G 4G 5G 7G 9
  23280346.744    -7891404.34849  -6130909.73545  23280346.891    23280354.701
  20440148.081    -2308427.93749  -1793707.95048  20440147.710    20440154.661
  21375569.579     3366866.22149   2617951.44047  21375569.511    21375575.906
  20979910.550    -5472722.39949  -4248400.26747  20979909.831    20979916.408
  23772386.322     5122906.81849   3978124.62145  23772385.600    23772394.954
  21703679.777     3352675.09949   2606666.06947  21703679.425    21703686.667
 03  3 26 17 29  0.0000000  0  6G30G24G 4G 5G 7G 9
  23262149.323    -7987032.28649  -6205424.92545  23262149.439    23262157.238
  20439404.910    -2312333.38649  -1796751.15248  20439404.545    20439411.503
  21387935.704     3431850.52149   2668588.52847  21387935.640    21387942.058
  20969312.739    -5528413.86449  -4291796.20147  20969312.047    20969318.656
  23785406.597     5191328.21349   4031439.85545  23785405.826    23785415.280
  21715960.439     3417210.09649   2656953.03147  21715960.083    21715967.343
 03  3 26 17 29 30.0000000  0  6G30G24G 4G 5G 7G 9
  23243966.567    -8082583.52849  -6279880.37545  23243966.626    23243974.361
  20438767.021    -2315685.43349  -1799363.13048  20438766.666    20438773.593
  21400384.851     3497271.04449   2719565.53047  21400384.782    21400391.237
  20958774.826    -5583790.96749  -4334947.17547  20958774.123    20958780.722
  23798430.878     5259770.63449   4084771.48145  23798430.000    23798439.522
  21728323.164     3482176.37949   2707576.06447  21728322.785    21728330.085
 03  3 26 17 30  0.0000000  0  6G30G24G 4G 5G 7G 9
  23225798.822    -8178055.90849  -6354274.36346  23225798.904    23225806.535
  20438234.335    -2318484.74149  -1801544.40948  20438233.975    20438240.884
  21412916.499     3563125.23049   2770880.45147  21412916.446    21412922.888
  20948297.155    -5638851.70149  -4377851.62647  20948296.446    20948303.029
  23811459.161     5328234.10649   4138119.51545  23811458.350    23811467.765
  21740767.516     3547571.68849   2758533.39947  21740767.140    21740774.486
 03  3 26 17 30 30.0000000  0  7G30G24G 4G 5G10G 7G 9
  23207645.550    -8273452.11149  -6428609.00546  23207645.611    23207653.121
  20437805.917    -2320736.04549  -1803298.66748  20437805.542    20437812.461
  21425529.397     3629406.14249   2822527.89147  21425529.334    21425535.802
  20937879.262    -5693598.35649  -4420511.33947  20937878.528    20937885.102
  24579131.161    -2114698.15849  -1393137.21244  24579129.922    24579143.563
  23824490.613     5396714.16049   4191480.48245  23824489.728    23824499.265
  21753292.178     3613389.04649   2809819.60547  21753291.809    21753299.206
 03  3 26 17 31  0.0000000  0  7G30G24G 4G 5G10G 7G 9
  23189507.137    -8368770.10749  -6502882.70546  23189507.158    23189514.646
  20437481.661    -2322439.98149  -1804626.40548  20437481.286    20437488.218
  21438223.130     3696111.84749   2874506.33547  21438223.057    21438229.521
  20927521.483    -5748028.81449  -4462924.66347  20927520.769    20927527.313
  24560461.709    -2212806.70449  -1469585.32045  24560460.706    24560474.311
  23837525.128     5465210.86849   4244854.40745  23837524.366    23837533.842
  21765896.747     3679626.35149   2861433.03947  21765896.383    21765903.809
 03  3 26 17 31 30.0000000  0  7G30G24G 4G 5G10G 7G 9
  23171385.538    -8463999.75649  -6577087.55946  23171385.554    23171392.991
  20437263.095    -2323588.74049  -1805521.54048  20437262.707    20437269.614
  21450998.690     3763247.62249   2926819.89847  21450998.623    21451005.096
  20917225.847    -5802132.88149  -4505083.66047  20917225.116    20917231.700
  24541780.014    -2310979.70449  -1546083.63544  24541778.951    24541792.621
  23850564.370     5533732.45349   4298247.69945  23850563.618    23850573.137
  21778582.287     3746289.08449   2913377.97347  21778581.931    21778589.360
 03  3 26 17 32  0.0000000  0  7G30G24G 4G 5G10G 7G 9
  23153280.744    -8559141.12249  -6651223.61946  23153280.737    23153288.223
  20437149.666    -2324184.81849  -1805986.01148  20437149.276    20437156.159
  21463855.238     3830809.28149   2979465.32847  21463855.172    21463861.694
  20906992.321    -5855910.35449  -4546988.16747  20906991.591    20906998.191
  24523086.203    -2409215.98349  -1622631.23145  24523084.843    24523098.826
  23863607.966     5602277.02849   4351658.92145  23863607.248    23863617.017
  21791347.963     3813372.77849   2965650.93947  21791347.614    21791355.051
 03  3 26 17 32 30.0000000  0  7G30G24G 4G 5G10G 7G 9
  23135192.887    -8654193.25449  -6725290.17246  23135192.879    23135200.341
  20437141.184    -2324229.45249  -1806020.78748  20437140.812    20437147.688
  21476792.153     3898793.21949   3032439.79947  21476792.106    21476798.612
  20896821.136    -5909360.22249  -4588637.39747  20896820.422    20896827.009
  24504380.604    -2507513.95149  -1699226.87145  24504379.192    24504393.407
  23876655.849     5670843.43649   4405087.14245  23876655.065    23876664.812
  21804193.023     3880873.81549   3018249.10847  21804192.662    21804200.122
 03  3 26 17 33  0.0000000  0  7G30G24G 4G 5G10G 7G 9
  23117122.197    -8749154.81149  -6799286.12746  23117122.249    23117129.697
  20437237.326    -2323724.34649  -1805627.18848  20437236.945    20437243.851
  21489808.827     3967196.26149   3085740.84747  21489808.765    21489815.297
  20886712.575    -5962481.05049  -4630030.23447  20886711.840    20886718.432
  24485663.726    -2605871.05849  -1775868.57045  24485662.369    24485676.478
  23889707.735     5739431.15249   4458531.94545  23889706.970    23889716.894
  21817116.907     3948789.06049   3071170.03347  21817116.574    21817124.001
 03  3 26 17 33 30.0000000  0  7G30G24G 4G 5G10G 7G 9
  23099069.085    -8844024.07949  -6873210.17446  23099069.178    23099076.647
  20437437.890    -2322670.38449  -1804805.90948  20437437.497    20437444.444
  21502904.813     4036015.82549   3139366.45047  21502904.729    21502911.222
  20876666.920    -6015271.07249  -4671165.30047  20876666.205    20876672.776
  24466936.130    -2704284.30449  -1852553.99844  24466935.034    24466948.868
  23902763.705     5808039.89249   4511993.19645  23902762.862    23902772.829
  21830119.095     4017115.65249   3124411.48247  21830118.743    21830126.145
 03  3 26 17 34  0.0000000  0  7G30G24G 4G 5G10G 7G 9
  23081033.773    -8938799.63049  -6947061.18746  23081033.903    23081041.419
  20437742.648    -2321068.65449  -1803557.79248  20437742.256    20437749.239
  21516079.440     4105248.77649   3193314.18047  21516079.378    21516085.818
  20866684.548    -6067728.66849  -4712041.33047  20866683.825    20866690.389
  24448198.282    -2802751.27249  -1929281.25445  24448197.236    24448211.166
  23915823.583     5876669.19849   4565470.44345  23915822.730    23915832.690
  21843198.999     4085850.70649   3177971.22447  21843198.648    21843206.037
 03  3 26 17 34 30.0000000  0  7G30G24G 4G 5G10G 7G 9
  23063016.638    -9033479.70449  -7020837.80746  23063016.766    23063024.365
  20438151.506    -2318919.95149  -1801883.46948  20438151.132    20438158.100
  21529332.200     4174892.40449   3247581.91647  21529332.143    21529338.582
  20856765.833    -6119851.81149  -4752656.75347  20856765.102    20856771.668
  24429450.808    -2901269.04049  -2006048.06345  24429449.714    24429463.525
  23928887.255     5945318.79449   4618963.50845  23928886.386    23928896.394
  21856356.046     4154991.32149   3231846.98447  21856355.680    21856363.104
 03  3 26 17 35  0.0000000  0  7G30G24G 4G 5G10G 7G 9
  23045018.135    -9128062.33949  -7094538.50346  23045018.237    23045025.852
  20438664.400    -2316224.87249  -1799783.39848  20438664.017    20438670.949
  21542662.590     4244943.90249   3302167.47747  21542662.525    21542668.993
  20846911.076    -6171638.75549  -4793010.20147  20846910.334    20846916.908
  24410694.155    -2999834.91549  -2082852.35945  24410693.029    24410706.800
  23941954.836     6013988.67949   4672472.37745  23941954.000    23941964.039
  21869589.761     4224534.96749   3286036.79647  21869589.408    21869596.886
 03  3 26 17 35 30.0000000  0  7G30G24G 4G 5G10G 7G 9
  23027038.545    -9222545.59149  -7168161.75846  23027038.613    23027046.232
  20439281.089    -2312984.35349  -1797258.30948  20439280.690    20439287.588
  21556070.179     4315401.10249   3357069.16547  21556070.113    21556076.587
  20837120.690    -6223087.48849  -4833100.11047  20837119.962    20837126.516
  24391928.926    -3098445.67249  -2159691.61945  24391927.860    24391941.639
  23955026.290     6082678.97849   4725997.15345  23955025.391    23955035.488
  21882899.687     4294478.98949   3340538.58947  21882899.344    21882906.838
 03  3 26 17 36  0.0000000  0  7G30G24G 4G 5G10G 7G 9
  23009078.217    -9316927.56549  -7241706.09246  23009078.266    23009085.892
  20440001.407    -2309199.24049  -1794308.85748  20440000.992    20440007.888
  21569554.398     4386261.09549   3412284.72147  21569554.328    21569560.816
  20827395.048    -6274196.08249  -4872924.97147  20827394.325    20827400.875
  24373155.714    -3197098.61049  -2236563.73145  24373154.697    24373168.497
  23968101.577     6151389.42749   4779537.62645  23968100.739    23968110.892
  21896285.279     4364820.50549   3395350.11447  21896284.917    21896292.398
 03  3 26 17 36 30.0000000  0  7G30G24G 4G 5G10G 7G 9
  22991137.560    -9411206.24349  -7315169.94446  22991137.577    22991145.233
  20440825.221    -2304870.02149  -1790935.43048  20440824.821    20440831.694
  21583114.788     4457521.30049   3467812.13147  21583114.721    21583121.203
  20817734.520    -6324962.57549  -4912483.26347  20817733.793    20817740.320
  24354375.033    -3295790.62449  -2313466.29845  24354374.058    24354387.786
  23981180.742     6220120.14949   4833093.89545  23981179.944    23981189.987
  21909745.980     4435556.73149   3450469.20847  21909745.629    21909753.097
 03  3 26 17 37  0.0000000  0  8G30G24G 4G 5G10G 7G 6G 9
  22973216.142    -9505383.57549  -7388554.81346  22973216.174    22973223.777
  20441751.619    -2300001.81649  -1787142.01748  20441751.210    20441758.072
  21596750.081     4529175.18349   3523646.30247  21596750.011    21596756.453
  20808138.774    -6375388.65849  -4951776.30147  20808138.036    20808144.568
  24335586.808    -3394522.41149  -2390399.86045  24335586.024    24335599.528
  23994263.008     6288867.24749   4886662.93545  23994262.148    23994272.288
  24823478.698    -1138288.00149   -879255.31745  24823478.144    24823488.591
  21923280.673     4506681.60749   3505891.14647  21923280.299    21923287.726
 03  3 26 17 37 30.0000000  0  8G30G24G 4G 5G10G 7G 6G 9
  22955314.971    -9599454.52049  -7461856.77746  22955314.987    22955322.655
  20442781.050    -2294592.07949  -1782926.63248  20442780.647    20442787.491
  21610460.454     4601223.41649   3579787.75647  21610460.360    21610466.808
  20798608.719    -6425469.25749  -4990800.13347  20798607.993    20798614.523
  24316792.179    -3493288.02149  -2467359.79745  24316791.196    24316804.712
  24007348.927     6357633.75749   4940247.08845  24007348.029    24007358.300
  24809557.461    -1211444.01449   -936259.89245  24809557.001    24809567.401
  21936889.314     4578195.32349   3561616.07647  21936888.948    21936896.306
 03  3 26 17 38  0.0000000  0  8G30G24G 4G 5G10G 7G 6G 9
  22937434.947    -9693414.28549  -7535072.11346  22937435.004    22937442.636
  20443913.824    -2288639.11449  -1778287.95148  20443913.423    20443920.308
  21624245.863     4673666.04049   3636236.53147  21624245.766    21624252.232
  20789145.301    -6475199.90149  -5029551.27547  20789144.565    20789151.119
  24297992.146    -3592081.80049  -2544341.67945  24297991.221    24298004.751
  24020439.073     6426422.41949   4993848.50845  24020438.217    24020448.457
  24795648.670    -1284534.66349   -993213.55145  24795648.250    24795658.722
  21950571.938     4650097.84349   3617643.96847  21950571.565    21950578.932
 03  3 26 17 38 30.0000000  0  8G30G24G 4G 5G10G 7G 6G 9
  22919576.238    -9787262.07149  -7608200.18846  22919576.317    22919583.930
  20445149.567    -2282145.05449  -1773227.64048  20445149.168    20445156.101
  21638105.578     4746499.24349   3692989.64047  21638105.501    21638111.983
  20779748.643    -6524579.65249  -5068028.99447  20779747.890    20779754.462
  24279187.213    -3690901.53049  -2621343.80145  24279186.189    24279199.778
  24033533.295     6495232.15049   5047466.34145  24033532.461    24033542.648
  24781752.155    -1357561.16449  -1050117.22945  24781751.710    24781762.126
  21964327.799     4722385.26149   3673971.78447  21964327.413    21964334.776
 03  3 26 17 39  0.0000000  0  8G30G24G 4G 5G10G 7G 6G 9
  22901739.119    -9880996.36249  -7681239.83846  22901739.246    22901746.809
  20446488.132    -2275110.94449  -1767746.51348  20446487.741    20446494.707
  21652039.010     4819719.99949   3750044.73647  21652038.935    21652045.445
  20770419.039    -6573607.00349  -5106232.12147  20770418.279    20770424.831
  24260377.826    -3789744.75149  -2698364.23645  24260376.731    24260390.197
  24046631.324     6564062.43749   5101100.18745  24046630.514    24046640.772
  24767867.792    -1430523.93449  -1106971.24145  24767867.452    24767877.649
  21978156.346     4795054.47349   3730597.09947  21978155.979    21978163.315
 03  3 26 17 39 30.0000000  0  8G30G24G 4G 5G10G 7G 6G 9
  22883923.981    -9974615.23649  -7754189.54946  22883924.149    22883931.620
  20447929.204    -2267537.80349  -1761845.36648  20447928.814    20447935.817
  21666045.718     4893325.53849   3807399.66547  21666045.658    21666052.146
  20761156.840    -6622280.28349  -5144159.34747  20761156.101    20761162.638
  24241564.456    -3888608.51449  -2775400.70545  24241563.375    24241576.837
  24059733.253     6632913.25249   5154750.04345  24059732.364    24059742.664
  24753995.530    -1503423.50049  -1163775.99945  24753995.256    24754005.237
  21992057.013     4868102.63449   3787517.69647  21992056.646    21992063.966
 03  3 26 17 40  0.0000000  0  8G30G24G 4G 5G10G 7G 6G 9
  22866131.177   -10068117.16749  -7827048.13246  22866131.347    22866138.731
  20449472.567    -2259427.17349  -1755525.39648  20449472.185    20449479.223
  21680125.056     4967312.82149   3865052.06047  21680125.012    21680131.478
  20751962.326    -6670597.83849  -5181809.38047  20751961.576    20751968.105
  24222747.685    -3987490.30649  -2852451.22945  24222746.682    24222760.090
  24072839.057     6701784.09649   5208415.50545  24072838.141    24072848.539
  24740135.181    -1576260.16349  -1220531.76345  24740134.741    24740144.759
  22006029.088     4941526.47049   3844731.02047  22006028.723    22006036.108
 03  3 26 17 40 30.0000000  0  8G30G24G 4G 5G10G 7G 6G 9
  22848361.043   -10161499.96349  -7899813.89046  22848361.189    22848368.471
  20451118.067    -2250779.85549  -1748787.22948  20451117.696    20451124.735
  21694276.593     5041679.28549   3922999.91647  21694276.505    21694282.948
  20742835.882    -6718557.64849  -5219180.65047  20742835.124    20742841.647
  24203928.142    -4086386.83549  -2929513.26545  24203927.100    24203940.406
  24085948.628     6770675.02749   5262096.62245  24085947.735    24085958.236
  24726286.847    -1649033.99249  -1277238.56745  24726286.288    24726296.301
  22020072.115     5015323.29149   3902234.98047  22020071.772    22020079.264
 03  3 26 17 41  0.0000000  0  8G30G24G 4G 5G10G 7G 6G 9
  22830613.940   -10254761.89949  -7972485.46846  22830614.035    22830621.259
  20452865.480    -2241597.20949  -1741631.92348  20452865.096    20452872.127
  21708499.793     5116422.21149   3981241.11947  21708499.708    21708506.079
  20733777.822    -6766157.88449  -5256271.73147  20733777.085    20733783.606
  24185106.330    -4185295.29749  -3006584.60545  24185105.201    24185118.652
  24099062.059     6839585.97149   5315793.31845  24099061.087    24099071.724
  24712450.321    -1721745.18149  -1333896.57545  24712449.897    24712459.825
  22034185.628     5089490.16849   3960027.29747  22034185.311    22034192.856
 03  3 26 17 41 30.0000000  0  8G30G24G 4G 5G10G 7G 6G 9
  22812890.293   -10347900.58649  -8045061.02046  22812890.375    22812897.490
  20454714.591    -2231880.19349  -1734060.22948  20454714.206    20454721.179
  21722794.091     5191539.06649   4039773.69347  21722794.012    21722800.359
  20724788.614    -6813396.43749  -5293080.98447  20724787.878    20724794.372
  24166282.838    -4284212.38549  -3083662.68845  24166281.662    24166295.163
  24112179.297     6908517.06849   5369505.72445  24112178.356    24112189.059
  24698625.726    -1794393.67449  -1390505.72045  24698625.298    24698635.149
  22048369.144     5164024.47049   4018105.92047  22048368.812    22048376.374
 03  3 26 17 42  0.0000000  0  8G30G24G 4G 5G10G 7G 6G 9
  22795190.318   -10440914.42749  -8117539.26846  22795190.378    22795197.389
  20456665.180    -2221629.80849  -1726072.91948  20456664.806    20456671.744
  21737158.968     5267026.73349   4098595.20947  21737158.898    21737165.233
  20715868.571    -6860271.73049  -5329607.17647  20715867.833    20715874.310
  24147458.340    -4383135.13149  -3160745.19645  24147457.194    24147470.626
  24125300.340     6977468.08649   5423233.67045  24125299.492    24125310.232
  24684812.965    -1866979.93949  -1447066.38745  24684812.480    24684822.505
  22062621.999     5238923.18649   4076468.50347  22062621.645    22062629.193
 03  3 26 17 42 30.0000000  0  8G30G24G 4G 5G10G 7G 6G 9
  22777514.461   -10533801.29749  -8189918.59146  22777514.565    22777521.520
  20458717.132    -2210846.73449  -1717670.52948  20458716.765    20458723.678
  21751593.903     5342882.66849   4157703.68147  21751593.835    21751600.203
  20707018.048    -6906781.72449  -5365848.71447  20707017.300    20707023.781
  24128633.372    -4482060.43349  -3237829.71145  24128632.256    24128645.428
  24138425.269     7046439.05149   5476977.13345  24138424.386    24138435.125
  24671012.109    -1939503.93549  -1503578.52645  24671011.664    24671021.783
  22076943.762     5314183.82549   4135113.10347  22076943.410    22076950.932
 03  3 26 17 43  0.0000000  0  8G30G24G 4G 5G10G 7G 6G 9
  22759863.225   -10626558.87349  -8262197.16946  22759863.314    22759870.217
  20460870.177    -2199532.58849  -1708854.31748  20460869.795    20460876.699
  21766098.450     5419104.45549   4217097.23647  21766098.384    21766104.775
  20698237.379    -6952924.40349  -5401804.03447  20698236.639    20698243.123
  24109808.384    -4580985.26549  -3314913.86645  24109807.328    24109820.422
  24151553.983     7115430.14249   5530736.28545  24151553.108    24151563.753
  24657223.050    -2011965.55749  -1560042.08545  24657222.730    24657232.727
  22091333.766     5389803.42249   4194037.40847  22091333.408    22091340.900
 03  3 26 17 43 30.0000000  0  8G30G24G 4G 5G10G 7G 6G 9
  22742236.966   -10719185.09549  -8334373.38946  22742237.077    22742243.912
  20463124.100    -2187688.15549  -1699624.89348  20463123.704    20463130.611
  21780672.159     5495689.65249   4276773.96947  21780672.094    21780678.552
  20689527.057    -6998697.54149  -5437471.39947  20689526.309    20689532.797
  24090984.159    -4679906.39549  -3391995.14445  24090983.239    24090996.144
  24164686.513     7184441.63649   5584511.33645  24164685.746    24164696.213
  24643445.937    -2084364.83849  -1616457.05945  24643445.528    24643455.336
  22105791.548     5465779.38949   4253239.40047  22105791.189    22105798.698
 03  3 26 17 44  0.0000000  0  8G30G24G 4G 5G10G 7G 6G 9
  22724636.066   -10811678.27149  -8406445.94446  22724636.162    22724643.016
  20465478.620    -2175314.86849  -1689983.37948  20465478.224    20465485.147
  21795314.363     5572635.04149   4336731.37247  21795314.308    21795320.813
  20680887.348    -7044099.59749  -5472849.60847  20680886.610    20680893.040
  24072161.185    -4778820.88249  -3469071.24445  24072160.040    24072173.112
  24177822.884     7253473.09049   5638301.94545  24177822.122    24177832.631
  24629680.541    -2156702.25549  -1672823.82545  24629680.087    24629690.001
  22120316.489     5542108.35249   4312716.45047  22120316.134    22120323.648
 03  3 26 17 44 30.0000000  0  8G30G24G 4G 5G10G 7G 6G 9
  22707060.935   -10904036.02149  -8478412.96146  22707060.989    22707067.845
  20467933.672    -2162413.49249  -1679930.36148  20467933.305    20467940.215
  21810024.704     5649938.21249   4396967.57047  21810024.644    21810031.162
  20672318.621    -7089128.54749  -5507937.08447  20672317.872    20672324.250
  24053340.141    -4877725.27949  -3546139.48745  24053339.070    24053352.053
  24190963.055     7322524.86949   5692108.40145  24190962.315    24190972.892
  24615926.913    -2228977.81449  -1729142.39345  24615926.429    24615936.364
  22134908.180     5618787.95649   4372466.73747  22134907.832    22134915.343
 03  3 26 17 45  0.0000000  0  8G30G24G 4G 5G10G 7G 6G 9
  22689511.953   -10996256.45649  -8550272.99546  22689511.988    22689518.796
  20470489.015    -2148985.26949  -1669466.81348  20470488.636    20470495.550
  21824802.567     5727596.25749   4457480.28447  21824802.494    21824809.013
  20663821.249    -7133782.58049  -5542732.42247  20663820.495    20663826.830
  24034521.654    -4976616.79549  -3623197.69345  24034520.548    24034533.531
  24204107.086     7391596.76049   5745930.51845  24204106.305    24204116.923
  24602184.966    -2301191.59049  -1785412.81345  24602184.612    24602194.572
  22149566.071     5695815.18149   4432487.88647  22149565.705    22149573.186
 03  3 26 17 45 30.0000000  0  8G30G24G 4G 5G10G 7G 6G 9
  22671989.500   -11088337.48049  -8622024.39046  22671989.528    22671996.269
  20473144.290    -2135031.78749  -1658593.97148  20473143.927    20473150.839
  21839647.481     5805606.63649   4518267.54347  21839647.417    21839653.916
  20655395.569    -7178059.96649  -5577234.26247  20655394.808    20655401.131
  24015706.227    -5075492.10949  -3700243.26845  24015705.143    24015718.058
  24217254.970     7460688.80449   5799768.33045  24217254.203    24217264.679
  24588454.695    -2373343.98149  -1841635.39645  24588454.307    24588464.367
  22164289.485     5773187.07349   4492777.61147  22164289.132    22164296.635
 03  3 26 17 46  0.0000000  0  8G30G24G 4G 5G10G 7G 6G 9
  22654493.914   -11180277.03149  -8693665.54246  22654493.961    22654500.709
  20475899.312    -2120554.08749  -1647312.64648  20475898.940    20475905.851
  21854558.890     5883966.45549   4579327.09747  21854558.834    21854565.316
  20647041.882    -7221958.74249  -5611441.08847  20647041.131    20647047.459
  23996894.453    -5174348.28649  -3777273.94145  23996893.417    23996906.210
  24230406.756     7529801.00949   5853621.87245  24230405.929    24230416.495
  24574736.138    -2445434.89649  -1897810.07245  24574735.715    24574745.807
  22179077.951     5850900.86949   4553333.75047  22179077.604    22179085.108
 03  3 26 17 46 30.0000000  0  8G30G24G 4G 5G10G 7G 6G 9
  22637025.701   -11272072.78549  -8765194.64546  22637025.783    22637032.550
  20478753.904    -2105553.33449  -1635623.75048  20478753.524    20478760.406
  21869536.253     5962673.30849   4640657.05847  21869536.205    21869542.740
  20638760.662    -7265476.79349  -5645351.24547  20638759.914    20638766.234
  23978086.920    -5273182.09649  -3854287.15445  23978085.827    23978098.575
  24243562.403     7598933.68249   5907491.33845  24243561.531    24243572.170
  24561029.322    -2517464.18949  -1953936.73345  24561028.894    24561039.182
  22193930.994     5928953.85849   4614154.19747  22193930.631    22193938.171
 03  3 26 17 47  0.0000000  0  8G30G24G 4G 5G10G 7G 6G 9
  22619585.175   -11363723.02449  -8836610.35646  22619585.277    22619592.047
  20481707.804    -2090030.63049  -1623528.13548  20481707.419    20481714.289
  21884579.149     6041724.37649   4702255.24047  21884579.101    21884585.697
  20630552.235    -7308612.55849  -5678963.51147  20630551.496    20630557.784
  23959284.189    -5371990.52049  -3931280.59045  23959283.054    23959295.857
  24256721.887     7668086.58649   5961376.60045  24256720.961    24256731.801
  24547334.186    -2589432.38649  -2010015.78545  24547333.685    24547344.061
  22208847.947     6007342.75849   4675236.39747  22208847.585    22208855.132
 03  3 26 17 47 30.0000000  0  8G30G24G 4G 5G10G 7G 6G 9
  22602172.839   -11455225.28549  -8907910.77046  22602172.932    22602179.692
  20484760.758    -2073987.24449  -1611026.79848  20484760.376    20484767.237
  21899687.076     6121117.02049   4764119.58547  21899687.032    21899693.710
  20622416.927    -7351363.87649  -5712276.20947  20622416.168    20622422.411
  23940486.909    -5470770.04249  -4008251.48345  23940485.777    23940498.613
  24269885.223     7737259.90249   6015277.73945  24269884.398    24269895.217
  24533650.662    -2661339.40549  -2066047.16045  24533650.167    24533660.650
  22223828.342     6086064.95949   4736578.30347  22223827.994    22223835.536
 03  3 26 17 48  0.0000000  0  8G30G24G 4G 5G10G 7G 6G 9
  22584788.987   -11546577.76549  -8979094.47446  22584789.046    22584795.830
  20487912.564    -2057424.58449  -1598120.83148  20487912.184    20487919.042
  21914859.463     6200848.34149   4826247.83247  21914859.399    21914866.144
  20614355.079    -7393729.09049  -5745288.05047  20614354.339    20614360.557
  23921695.766    -5569517.76449  -4085197.59145  23921694.605    23921707.324
  24283052.439     7806453.51349   6069194.70245  24283051.613    24283062.585
  24519978.685    -2733185.48749  -2122031.04445  24519978.212    24519988.610
  22238871.578     6165117.40949   4798177.55047  22238871.230    22238878.771
 03  3 26 17 48 30.0000000  0  8G30G24G 4G 5G10G 7G 6G 9
  22567434.135   -11637778.04749  -9050159.57946  22567434.141    22567440.971
  20491162.914    -2040343.85649  -1584811.16948  20491162.533    20491169.395
  21930095.841     6280915.98949   4888638.15347  21930095.781    21930102.543
  20606367.136    -7435706.10549  -5777997.39947  20606366.399    20606372.601
  23902911.257    -5668230.40449  -4162116.36145  23902910.070    23902922.845
  24296223.643     7875667.77649   6123127.76145  24296222.824    24296233.756
  24506318.389    -2804970.54649  -2177967.37245  24506317.979    24506328.390
  22253977.184     6244497.44749   4860032.05647  22253976.812    22253984.355
 03  3 26 17 49  0.0000000  0  8G30G24G 4G 5G10G 7G 6G 9
  22550108.564   -11728824.46149  -9121104.79046  22550108.594    22550115.397
  20494511.528    -2022746.60649  -1571099.02748  20494511.145    20494518.024
  21945395.646     6361316.74149   4951288.04447  21945395.579    21945402.334
  20598453.309    -7477293.45449  -5810403.10847  20598452.578    20598458.769
  23884133.988    -5766905.08649  -4239005.54045  23884132.789    23884145.521
  24309398.658     7944902.21249   6177076.53345  24309397.784    24309408.820
  24492669.533    -2876695.36249  -2233856.74845  24492669.158    24492679.468
  22269144.429     6324201.76149   4922139.24847  22269144.072    22269151.622
 03  3 26 17 49 30.0000000  0  8G30G24G 4G 5G10G 7G 6G 9
  22532812.773   -11819714.34049  -9191928.01846  22532812.828    22532819.587
  20497958.232    -2004633.87849  -1556985.21148  20497957.859    20497964.733
  21960758.394     6442048.32549   5014195.71847  21960758.333    21960765.052
  20590614.027    -7518488.93249  -5842503.46847  20590613.285    20590619.509
  23865364.640    -5865538.30949  -4315862.40345  23865363.413    23865376.145
  24322577.640     8014157.51849   6231041.56545  24322576.760    24322587.741
  24479032.280    -2948359.27349  -2289698.66345  24479031.919    24479042.105
  22284372.952     6404227.94049   4984497.26247  22284372.600    22284380.114
 03  3 26 17 50  0.0000000  0  8G30G24G 4G 5G10G 7G 6G 9
  22515547.040   -11910446.01049  -9262627.98046  22515547.091    22515553.848
  20501502.778    -1986007.26349  -1542470.96848  20501502.405    20501509.271
  21976183.627     6523107.89449   5077358.96447  21976183.575    21976190.246
  20582849.601    -7559291.17349  -5874297.40747  20582848.860    20582855.093
  23846603.703    -5964127.06249  -4392684.62445  23846602.451    23846615.136
  24335760.516     8083433.21449   6285022.50045  24335759.624    24335770.638
  24465406.591    -3019962.80849  -2345493.53345  24465406.222    24465416.236
  22299662.107     6484572.67849   5047103.49747  22299661.765    22299669.279
 03  3 26 17 50 30.0000000  0  8G30G24G 4G 5G10G 7G 6G 9
  22498311.926   -12001016.92949  -9333202.67646  22498311.973    22498318.762
  20505144.877    -1966867.97149  -1527557.24148  20505144.514    20505151.365
  21991670.733     6604492.78749   5140775.71747  21991670.673    21991677.331
  20575160.421    -7599697.92249  -5905783.17347  20575159.673    20575165.899
  23827851.886    -6062668.01849  -4469469.57845  23827850.703    23827863.291
  24348947.235     8152729.83649   6339019.72745  24348946.355    24348957.413
  24451792.475    -3091505.70549  -2401241.16145  24451792.026    24451802.102
  22315011.357     6565233.31949   5109955.88547  22315010.979    22315018.533
 03  3 26 17 51  0.0000000  0  8G30G24G 4G 5G10G 7G 6G 9
  22481107.784   -12091424.86549  -9403650.37046  22481107.833    22481114.640
  20508884.290    -1947217.19949  -1512244.95848  20508883.915    20508890.797
  22007219.203     6686200.38949   5204443.92147  22007219.149    22007225.823
  20567546.852    -7639707.44549  -5936959.41247  20567546.124    20567552.319
  23809109.721    -6161158.05949  -4546214.86645  23809108.577    23809121.043
  24362137.937     8222047.31949   6393033.20545  24362136.944    24362148.164
  24438189.709    -3162988.26349  -2456941.77445  24438189.383    24438199.273
  22330420.181     6646207.03849   5173052.23247  22330419.822    22330427.338
 03  3 26 17 51 30.0000000  0  8G30G24G 4G 5G10G 7G 6G 9
  22463935.065   -12181667.80449  -9473969.49346  22463935.151    22463941.977
  20512720.756    -1927056.44649  -1496535.28748  20512720.379    20512727.261
  22022828.549     6768227.91049   5268361.42247  22022828.473    22022835.214
  20560009.291    -7679317.66449  -5967824.50447  20560008.572    20560014.718
  23790377.900    -6259593.83249  -4622917.83945  23790376.875    23790389.142
  24375332.606     8291385.80949   6447063.05345  24375331.779    24375342.983
  24424598.462    -3234410.41249  -2512595.31845  24424598.113    24424607.961
  22345888.010     6727490.71149   5236390.10347  22345887.664    22345895.169
 03  3 26 17 52  0.0000000  0  8G30G24G 4G 5G10G 7G 6G 9
  22446794.160   -12271743.43049  -9544158.25246  22446794.248    22446801.104
  20516653.994    -1906387.08249  -1480429.29448  20516653.616    20516660.517
  22038498.308     6850572.83949   5332526.24647  22038498.245    22038505.008
  20552548.052    -7718526.79449  -5998377.06448  20552547.318    20552553.486
  23771657.000    -6357972.03449  -4699575.96045  23771655.956    23771668.198
  24388531.330     8360745.44649   6501109.39745  24388530.482    24388541.962
  24411018.737    -3305772.33049  -2568201.94045  24411018.394    24411028.084
  22361414.261     6809081.35449   5299967.16647  22361413.895    22361421.461
 03  3 26 17 52 30.0000000  0  8G30G24G 4G 5G10G 7G 6G 9
  22429685.551   -12361649.63249  -9614214.97946  22429685.642    22429692.504
  20520683.727    -1885210.81649  -1463928.31348  20520683.366    20520690.248
  22054227.890     6933232.23449   5396936.10747  22054227.825    22054234.657
  20545163.435    -7757333.17649  -6028615.79448  20545162.720    20545168.886
  23752947.588    -6456289.72749  -4776186.92945  23752946.538    23752958.793
  24401734.166     8430126.31849   6555172.26945  24401733.341    24401744.846
  24397450.428    -3377074.15449  -2623761.72645  24397449.997    24397459.696
  22376998.365     6890976.07249   5363781.16847  22376998.016    22377005.612
 03  3 26 17 53  0.0000000  0  8G30G24G 4G 5G10G 7G 6G 9
  22412609.529   -12451384.58349  -9684138.26946  22412609.633    22412616.443
  20524809.588    -1863529.21349  -1447033.56348  20524809.210    20524816.090
  22070016.846     7016203.54649   5461589.02347  22070016.775    22070023.643
  20537855.747    -7795735.25149  -6058539.48648  20537855.029    20537861.226
  23734250.307    -6554543.76649  -4852748.29645  23734249.251    23734261.450
  24414940.969     8499528.00549   6609251.37645  24414940.188    24414951.736
  24383893.414    -3448316.51149  -2679275.17445  24383893.052    24383902.700
  22392639.706     6973171.67349   5427829.62047  22392639.358    22392646.992
 03  3 26 17 53 30.0000000  0  8G30G24G 4G 5G10G 7G 6G 9
  22395566.591   -12540945.80049  -9753926.16946  22395566.622    22395573.474
  20529031.365    -1841343.66149  -1429746.12248  20529030.997    20529037.870
  22085864.540     7099483.56749   5526482.48847  22085864.474    22085871.383
  20530625.349    -7833731.09049  -6088146.62648  20530624.645    20530630.893
  23715565.804    -6652730.70449  -4929257.38345  23715564.717    23715576.808
  24428151.818     8568950.94349   6663347.03145  24428150.954    24428162.533
  24370347.769    -3519499.13849  -2734742.08645  24370347.420    24370357.021
  22408337.801     7055665.47249   5492110.44547  22408337.451    22408345.152
 03  3 26 17 54  0.0000000  0  8G30G24G 4G 5G10G 7G 6G 9
  22378557.095   -12630331.16649  -9823577.04146  22378557.158    22378563.963
  20533348.826    -1818655.31049  -1412066.88748  20533348.459    20533355.335
  22101770.531     7183070.07649   5591614.77847  22101770.463    22101777.402
  20523472.640    -7871318.72149  -6117435.68548  20523471.906    20523478.196
  23696894.682    -6750847.46049  -5005711.77345  23696893.592    23696905.649
  24441366.690     8638395.17449   6717459.25545  24441365.825    24441377.436
  24356813.449    -3590622.09549  -2790162.49945  24356813.039    24356822.657
  22424092.063     7138454.37849   5556621.21347  22424091.714    22424099.446
 03  3 26 17 54 30.0000000  0  8G30G24G 4G 5G10G 7G 6G 9
  22361581.448   -12719538.35349  -9893089.07446  22361581.509    22361588.361
  20537761.697    -1795465.66149  -1393997.02848  20537761.314    20537768.198
  22117734.359     7266960.30649   5656983.73847  22117734.271    22117741.203
  20516397.954    -7908496.28749  -6146405.21348  20516397.214    20516403.522
  23678237.520    -6848890.61249  -5082108.80545  23678236.389    23678248.435
  24454585.670     8707860.77349   6771588.13945  24454584.773    24454596.324
  24343290.475    -3661685.58649  -2845536.59145  24343290.061    24343299.719
  22439901.923     7221535.44949   5621359.63647  22439901.589    22439909.299
 03  3 26 17 55  0.0000000  0  8G30G24G 4G 5G10G 7G 6G 9
  22344640.171   -12808565.04149  -9962460.46546  22344640.238    22344647.092
  20542269.619    -1771776.32849  -1375537.80648  20542269.253    20542276.148
  22133755.475     7351151.59949   5722587.29047  22133755.390    22133762.309
  20509401.689    -7945261.85049  -6175053.69948  20509400.947    20509407.281
  23659594.995    -6946857.02949  -5158446.04845  23659593.855    23659605.868
  24467808.749     8777348.06849   6825733.95145  24467807.999    24467819.332
  24329778.821    -3732689.60549  -2900864.31845  24329778.306    24329788.157
  22455766.884     7304905.95249   5686323.59347  22455766.546    22455774.225
 03  3 26 17 55 30.0000000  0  8G30G24G 4G 5G10G 7G 6G 9
  22327733.679   -12897409.02449 -10031689.48646  22327733.742    22327740.653
  20546872.371    -1747588.78849  -1356690.37148  20546872.006    20546878.908
  22149833.403     7435641.38349   5788423.42946  22149833.320    22149840.223
  20502484.140    -7981613.91249  -6203379.97848  20502483.406    20502489.724
  23640967.709    -7044743.31849  -5234720.85545  23640966.490    23640978.605
  24481036.007     8846857.15649   6879896.72445  24481035.122    24481046.548
  24316278.400    -3803634.37249  -2956145.89145  24316277.891    24316287.784
  22471686.349     7388563.00749   5751510.82947  22471685.996    22471693.690
 03  3 26 17 56  0.0000000  0  8G30G24G 4G 5G10G 7G 6G 9
  22310862.369   -12986068.18049 -10100774.48346  22310862.441    22310869.348
  20551569.589    -1722904.79049  -1337456.08748  20551569.215    20551576.107
  22165967.598     7520426.82949   5854489.94946  22165967.520    22165974.384
  20495645.567    -8017550.81349  -6231382.75448  20495644.810    20495651.154
  23622356.227    -7142546.27849  -5310930.75345  23622355.084    23622367.102
  24494267.386     8916388.05149   6934076.48445  24494266.581    24494278.053
  24302789.232    -3874519.93649  -3011381.32845  24302788.720    24302798.654
  22487659.695     7472503.52249   5816918.95246  22487659.337    22487667.077
 03  3 26 17 56 30.0000000  0  8G30G24G 4G 5G10G 7G 6G 9
  22294026.689   -13074540.20849 -10169713.67246  22294026.747    22294033.633
  20556361.003    -1697725.86049  -1317836.14648  20556360.618    20556367.503
  22182157.560     7605505.32949   5920784.82746  22182157.522    22182164.336
  20488886.355    -8053070.65349  -6259060.54948  20488885.600    20488891.963
  23603761.232    -7240262.60449  -5387073.13145  23603760.117    23603772.035
  24507503.033     8985940.79249   6988273.27445  24507502.219    24507513.724
  24289311.279    -3945346.31449  -3066570.63745  24289310.820    24289320.827
  22503686.415     7556724.39549   5882545.53746  22503686.053    22503693.794
 03  3 26 17 57  0.0000000  0  8G30G24G 4G 5G10G 7G 6G 9
  22277226.983   -13162823.31549 -10238505.65146  22277227.036    22277233.872
  20561246.249    -1672053.73049  -1297831.89348  20561245.866    20561252.743
  22198402.731     7690873.70949   5987305.58546  22198402.685    22198409.464
  20482206.719    -8088172.19349  -6286412.39648  20482205.984    20482212.370
  23585183.340    -7337889.28749  -5463145.68545  23585182.279    23585194.156
  24520742.778     9055515.23649   7042486.95745  24520741.903    24520753.504
  24275844.563    -4016114.03149  -3121714.23545  24275844.172    24275853.966
  22519765.835     7641222.24849   5948387.94846  22519765.471    22519773.251
 03  3 26 17 57 30.0000000  0  8G30G24G 4G 5G10G 7G 6G 9
  22260463.702   -13250915.00449 -10307148.47546  22260463.762    22260470.592
  20566225.041    -1645889.93549  -1277444.52948  20566224.659    20566231.569
  22214702.573     7776529.58149   6054050.36546  22214702.531    22214709.300
  20475607.030    -8122853.41449  -6313436.72448  20475606.303    20475612.742
  23566623.040    -7435423.19749  -5539145.97845  23566622.077    23566633.917
  24533986.741     9125111.66349   7096717.76245  24533985.895    24533997.413
  24262389.029    -4086823.19049  -3176812.21945  24262388.588    24262398.337
  22535897.439     7725994.39849   6014444.09746  22535897.123    22535904.965
 03  3 26 17 58  0.0000000  0  8G30G24G 4G 5G10G 7G 6G 9
  22243737.320   -13338812.77249 -10375640.18746  22243737.401    22243744.193
  20571297.120    -1619235.83649  -1256675.10548  20571296.758    20571303.699
  22231056.606     7862470.19649   6121017.02746  22231056.560    22231063.314
  20469087.745    -8157112.34949  -6340131.99848  20469087.026    20469093.475
  23548081.120    -7532860.84749  -5615071.25645  23548080.134    23548091.954
  24547234.893     9194730.37849   7150965.95845  24547233.933    24547245.579
  24248944.660    -4157473.70049  -3231864.50145  24248944.206    24248953.851
  22552080.726     7811037.94449   6080711.72446  22552080.409    22552088.264
 03  3 26 17 58 30.0000000  0  8G30G24G 4G 5G10G 7G 6G 9
  22227048.191   -13426514.62149 -10443979.22346  22227048.275    22227055.061
  20576462.111    -1592093.48349  -1235525.22448  20576461.752    20576468.733
  22247464.265     7948692.86649   6188203.46046  22247464.231    22247471.018
  20462649.119    -8190947.43549  -6366497.00348  20462648.423    20462654.854
  23529558.234    -7630198.90349  -5690918.94745  23529557.197    23529568.923
  24560487.228     9264371.30649   7205231.45345  24560486.199    24560497.989
  24235511.431    -4228065.84249  -3286871.30345  24235510.955    24235520.605
  22568315.113     7896349.94149   6147188.53346  22568314.790    22568322.639
 03  3 26 17 59  0.0000000  0  8G30G24G 4G 5G10G 7G 6G 9
  22210396.811   -13514018.12949 -10512163.72246  22210396.873    22210403.662
  20581719.834    -1564464.04449  -1213995.79648  20581719.472    20581726.460
  22263925.131     8035195.16249   6255607.78546  22263925.076    22263931.947
  20456291.564    -8224356.74449  -6392530.23348  20456290.854    20456297.261
  23511054.929    -7727433.92749  -5766686.37445  23511053.866    23511065.556
  24573743.780     9334034.56549   7259514.33145  24573742.692    24573754.433
  24222089.257    -4298599.39049  -3341832.43445  24222088.827    24222098.379
  22584600.049     7981927.42749   6213872.21346  22584599.737    22584607.603
 03  3 26 17 59 30.0000000  0  8G30G24G 4G 5G10G 7G 6G 9
  22193783.618   -13601320.76049 -10580191.68446  22193783.683    22193790.496
  20587069.979    -1536349.01149  -1192087.98348  20587069.628    20587076.581
  22280438.692     8121974.54349   6323228.01846  22280438.643    22280445.632
  20450015.394    -8257338.46549  -6418230.27248  20450014.699    20450021.073
  23492571.858    -7824562.51849  -5842370.87745  23492570.752    23492582.398
  24587004.724     9403720.71449   7313815.05245  24587003.742    24587015.416
  24208678.211    -4369074.12849  -3396747.72845  24208677.821    24208687.367
  22600934.944     8067767.66249   6280760.63246  22600934.638    22600942.529
 03  3 26 18  0  0.0000000  0  8G30G24G 4G 5G10G 7G 6G 9
  22177209.050   -13688420.37649 -10648061.46246  22177209.108    22177215.944
  20592512.142    -1507750.26349  -1169803.25548  20592511.791    20592518.714
  22297004.433     8209028.18249   6391061.96146  22297004.345    22297011.466
  20443820.910    -8289891.01549  -6443595.89248  20443820.208    20443826.558
  23474109.619    -7921581.70349  -5917970.13345  23474108.523    23474120.076
  24600270.020     9473429.68049   7368133.53645  24600269.107    24600280.758
  24195278.339    -4439490.42449  -3451617.48945  24195278.038    24195287.537
  22617319.225     8153867.47449   6347851.31746  22617318.936    22617326.867
 03  3 26 18  0 30.0000000  0  8G30G24G 4G 5G10G 7G 6G 9
  22160673.521   -13775314.81649 -10715771.35846  22160673.575    22160680.482
  20598045.991    -1478669.79649  -1147143.16348  20598045.640    20598052.536
  22313621.783     8296353.22049   6459107.38946  22313621.761    22313628.930
  20437708.367    -8322012.85349  -6468625.90148  20437707.659    20437714.014
  23455668.861    -8018488.05249  -5993481.49445  23455667.779    23455679.293
  24613539.702     9543161.54949   7422469.85445  24613538.901    24613550.730
  24181889.617    -4509848.65549  -3506442.00245  24181889.197    24181898.840
  22633752.327     8240223.70549   6415141.81246  22633752.039    22633760.033
 03  3 26 18  1  0.0000000  0  8G30G24G 4G 5G10G 7G 6G 9
  22144177.354   -13862002.28649 -10783319.98646  22144177.415    22144184.387
  20603671.175    -1449109.40449  -1124109.10448  20603670.815    20603677.724
  22330290.298     8383946.66049   6527361.94846  22330290.252    22330297.473
  20431677.967    -8353702.75749  -6493319.33548  20431677.254    20431683.615
  23437250.154    -8115278.59449  -6068902.61945  23437249.070    23437260.462
  24626813.718     9612916.07449   7476823.81445  24626812.872    24626824.788
  24168511.847    -4580149.39649  -3561221.73645  24168511.328    24168520.884
  22650233.608     8326833.08149   6482629.55946  22650233.340    22650241.376
 03  3 26 18  1 30.0000000  0  7G30G24G 4G 5G10G 6G 9
  22127721.377   -13948478.60549 -10850704.08446  22127721.457    22127728.461
  20609387.628    -1419069.18249  -1100701.14848  20609387.278    20609394.188
  22347009.673     8471807.53149   6595824.90546  22347009.667    22347016.887
  20425730.377    -8384957.46049  -6517673.65448  20425729.682    20425736.032
  23418854.408    -8211948.41049  -6144229.69045  23418853.384    23418864.682
  24155145.288    -4650390.98749  -3615955.35645  24155144.911    24155154.320
  22666762.770     8413694.12549   6550313.40746  22666762.476    22666770.550
 03  3 26 18  2  0.0000000  0  7G30G24G 4G 5G10G 6G 9
  22111305.954   -14034741.88249 -10917922.17446  22111306.032    22111313.035
  20615194.989    -1388551.30549  -1076920.98948  20615194.638    20615201.556
  22363779.352     8559932.77149   6664493.86846  22363779.358    22363786.593
  20419865.928    -8415775.41449  -6541687.64648  20419865.231    20419871.546
  23400482.182    -8308494.69849  -6219460.50645  23400481.165    23400492.486
  24141789.941    -4720573.73649  -3670643.14445  24141789.537    24141798.934
  22683339.243     8500803.57349   6618190.81846  22683338.951    22683347.019
 03  3 26 18  2 30.0000000  0  7G30G24G 4G 5G10G 6G 9
  22094931.130   -14120791.72449 -10984973.95546  22094931.217    22094938.205
  20621092.643    -1357559.05949  -1052771.19548  20621092.295    20621099.214
  22380598.499     8648317.84049   6733365.28646  22380598.534    22380605.788
  20414084.533    -8446156.77049  -6565361.43248  20414083.834    20414090.153
  23382133.852    -8404915.66249  -6294593.65745  23382132.816    23382144.144
  24128445.381    -4790699.67649  -3725286.64845  24128444.965    24128454.408
  22699962.023     8588156.58749   6686258.01646  22699961.713    22699969.791
 03  3 26 18  3  0.0000000  0  7G30G24G 4G 5G10G 6G 9
  22078597.454   -14206625.40749 -11051857.30746  22078597.565    22078604.478
  20627080.272    -1326093.89249  -1028252.89448  20627079.930    20627086.845
  22397466.736     8736960.65449   6802437.54246  22397466.746    22397474.077
  20408386.597    -8476099.49849  -6588693.43248  20408385.888    20408392.219
  23363809.995    -8501207.79749  -6369626.42845  23363809.012    23363820.236
  24115111.586    -4860768.44449  -3779885.61645  24115111.236    24115120.686
  22716630.642     8675750.62849   6754513.02146  22716630.314    22716638.448
 03  3 26 18  3 30.0000000  0  7G30G24G 4G 5G10G 6G 9
  22062305.452   -14292240.34249 -11118570.19546  22062305.564    22062312.447
  20633157.549    -1294157.57349  -1003367.46148  20633157.193    20633164.134
  22414383.515     8825858.74649   6871708.72246  22414383.535    22414390.891
  20402772.481    -8505601.83249  -6611682.26448  20402771.785    20402778.123
  23345511.371    -8597367.54049  -6444556.02545  23345510.330    23345521.539
  24101788.695    -4930780.01149  -3834440.01145  24101788.299    24101797.887
  22733344.566     8763582.78249   6822953.57546  22733344.253    22733352.452
 03  3 26 18  4  0.0000000  0  7G30G24G 4G 5G10G 6G 9
  22046055.469   -14377634.20849 -11185110.83246  22046055.583    22046062.426
  20639324.144    -1261751.82549   -978116.23948  20639323.803    20639330.765
  22431348.398     8915009.41749   6941176.71846  22431348.401    22431355.785
  20397242.507    -8534662.19549  -6634326.70448  20397241.813    20397248.108
  23327238.604    -8693391.31549  -6519379.64445  23327237.599    23327248.745
  24088476.718    -5000734.37449  -3888949.83545  24088476.325    24088485.905
  22750103.264     8851650.18649   6891577.43546  22750102.952    22750111.144
 03  3 26 18  4 30.0000000  0  7G30G24G 4G 5G10G 6G 9
  22029848.065   -14462804.53649 -11251477.28546  22029848.184    22029855.013
  20645579.740    -1228878.29949   -952500.51548  20645579.403    20645586.402
  22448360.797     9004409.93249   7010839.40146  22448360.783    22448368.215
  20391796.958    -8563278.93449  -6656625.45948  20391796.253    20391802.536
  23308992.323    -8789275.97649  -6594094.85245  23308991.311    23309002.340
  24075175.602    -5070631.72349  -3943415.24945  24075175.273    24075184.848
  22766906.146     8939949.67549   6960382.13646  22766905.859    22766914.050
 03  3 26 18  5  0.0000000  0  7G30G24G 4G 5G10G 6G 9
  22013683.596   -14547749.04849 -11317667.78246  22013683.724    22013690.550
  20651924.125    -1195538.57949   -926521.52848  20651923.781    20651930.786
  22465420.286     9094057.93049   7080694.92846  22465420.273    22465427.729
  20386436.166    -8591450.16549  -6678577.06648  20386435.454    20386441.715
  23290773.120    -8885018.10349  -6668698.96745  23290772.084    23290783.122
  24061885.416    -5140471.99449  -3997836.19045  24061885.074    24061894.760
  22783752.692     9028478.51649   7029365.54746  22783752.396    22783760.602
 03  3 26 18  5 30.0000000  0  7G30G24G 4G 5G10G 6G 9
  21997562.629   -14632465.11449 -11383680.26446  21997562.724    21997569.546
  20658356.900    -1161734.24549   -900180.50148  20658356.557    20658363.515
  22482526.349     9183950.75549   7150741.22146  22482526.341    22482533.823
  20381160.472    -8619174.18949  -6700180.19648  20381159.747    20381166.017
  23272581.679    -8980614.11249  -6743189.19445  23272580.618    23272591.707
  24048606.102    -5210255.06349  -4052212.56345  24048605.757    24048615.354
  22800642.346     9117233.80049   7098525.41646  22800642.043    22800650.251
 03  3 26 18  6  0.0000000  0  7G30G24G 4G 5G10G 6G 9
  21981485.578   -14716950.48749 -11449512.98846  21981485.714    21981492.491
  20664877.659    -1127467.54849   -873479.18548  20664877.313    20664884.257
  22499678.534     9274085.84649   7220976.29146  22499678.527    22499686.079
  20375970.112    -8646449.55949  -6721433.72748  20375969.400    20375975.649
  23254418.677    -9076060.52149  -6817562.83045  23254417.632    23254428.757
  24035337.643    -5279981.05349  -4106544.45945  24035337.322    24035346.791
  22817574.441     9206212.15649   7167859.10146  22817574.112    22817582.320
 03  3 26 18  6 30.0000000  0  7G30G24G 4G 5G10G 6G 9
  21965452.851   -14801203.16249 -11515164.38846  21965452.993    21965459.705
  20671485.961    -1092740.70949   -846419.31948  20671485.598    20671492.543
  22516876.257     9364460.27849   7291397.85246  22516876.231    22516883.772
  20370865.384    -8673275.18049  -6742336.80548  20370864.674    20370870.922
  23236284.710    -9171354.44649  -6891817.63345  23236283.696    23236294.837
  24022080.017    -5349650.35549  -4160832.18245  24022079.660    24022089.218
  22834548.443     9295410.46849   7237364.17146  22834548.101    22834556.337
 03  3 26 18  7  0.0000000  0  7G30G24G 4G 5G10G 6G 9
  21949464.897   -14885220.64249 -11580632.52147  21949465.022    21949471.661
  20678181.588    -1057555.12649   -819001.99448  20678181.223    20678188.158
  22534119.041     9455071.34049   7362003.81246  22534118.994    22534126.543
  20365846.537    -8699649.22749  -6762888.00748  20365845.818    20365852.084
  23218180.434    -9266492.49049  -6965950.95345  23218179.429    23218190.527
  24008833.156    -5419263.04949  -4215075.80245  24008832.820    24008842.264
  22851563.739     9384825.85649   7307038.39246  22851563.372    22851571.651
 03  3 26 18  7 30.0000000  0  7G30G24G 4G 5G10G 6G 9
  21933522.121   -14969000.73949 -11645915.67547  21933522.218    21933528.784
  20684964.151    -1021912.58049   -791228.59648  20684963.788    20684970.735
  22551406.376     9545916.63449   7432792.28346  22551406.306    22551413.814
  20360913.937    -8725570.22449  -6783086.18248  20360913.223    20360919.511
  23200106.429    -9361471.33249  -7039960.21345  23200105.451    23200116.471
  23995597.068    -5488819.24149  -4269275.39445  23995596.754    23995606.121
  22868619.724     9474455.32549   7376879.42846  22868619.344    22868627.696
 03  3 26 18  8  0.0000000  0  7G30G24G 4G 5G10G 6G 9
  21917625.044   -15052540.49249 -11711011.55347  21917625.144    21917631.673
  20691833.280     -985814.97349   -763100.60248  20691832.912    20691839.913
  22568737.876     9636993.87149   7503761.49046  22568737.818    22568745.265
  20356067.864    -8751036.35949  -6802929.91948  20356067.158    20356073.471
  23182063.361    -9456287.37149  -7113842.59945  23182062.433    23182073.388
  23982371.726    -5558318.55849  -4323430.66345  23982371.430    23982380.721
  22885715.829     9564296.05349   7446885.08746  22885715.488    22885723.908
 03  3 26 18  8 30.0000000  0  7G30G24G 4G 5G10G 6G 9
  21901773.994   -15135838.13049 -11775918.76647  21901774.098    21901780.618
  20698788.609     -949264.17149   -734619.46748  20698788.247    20698795.280
  22586112.873     9728299.91849   7574908.98846  22586112.810    22586120.258
  20351308.595    -8776046.55349  -6822418.37748  20351307.883    20351314.216
  23164051.877    -9550937.51249  -7187595.70745  23164050.862    23164061.908
  23969157.058    -5627761.53849  -4377542.01745  23969156.708    23969166.105
  22902851.550     9654344.63649   7517052.69746  22902851.206    22902859.699
 03  3 26 18  9  0.0000000  0  7G30G24G 4G 5G10G 6G 9
  21885969.536   -15218890.92949 -11840635.19147  21885969.638    21885976.171
  20705829.934     -912261.82349   -705786.47948  20705829.572    20705836.609
  22603530.945     9819832.45549   7646232.97446  22603530.882    22603538.367
  20346636.443    -8800598.94449  -6841550.10848  20346635.727    20346642.084
  23146072.642    -9645418.21949  -7261216.78945  23146071.638    23146082.646
  23955953.068    -5697147.90049  -4431609.25145  23955952.799    23955962.279
  22920026.418     9744598.55549   7587380.31046  22920026.076    22920034.565
 03  3 26 18  9 30.0000000  0  7G30G24G 4G 5G10G 6G 9
  21870212.129   -15301696.39849 -11905158.89847  21870212.187    21870218.747
  20712956.702     -874810.32349   -676603.50848  20712956.369    20712963.370
  22620991.673     9911589.00449   7717731.51846  22620991.623    22620999.084
  20342051.681    -8824691.93849  -6860323.86548  20342050.981    20342057.344
  23128126.289    -9739726.04149  -7334703.15346  23128125.242    23128136.285
  23942759.899    -5766477.84849  -4485632.51545  23942759.662    23942769.157
  22937239.761     9835054.72049   7657865.50946  22937239.419    22937247.908
 03  3 26 18 10  0.0000000  0  7G30G24G 4G 5G10G 6G 9
  21854502.175   -15384252.63149 -11969488.38947  21854502.233    21854508.825
  20720168.629     -836911.78349   -647072.19048  20720168.276    20720175.236
  22638494.557    10003566.55249   7789402.27246  22638494.466    22638501.937
  20337554.593    -8848324.42849  -6878738.78648  20337553.884    20337560.276
  23110213.436    -9833857.98449  -7408052.48746  23110212.373    23110223.385
  23929577.447    -5835751.77149  -4539612.12545  23929577.209    23929586.752
  22954490.973     9925709.89849   7728505.78946  22954490.636    22954499.159
 03  3 26 18 10 30.0000000  0  7G30G24G 4G 5G10G 6G 9
  21838840.109   -15466557.12549 -12033621.72847  21838840.166    21838846.749
  20727465.265     -798567.85349   -617193.81648  20727464.915    20727471.849
  22656038.956    10095762.58649   7861243.26046  22656038.861    22656046.341
  20333145.375    -8871495.07949  -6896793.83248  20333144.657    20333151.057
  23092334.654    -9927810.66649  -7481262.15846  23092333.560    23092344.618
  23916405.725    -5904969.57149  -4593547.99945  23916405.487    23916415.049
  22971779.454    10016560.85049   7799298.61146  22971779.108    22971787.612
 03  3 26 18 11  0.0000000  0  7G30G24G 4G 5G10G 6G 9
  21823226.354   -15548607.54949 -12097557.08247  21823226.425    21823233.002
  20734846.285     -759780.49449   -586969.91848  20734845.925    20734852.861
  22673624.391    10188174.42349   7933252.41246  22673624.317    22673631.854
  20328824.364    -8894202.14649  -6914487.64348  20328823.638    20328830.041
  23074490.627   -10021580.80749  -7554329.60146  23074489.573    23074500.520
  23903244.643    -5974131.40549  -4647440.26045  23903244.328    23903254.002
  22989104.560    10107604.63249   7870241.70046  22989104.244    22989112.788
 03  3 26 18 11 30.0000000  0  7G30G24G 4G 5G10G 6G 9
  21807661.435   -15630401.57049 -12161292.65147  21807661.530    21807668.046
  20742311.359     -720551.32149   -556401.74848  20742310.987    20742317.942
  22691250.407    10280799.38249   8005427.63446  22691250.344    22691257.914
  20324591.809    -8916444.32349  -6931819.20748  20324591.088    20324597.470
  23056681.976   -10115164.99049  -7627252.14446  23056680.933    23056691.801
  23890094.183    -6043237.37649  -4701289.00345  23890093.892    23890103.432
  23006465.811    10198838.24049   7941332.70246  23006465.495    23006474.083
 03  3 26 18 12  0.0000000  0  7G30G24G 4G 5G10G 6G 9
  21792145.862   -15711936.47049 -12224826.30747  21792145.941    21792152.441
  20749860.107     -680882.38149   -525490.90548  20749859.741    20749866.732
  22708916.557    10373635.41149   8077767.32546  22708916.494    22708924.109
  20320448.071    -8938219.85349  -6948787.15348  20320447.357    20320453.689
  23038909.398   -10208559.56549  -7700026.96046  23038908.366    23038919.134
  23876954.426    -6112287.24449  -4755094.01445  23876954.118    23876963.591
  23023862.745    10290259.09649   8012569.61346  23023862.431    23023870.985
 03  3 26 18 12 30.0000000  0  7G30G24G 4G 5G10G 6G 9
  21776680.014   -15793210.06149 -12288156.34647  21776680.088    21776686.585
  20757492.030     -640776.25549   -494239.39447  20757491.678    20757498.691
  22726622.373    10466679.74649   8150269.32646  22726622.316    22726629.989
  20316393.347    -8959527.56249  -6965390.56448  20316392.624    20316398.928
  23021173.464   -10301761.61349  -7772651.77346  23021172.474    23021183.115
  23863825.261    -6181281.39149  -4808855.60045  23863824.968    23863834.404
  23041294.660    10381863.69649   8083949.70746  23041294.363    23041302.892
 03  3 26 18 13  0.0000000  0  7G30G24G 4G 5G10G 6G 9
  21761264.302   -15874220.17649 -12351281.07347  21761264.370    21761270.814
  20765206.884     -600234.54349   -462648.46447  20765206.537    20765213.555
  22744367.234    10559929.28049   8222931.22746  22744367.162    22744374.865
  20312427.878    -8980366.21649  -6981628.47848  20312427.169    20312433.445
  23003474.868   -10394767.58749  -7845123.81946  23003473.887    23003484.366
  23850706.607    -6250219.94049  -4862573.87045  23850706.319    23850715.802
  23058760.922    10473648.91749   8155470.53646  23058760.602    23058769.146
 03  3 26 18 13 30.0000000  0  7G30G24G 4G 5G10G 6G 9
  21745899.065   -15954965.18149 -12414199.23447  21745899.157    21745905.544
  20773004.052     -559260.24349   -430720.45347  20773003.699    20773010.721
  22762150.527    10653380.77849   8295750.50546  22762150.461    22762158.172
  20308551.761    -9000735.25349  -6997500.46548  20308551.043    20308557.361
  22985814.107   -10487574.97549  -7917441.12846  22985813.123    22985823.584
  23837598.389    -6319103.75849  -4916249.48745  23837598.115    23837607.642
  23076260.753    10565610.76349   8227129.00246  23076260.407    23076268.982
 03  3 26 18 14  0.0000000  0  7G30G24G 4G 5G10G 6G 9
  21730585.231   -16035439.82949 -12476906.71847  21730585.319    21730591.704
  20780883.719     -517852.51849   -398454.70347  20780883.344    20780890.361
  22779972.273    10747034.50649   8368727.35746  22779972.223    22779979.951
  20304765.831    -9020630.47049  -7013003.23848  20304765.104    20304771.453
  22968192.235   -10580177.74649  -7989599.00246  22968191.262    22968201.683
  23824501.140    -6387930.07849  -4969880.28945  23824500.822    23824510.423
  23093794.165    10657749.15849   8298925.03446  23093793.829    23093802.481
 03  3 26 18 14 30.0000000  0  7G30G24G 4G 5G10G 6G 9
  21715322.859   -16115643.87349 -12539403.34947  21715322.975    21715329.325
  20788845.046     -476015.64949   -365854.56247  20788844.672    20788851.654
  22797831.717    10840886.09549   8441858.38746  22797831.680    22797839.382
  20301069.980    -9040052.33249  -7028137.16748  20301069.262    20301075.626
  22950609.625   -10672574.62249  -8061596.46446  22950608.634    22950619.028
  23811414.418    -6456701.22349  -5023468.10945  23811414.051    23811423.655
  23111360.253    10750059.08549   8370854.72246  23111359.909    23111368.619
 03  3 26 18 15  0.0000000  0  7G30G24G 4G 5G10G 6G 9
  21700112.516   -16195574.67749 -12601687.06647  21700112.625    21700118.960
  20796887.712     -433751.12249   -332921.17547  20796887.344    20796894.289
  22815728.265    10934932.86249   8515141.50246  22815728.229    22815735.848
  20297464.437    -9058999.55149  -7042901.23948  20297463.718    20297470.095
  22933066.826   -10764762.14149  -8133430.78246  22933065.889    22933076.181
  23798338.181    -6525417.15349  -5077012.90645  23798337.854    23798347.391
  23128958.373    10842537.60949   8442915.78446  23128958.065    23128966.840
 03  3 26 18 15 30.0000000  0  7G30G24G 4G 5G10G 6G 9
  21684954.624   -16275229.79049 -12663755.95247  21684954.738    21684961.042
  20805011.343     -391061.22149   -299656.33247  20805010.961    20805017.931
  22833661.559    11029172.35849   8588574.79846  22833661.515    22833669.116
  20293949.509    -9077470.68249  -7057294.33948  20293948.791    20293955.163
  22915564.632   -10856736.45449  -8205098.97346  22915563.676    22915573.925
  23785272.518    -6594077.59249  -5130514.46145  23785272.169    23785281.645
  23146588.060    10935181.90449   8515106.02446  23146587.760    23146596.567
 03  3 26 18 16  0.0000000  0  7G30G24G 4G 5G10G 6G 9
  21669849.607   -16354607.10649 -12725608.37547  21669849.735    21669856.008
  20813215.486     -347948.20149   -266061.78647  20813215.121    20813222.071
  22851631.032    11123601.90249   8662156.17246  22851630.985    22851638.494
  20290525.388    -9095464.77949  -7071315.72448  20290524.672    20290531.021
  22898103.540   -10948494.81449  -8276598.90646  22898102.614    22898112.766
  23772217.365    -6662683.01549  -5183973.14945  23772216.927    23772226.346
  23164248.695    11027988.44949   8587422.68746  23164248.394    23164257.209
 03  3 26 18 16 30.0000000  0  7G30G24G 4G 5G10G 6G 9
  21654798.017   -16433703.72249 -12787242.06747  21654798.135    21654804.372
  20821499.914     -304413.33249   -232138.52947  20821499.546    20821506.471
  22869636.247    11218219.38749   8735884.00246  22869636.210    22869643.682
  20287192.353    -9112980.00849  -7084963.96748  20287191.629    20287198.009
  22880684.239   -11040033.39549  -8347927.56546  22880683.313    22880693.447
  23759172.703    -6731233.02549  -5237388.66445  23759172.257    23759181.583
  23181939.714    11120954.67949   8659863.77746  23181939.367    23181948.245
 03  3 26 18 17  0.0000000  0  7G30G24G 4G 5G10G 6G 9
  21639800.265   -16512517.48749 -12848655.35947  21639800.368    21639806.571
  20829864.103     -260459.30049   -197888.64747  20829863.725    20829870.651
  22887676.683    11313021.97149   8809756.05746  22887676.621    22887684.096
  20283950.633    -9130015.30749  -7098238.23948  20283949.904    20283956.316
  22863307.370   -11131348.96549  -8419082.46346  22863306.442    22863316.576
  23746138.513    -6799727.94749  -5290761.24445  23746138.091    23746147.337
  23199660.478    11214077.50049   8732426.88646  23199660.179    23199669.066
 03  3 26 18 17 30.0000000  0  7G30G24G 4G 5G10G 6G 9
  21624856.843   -16591045.66949 -12909846.12047  21624856.923    21624863.119
  20838307.720     -216087.83849   -163313.49847  20838307.350    20838314.270
  22905751.883    11408007.33349   8883770.53946  22905751.848    22905759.326
  20280800.577    -9146569.07449  -7111137.29148  20280799.864    20280806.263
  22845973.634   -11222438.05749  -8490060.87346  22845972.672    22845982.788
  23733114.777    -6868167.36149  -5344090.58545  23733114.397    23733123.607
  23217410.547    11307354.19449   8805109.89846  23217410.271    23217419.087
 03  3 26 18 18  0.0000000  0  7G30G24G 4G 5G10G 6G 9
  21609968.157   -16669286.05549 -12970812.62647  21609968.240    21609974.419
  20846830.406     -171300.98049   -128414.66647  20846830.030    20846836.955
  22923861.420    11503173.18549   8957925.65146  22923861.391    22923868.881
  20277742.353    -9162640.23249  -7123660.28448  20277741.632    20277747.994
  22828683.598   -11313297.40549  -8560860.25746  22828682.632    22828692.749
  23720101.628    -6936551.49249  -5397376.83745  23720101.276    23720110.451
  23235189.346    11400781.76949   8877910.47746  23235189.034    23235197.856
 03  3 26 18 18 30.0000000  0  7G30G24G 4G 5G10G 6G 9
  21595134.663   -16747236.28849 -13031553.04247  21595134.739    21595140.935
  20855431.702     -126100.98649    -93193.91147  20855431.325    20855438.242
  22942004.747    11598516.52249   9032219.07146  22942004.710    22942012.174
  20274776.195    -9178227.61549  -7135806.30948  20274775.465    20274781.828
  22811437.902   -11403923.67549  -8631478.02746  22811436.891    22811447.000
  23707098.994    -7004880.55649  -5450620.20245  23707098.607    23707107.680
  23252996.246    11494356.96549   8950826.08546  23252995.926    23253004.766
 03  3 26 18 19  0.0000000  0  7G30G24G 4G 5G10G 6G 9
  21580356.835   -16824893.89549 -13092065.43947  21580356.910    21580363.127
  20864111.122      -80490.38449    -57653.20647  20864110.757    20864117.673
  22960181.392    11694035.02549   9106648.96946  22960181.357    22960188.823
  20271902.332    -9193330.00949  -7147574.42148  20271901.604    20271907.968
  22794237.241   -11494313.35449  -8701911.43646  22794236.259    22794246.365
  23694106.895    -7073154.48249  -5503820.59545  23694106.521    23694115.547
  23270830.688    11588076.96049   9023854.51946  23270830.349    23270839.153
 03  3 26 18 19 30.0000000  0  7G30G24G 4G 5G10G 6G 9
  21565635.143   -16902256.61949 -13152348.05547  21565635.231    21565641.483
  20872868.364      -34470.96649    -21793.94347  20872868.004    20872874.878
  22978390.861    11789726.02849   9181213.28146  22978390.841    22978398.320
  20269120.955    -9207946.24249  -7158963.70748  20269120.230    20269126.603
  22777082.191   -11584463.24149  -8772157.99346  22777081.195    22777091.281
  23681125.254    -7141373.51949  -5556978.22545  23681124.949    23681133.751
  23288692.063    11681938.37549   9096993.15446  23288691.754    23288700.525
 03  3 26 18 20  0.0000000  0  7G30G24G 4G 5G10G 6G 9
  21550970.049   -16979322.00849 -13212398.98347  21550970.134    21550976.399
  20881703.060       11955.57549     14382.55747  20881702.678    20881709.530
  22996632.692    11885587.30249   9255910.28846  22996632.683    22996640.240
  20266432.358    -9222075.03249  -7169973.16648  20266431.621    20266437.997
  22759973.443   -11674370.08149  -8842215.16546  22759972.459    22759982.494
  23668154.087    -7209537.49249  -5610092.96045  23668153.778    23668162.437
  23306579.738    11775938.19349   9170239.62446  23306579.401    23306588.185
 03  3 26 18 20 30.0000000  0  7G30G24G 4G 5G10G 6G 9
  21536362.100   -17056087.40849 -13272216.15347  21536362.167    21536368.452
  20890614.775       58786.90949     50874.47847  20890614.398    20890621.248
  23014906.472    11981616.30249   9330737.99146  23014906.462    23014914.039
  20263836.717    -9235715.27549  -7180601.94148  20263835.998    20263842.345
  22742911.554   -11764030.39249  -8912080.23246  22742910.531    22742920.525
  23655193.381    -7277646.53849  -5663164.90445  23655193.071    23655201.684
  23324493.261    11870073.72749   9243591.84246  23324492.909    23324501.683
 03  3 26 18 21  0.0000000  0  7G30G24G 4G 5G10G 6G 9
  21521811.629   -17132550.67749 -13331797.89647  21521811.690    21521817.978
  20899603.036      106020.55949     87679.88447  20899602.676    20899609.545
  23033211.659    12077810.46049   9405694.37446  23033211.669    23033219.239
  20261334.242    -9248865.79449  -7190849.10848  20261333.511    20261339.889
  22725897.259   -11853440.95049  -8981750.67746  22725896.240    22725906.152
  23642243.017    -7345700.81649  -5716194.16045  23642242.646    23642251.288
  23342431.997    11964341.89049   9317047.40746  23342431.621    23342440.489
 03  3 26 18 21 30.0000000  0  7G30G24G 4G 5G10G 6G 9
  21507319.145   -17208709.05949 -13391142.06547  21507319.193    21507325.516
  20908667.487      153654.36349    124797.09847  20908667.131    20908674.005
  23051547.785    12174167.26949   9480777.48846  23051547.775    23051555.433
  20258925.243    -9261525.31549  -7200713.68048  20258924.518    20258930.891
  22708931.132   -11942598.11349  -9051223.68346  22708930.105    22708939.984
  23629303.118    -7413700.21749  -5769180.65745  23629302.724    23629311.360
  23360395.402    12058739.65049   9390603.96446  23360395.075    23360403.920
 03  3 26 18 22  0.0000000  0  7G30G24G 4G 5G10G 6G 9
  21492885.060   -17284560.50649 -13450247.06247  21492885.135    21492891.484
  20917807.764      201686.74849    162224.89447  20917807.413    20917814.318
  23069914.445    12270684.50349   9555985.61046  23069914.440    23069922.174
  20256609.845    -9273692.69649  -7210194.77348  20256609.121    20256615.484
  22692013.857   -12031498.49549  -9120496.58346  22692012.837    22692022.696
  23616373.674    -7481644.77649  -5822124.40946  23616373.285    23616381.919
  23378382.867    12153263.75549   9464258.96246  23378382.502    23378391.427
 03  3 26 18 22 30.0000000  0  7G30G24G 4G 5G10G 6G 9
  21478509.861   -17360102.53549 -13509110.95947  21478509.957    21478516.314
  20927023.381      250115.29349    199961.38547  20927023.013    20927029.996
  23088311.106    12367359.59749   9631316.75846  23088311.085    23088318.888
  20254388.363    -9285366.75949  -7219291.46148  20254387.649    20254394.020
  22675146.038   -12120139.08349  -9189567.04646  22675145.044    22675154.835
  23603454.636    -7549534.48149  -5875025.41446  23603454.239    23603462.929
  23396393.848    12247911.43949   9538010.23546  23396393.454    23396402.418
 03  3 26 18 23  0.0000000  0  7G30G24G 4G 5G10G 6G 9
  21464194.139   -17435332.32249 -13567731.55147  21464194.218    21464200.555
  20936314.060      298938.05149    238005.05947  20936313.712    20936320.738
  23106737.384    12464190.15949   9706769.04546  23106737.408    23106745.224
  20252260.981    -9296546.37649  -7228002.86748  20252260.262    20252266.640
  22658328.327   -12208516.38149  -9258432.35046  22658327.297    22658337.090
  23590546.053    -7617369.13249  -5927883.52646  23590545.705    23590554.405
  23414427.750    12342679.87149   9611855.61046  23414427.349    23414436.376
 03  3 26 18 23 30.0000000  0  7G30G24G 4G 5G10G 6G 9
  21449938.219   -17510247.65549 -13626107.11747  21449938.297    21449944.604
  20945679.338      348152.73349    276354.12547  20945678.988    20945686.020
  23125192.833    12561173.79549   9782340.60146  23125192.852    23125200.693
  20250227.901    -9307230.39249  -7236328.09448  20250227.189    20250233.560
  22641561.349   -12296626.90449  -9327089.77946  22641560.344    22641570.070
  23577647.925    -7685148.82949  -5980698.81246  23577647.604    23577656.378
  23432484.046    12437565.96349   9685792.66946  23432483.659    23432492.786
 03  3 26 18 24  0.0000000  0  7G30G24G 4G 5G10G 6G 9
  21435742.563   -17584846.23449 -13684235.86447  21435742.634    21435748.986
  20955118.735      397756.96549    315006.73947  20955118.383    20955125.433
  23143676.890    12658307.82549   9858029.35446  23143676.916    23143684.827
  20248289.274    -9317417.88649  -7244266.41748  20248288.552    20248294.935
  22624845.720   -12384467.46449  -9395536.84746  22624844.716    22624854.397
  23564760.164    -7752873.88849  -6033471.52246  23564759.867    23564768.688
  23450562.112    12532566.49749   9759818.90146  23450561.743    23450570.919
 03  3 26 18 24 30.0000000  0  7G30G24G 4G 5G10G 6G 9
  21421607.660   -17659125.47349 -13742115.77147  21421607.740    21421614.108
  20964631.915      447748.95649    353961.50147  20964631.567    20964638.601
  23162189.180    12755590.10549   9933833.62546  23162189.190    23162197.177
  20246445.364    -9327107.71849  -7251816.95248  20246444.638    20246451.025
  22608182.147   -12472034.61849  -9463770.86246  22608181.093    22608190.816
  23551882.840    -7820544.07649  -6086201.47046  23551882.531    23551891.377
  23468661.563    12627678.92549   9833932.30846  23468661.213    23468670.401
 03  3 26 18 25  0.0000000  0  7G30G24G 4G 5G10G 6G 9
  21407533.912   -17733083.34849 -13799745.26347  21407533.983    21407540.378
  20974218.444      498126.16449    393216.42847  20974218.091    20974225.077
  23180729.166    12853017.71549  10009751.14346  23180729.135    23180737.170
  20244696.270    -9336299.32449  -7258979.26148  20244695.549    20244701.967
  22591571.190   -12559325.25549  -9531789.43446  22591570.122    22591579.840
  23539015.927    -7888159.75649  -6138888.96146  23539015.639    23539024.524
  23486781.621    12722899.64849   9908130.11646  23486781.270    23486790.465
 03  3 26 18 25 30.0000000  0  7G30G24G 4G 5G10G 6G 9
  21393521.848   -17806717.20249 -13857122.27247  21393521.913    21393528.333
  20983877.824      548886.27649    432769.72247  20983877.454    20983884.415
  23199296.421    12950588.52149  10085780.23546  23199296.391    23199304.405
  20243042.273    -9344991.22449  -7265752.18748  20243041.564    20243047.974
  22575013.443   -12646336.32549  -9599590.15346  22575012.354    22575022.090
  23526159.454    -7955720.80349  -6191533.87946  23526159.159    23526168.071
  23504921.813    12818225.96849   9982410.19746  23504921.511    23504930.654
 03  3 26 18 26  0.0000000  0  7G30G24G 4G 5G10G 6G 9
  21379571.912   -17880024.50449 -13914244.82547  21379571.970    21379578.398
  20993609.695      600027.35449    472619.87747  20993609.327    20993616.246
  23217890.495    13048300.39849  10161919.24746  23217890.469    23217898.495
  20241483.583    -9353182.40949  -7272134.94848  20241482.873    20241489.271
  22558509.544   -12733064.38549  -9667170.35446  22558508.460    22558518.191
  23513313.447    -8023227.10449  -6244136.14246  23513313.152    23513322.006
  23523081.520    12913654.99949  10056770.31446  23523081.179    23523090.348
 03  3 26 18 26 30.0000000  0  7G30G24G 4G 5G10G 6G 9
  21365684.546   -17953002.90449 -13971111.09447  21365684.634    21365691.021
  21003413.568      651547.02049    512765.03847  21003413.200    21003420.136
  23236510.894    13146150.70649  10238166.12346  23236510.858    23236518.877
  20240020.425    -9360871.69849  -7278126.61848  20240019.696    20240026.055
  22542060.220   -12819505.72849  -9734527.15046  22542059.147    22542068.850
  23500477.809    -8090678.58249  -6296695.69346  23500477.468    23500486.329
  23541260.160    13009183.71349  10131208.10746  23541259.825    23541269.016
 03  3 26 18 27  0.0000000  0  7G30G24G 4G 5G10G 6G 9
  21351860.233   -18025649.98449 -14027719.19047  21351860.305    21351866.681
  21013289.168      703443.45049    553203.78247  21013288.803    21013295.754
  23255157.264    13244137.15949  10314519.08546  23255157.160    23255165.216
  20238652.898    -9368058.30349  -7283726.58448  20238652.173    20238658.485
  22525666.114   -12905656.95949  -9801657.88546  22525665.086    22525674.773
  23487652.618    -8158075.15549  -6349212.43846  23487652.287    23487661.137
  23559457.194    13104809.12149  10205721.24346  23559456.797    23559466.041
 03  3 26 18 27 30.0000000  0  7G30G24G 4G 5G10G 6G 9
  21338099.445   -18097963.34049 -14084067.23947  21338099.521    21338105.819
  21023235.989      755714.15349    593934.16447  21023235.607    21023242.587
  23273829.041    13342257.25649  10390976.19146  23273828.933    23273836.960
  20237381.148    -9374741.42349  -7288934.22648  20237380.423    20237386.728
  22509327.809   -12991515.00749  -9868560.17646  22509326.758    22509336.423
  23474837.808    -8225417.14049  -6401686.65446  23474837.538    23474846.334
  23577672.058    13200528.33149  10280307.46846  23577671.667    23577680.964
 03  3 26 18 28  0.0000000  0  7G30G24G 4G 5G10G 6G 9
  21324402.643   -18169940.53249 -14140153.34547  21324402.723    21324408.939
  21033253.604      808357.05949    634954.57147  21033253.232    21033260.235
  23292525.769    13440508.66349  10467535.62546  23292525.610    23292533.648
  20236205.395    -9380919.97249  -7293748.69848  20236204.687    20236211.023
  22493045.913   -13077076.61549  -9935231.47746  22493044.829    22493054.502
  23462033.478    -8292704.43649  -6454118.26946  23462033.232    23462041.921
  23595904.185    13296338.36449  10354964.47246  23595903.816    23595913.152
 03  3 26 18 28 30.0000000  0  7G30G24G 4G 5G10G 6G 9
  21310770.283   -18241579.11449 -14195975.59947  21310770.361    21310776.509
  21043341.640      861369.99849    676263.31947  21043341.258    21043348.296
  23311247.049    13538889.09049  10544195.56746  23311246.869    23311254.844
  20235125.892    -9386592.98849  -7298169.25148  20235125.164    20235131.529
  22476821.052   -13162338.39649 -10001669.14546  22476819.972    22476829.591
  23449239.561    -8359937.08749  -6506507.29746  23449239.280    23449247.892
  23614152.997    13392236.16349  10429689.86246  23614152.652    23614162.005
 03  3 26 18 29  0.0000000  0  7G30G24G 4G 5G10G 6G 9
  21297202.813   -18312876.59649 -14251532.06147  21297202.903    21297208.989
  21053499.685      914750.77349    717858.69347  21053499.296    21053506.380
  23329992.431    13637396.24049  10620954.26146  23329992.312    23330000.162
  20234142.752    -9391759.55949  -7302195.16948  20234142.035    20234148.391
  22460653.790   -13247297.34149 -10067870.82746  22460652.704    22460662.329
  23436456.054    -8427114.77149  -6558853.50446  23436455.699    23436464.407
  23632418.027    13488218.90149  10504481.43846  23632417.667    23632427.081
 03  3 26 18 29 30.0000000  0  7G30G24G 4G 5G10G 6G 9
  21283700.772   -18383830.48449 -14306820.78247  21283700.850    21283706.901
  21063727.214      968496.92649    759738.76947  21063726.855    21063733.953
  23348761.443    13736027.70249  10697809.82746  23348761.359    23348769.263
  20233256.205    -9396418.54249  -7305825.56348  20233255.479    20233261.873
  22444544.927   -13331949.62849 -10133833.55546  22444543.856    22444553.429
  23423682.975    -8494237.34649  -6611156.74046  23423682.642    23423691.300
  23650698.654    13584283.80449  10579337.02546  23650698.312    23650707.826
 03  3 26 18 30  0.0000000  0  7G30G24G 4G 5G10G 6G 9
  21270264.573   -18454438.47049 -14361839.98247  21270264.642    21270270.675
  21074023.970     1022606.43649    801901.98147  21074023.597    21074030.694
  23367553.715    13834781.31349  10774760.58246  23367553.659    23367561.585
  20232466.355    -9400569.14049  -7309059.81448  20232465.635    20232472.049
  22428495.046   -13416292.03649 -10199554.83446  22428494.027    22428503.523
  23410920.365    -8561304.86449  -6663417.10246  23410920.028    23410928.733
  23668994.367    13680427.96349  10654254.38046  23668993.986    23669003.612
 03  3 26 18 30 30.0000000  0  7G30G24G 4G 5G10G 6G 9
  21256894.592   -18524698.20749 -14416587.81347  21256894.668    21256900.697
  21084389.457     1077077.34549    844346.80847  21084389.071    21084396.181
  23386368.706    13933654.47149  10851804.48446  23386368.614    23386376.637
  20231773.437    -9404210.55849  -7311897.29948  20231772.715    20231779.122
  22412504.795   -13500321.14349 -10265031.96646  22412503.777    22412513.219
  23398168.195    -8628317.53849  -6715634.70846  23398167.905    23398176.599
  23687304.531    13776648.04749  10729230.88946  23687304.220    23687313.833
 03  3 26 18 31  0.0000000  0  7G30G24G 4G 5G10G 6G 9
  21243591.379   -18594607.18549 -14471062.32947  21243591.438    21243597.506
  21094823.223     1131906.96249    887071.14247  21094822.838    21094829.946
  23405206.043    14032645.00849  10928939.85946  23405205.972    23405214.018
  20231177.550    -9407342.11749  -7314337.49448  20231176.818    20231183.218
  22396574.667   -13584034.12449 -10330262.78046  22396573.645    22396583.048
  23385426.483    -8695275.27749  -6767809.52046  23385426.146    23385434.878
  23705628.639    13872941.23049  10804264.36146  23705628.335    23705638.026
 03  3 26 18 31 30.0000000  0  7G30G24G 4G 5G10G 6G 9
  21230355.364   -18664163.07349 -14525261.70747  21230355.421    21230361.507
  21105324.879     1187093.13449    930073.32047  21105324.478    21105331.571
  23424065.283    14131750.51849  11006164.79746  23424065.257    23424073.329
  20230678.845    -9409962.98449  -7316379.74748  20230678.113    20230684.490
  22380705.343   -13667427.74749 -10395244.73746  22380704.301    22380713.690
  23372695.214    -8762178.13249  -6819941.56046  23372694.911    23372703.601
  23723966.114    13969304.53849  10879352.47346  23723965.820    23723975.496
 03  3 26 18 32  0.0000000  0  7G30G24G 4G 5G10G 6G 9
  21217186.954   -18733363.38949 -14579184.02547  21217187.017    21217193.133
  21115893.970     1242633.88349    973351.78747  21115893.581    21115900.656
  23442945.975    14230968.79049  11083477.61646  23442945.946    23442954.034
  20230277.502    -9412072.12649  -7318023.25348  20230276.781    20230283.166
  22364897.484   -13750498.36649 -10459975.00346  22364896.465    22364905.824
  23359974.495    -8829025.81049  -6872030.59846  23359974.196    23359982.854
  23742316.464    14065735.38449  10954493.21346  23742316.137    23742325.863
 03  3 26 18 32 30.0000000  0  7G30G24G 4G 5G10G 6G 9
  21204086.469   -18802206.59049 -14632828.06747  21204086.546    21204092.706
  21126529.926     1298525.95949   1016904.00747  21126529.538    21126536.613
  23461847.599    14330296.86449  11160875.98746  23461847.551    23461855.656
  20229973.506    -9413669.64949  -7319268.10048  20229972.781    20229979.176
  22349151.524   -13833243.52749 -10524451.67046  22349150.505    22349159.896
  23347264.142    -8895819.11449  -6924077.28446  23347263.766    23347272.417
  23760678.825    14162229.72549  11029683.41046  23760678.554    23760688.309
 03  3 26 18 33  0.0000000  0  7G30G24G 4G 5G10G 6G 9
  21191054.652   -18870689.25449 -14686191.17747  21191054.728    21191060.917
  21137232.415     1354767.93649   1060728.88647  21137232.039    21137239.138
  23480769.784    14429733.22149  11238358.73546  23480769.751    23480777.948
  20229767.188    -9414753.93949  -7320113.02748  20229766.464    20229772.872
  22333468.295   -13915659.11549 -10588671.51746  22333467.283    22333476.660
  23334564.341    -8962557.14649  -6976080.88746  23334563.957    23334572.533
  23779052.899    14258785.53849  11104921.50946  23779052.654    23779062.498
 03  3 26 18 33 30.0000000  0  7G30G24G 4G 5G10G 6G 9
  21178091.847   -18938809.21849 -14739271.66047  21178091.912    21178098.127
  21148001.074     1411357.46749   1104824.58547  21148000.714    21148007.838
  23499712.194    14529275.61049  11315924.12346  23499712.138    23499720.380
  20229658.664    -9415324.16449  -7320557.38348  20229657.929    20229664.347
  22317848.425   -13997741.94349 -10652632.08046  22317847.406    22317856.735
  23321874.949    -9029239.85649  -7028041.39546  23321874.542    23321883.159
  23797438.198    14355399.91849  11180205.25346  23797437.927    23797447.819
 03  3 26 18 34  0.0000000  0  7G30G24G 4G 5G10G 6G 9
  21165198.508   -19006564.03149 -14792067.60947  21165198.578    21165204.838
  21158835.443     1468292.28749   1149189.34047  21158835.083    21158842.216
  23518674.259    14628921.46149  11393570.14046  23518674.201    23518682.472
  20229648.103    -9415379.67149  -7320600.65548  20229647.387    20229653.807
  22302292.459   -14079488.85849 -10716330.89446  22302291.445    22302300.712
  23309196.008    -9095867.30349  -7079958.83846  23309195.659    23309204.317
  23815834.042    14452070.14349  11255532.50046  23815833.791    23815843.727
 03  3 26 18 34 30.0000000  0  7G30G24G 4G 5G10G 6G 9
  21152375.049   -19073951.44649 -14844577.27547  21152375.125    21152381.416
  21169735.107     1525570.22549   1193821.46447  21169734.748    21169741.869
  23537655.661    14728668.76449  11471295.19046  23537655.530    23537663.916
  20229735.622    -9414919.75249  -7320242.30348  20229734.896    20229741.339
  22286801.050   -14160896.70449 -10779765.50946  22286800.019    22286809.205
  23296527.634    -9162439.47849  -7131833.21046  23296527.290    23296535.976
  23834240.058    14548793.31649  11330901.01146  23834239.789    23834249.708
 03  3 26 18 35  0.0000000  0  7G30G24G 4G 5G10G 6G 9
  21139621.955   -19140968.99449 -14896798.73247  21139622.044    21139628.300
  21180699.653     1583189.17449   1238719.31347  21180699.277    21180706.424
  23556655.871    14828515.01949  11549097.33346  23556655.756    23556664.160
  20229921.358    -9413943.81549  -7319481.86148  20229920.627    20229927.078
  22271374.761   -14241962.14649 -10842933.31346  22271373.719    22271382.843
  23283869.775    -9228956.25049  -7183664.40146  23283869.443    23283878.125
  23852655.516    14645566.29349  11406308.33046  23852655.220    23852665.185
 03  3 26 18 35 30.0000000  0  7G30G24G 4G 5G10G 6G 9
  21126939.815   -19207614.04949 -14948729.93647  21126939.904    21126946.119
  21191728.642     1641146.84149   1283881.09547  21191728.272    21191735.444
  23575674.520    14928458.46749  11626975.22146  23575674.420    23575682.856
  20230205.467    -9412450.87249  -7318318.55748  20230204.741    20230211.185
  22256014.272   -14322681.78949 -10905831.65446  22256013.203    22256022.327
  23271222.541    -9295417.35549  -7235452.23246  23271222.238    23271230.940
  23871079.906    14742386.32349  11481752.31246  23871079.606    23871089.627
 03  3 26 18 36  0.0000000  0  7G30G24G 4G 5G10G 6G 9
  21114328.943   -19273884.52649 -15000369.25647  21114329.044    21114335.215
  21202821.615     1699440.59949   1329304.77247  21202821.242    21202828.416
  23594711.202    15028496.52549  11704926.82045  23594711.171    23594719.544
  20230588.045    -9410440.58549  -7316752.12848  20230587.316    20230593.772
  22240720.108   -14403052.89349 -10968458.41646  22240719.031    22240728.183
  23258585.926    -9361822.87549  -7287196.73346  23258585.667    23258594.324
  23889512.651    14839250.24349  11557230.49346  23889512.324    23889522.478
 03  3 26 18 36 30.0000000  0  7G30G24G 4G 5G10G 6G 9
  21101789.813   -19339778.07449 -15051714.86647  21101789.895    21101796.044
  21213978.138     1758068.43849   1374988.76547  21213977.759    21213984.964
  23613765.433    15128626.73449  11782950.24245  23613765.370    23613773.798
  20231069.199    -9407912.28049  -7314782.05248  20231068.473    20231074.932
  22225492.908   -14483071.88049 -11030810.80546  22225491.852    22225501.004
  23245959.894    -9428172.90449  -7338898.00246  23245959.587    23245968.251
  23907953.139    14936155.12949  11632740.58746  23907952.868    23907963.034
 03  3 26 18 37  0.0000000  0  7G30G24G 4G 5G10G 6G 9
  21089322.881   -19405292.27949 -15102764.88447  21089322.956    21089329.067
  21225197.828     1817028.12649   1420931.34147  21225197.461    21225204.676
  23632836.810    15228847.10249  11861043.93345  23632836.807    23632845.228
  20231649.051    -9404865.34649  -7312407.84548  20231648.331    20231654.798
  22210333.336   -14562735.54449 -11092886.31946  22210332.257    22210341.455
  23233344.465    -9494467.29149  -7390555.92046  23233344.140    23233352.813
  23926400.933    15033098.15749  11708280.41646  23926400.667    23926410.907
 03  3 26 18 37 30.0000000  0  7G30G24G 4G 5G10G 6G 9
  21076928.532   -19470424.86349 -15153517.53547  21076928.606    21076934.724
  21236480.169     1876317.18049   1467130.57247  21236479.801    21236487.010
  23651924.920    15329155.36449  11939206.09745  23651924.903    23651933.401
  20232327.681    -9401299.25649  -7309629.10048  20232326.961    20232333.439
  22195241.911   -14642041.09649 -11154682.79446  22195240.835    22195250.041
  23220739.625    -9560705.89049  -7442170.36046  23220739.306    23220747.971
  23944855.517    15130076.67549  11783847.89446  23944855.242    23944865.562
 03  3 26 18 38  0.0000000  0  7G30G24G 4G 5G10G 6G 9
  21064607.265   -19535173.27349 -15203970.83547  21064607.346    21064613.492
  21247824.778     1935933.22349   1513584.59547  21247824.407    21247831.607
  23671029.349    15429549.51049  12017435.17045  23671029.367    23671037.814
  20233105.252    -9397213.25849  -7306445.23348  20233104.533    20233111.014
  22180219.308   -14720985.09849 -11216197.54846  22180218.245    22180227.399
  23208145.375    -9626888.66349  -7493741.29046  23208145.076    23208153.771
  23963316.287    15227087.81749  11859440.79146  23963315.991    23963326.388
 03  3 26 18 38 30.0000000  0  7G30G24G 4G 5G10G 6G 9
  21052359.546   -19599535.35149 -15254123.09347  21052359.645    21052365.800
  21259231.168     1995874.00449   1560291.66147  21259230.791    21259237.996
  23690149.686    15530027.10049  12095729.26445  23690149.740    23690158.184
  20233981.806    -9392606.86349  -7302855.85848  20233981.076    20233987.568
  22165266.165   -14799564.45349 -11277428.15346  22165265.096    22165274.237
  23195561.761    -9693015.59249  -7545268.70846  23195561.506    23195570.169
  23981782.636    15324128.55349  11935056.74746  23981782.338    23981792.843
 03  3 26 18 39  0.0000000  0  7G30G24G 4G 5G10G 6G 9
  21040185.797   -19663508.74349 -15303972.48447  21040185.892    21040192.051
  21270698.926     2056137.40349   1607250.11747  21270698.562    21270705.780
  23709285.462    15630585.93949  12174086.67045  23709285.494    23709294.053
  20234957.471    -9387479.72049  -7298860.71048  20234956.741    20234963.242
  22150382.956   -14877775.97549 -11338372.13646  22150381.880    22150390.968
  23182988.854    -9759086.56549  -7596752.53546  23182988.591    23182997.269
  24000254.069    15421195.97349  12010693.49845  24000253.790    24000264.341
 03  3 26 18 39 30.0000000  0  7G30G24G 4G 5G10G 6G 9
  21028086.471   -19727091.17949 -15353517.23347  21028086.549    21028092.734
  21282227.639     2116721.14549   1654458.19447  21282227.271    21282234.547
  23728436.225    15731223.69049  12252505.55745  23728436.255    23728444.907
  20236032.307    -9381831.41949  -7294459.46448  20236031.587    20236038.114
  22135570.335   -14955616.59149 -11399027.10646  22135569.264    22135578.338
  23170426.623    -9825101.63149  -7648192.78646  23170426.307    23170434.994
  24018730.086    15518287.13849  12086348.75645  24018729.769    24018740.362
 03  3 26 18 40  0.0000000  0  7G30G24G 4G 5G10G 6G 9
  21016061.998   -19790280.26449 -15402755.47147  21016062.063    21016068.284
  21293816.920     2177623.08549   1701914.20747  21293816.557    21293823.877
  23747601.566    15831938.17749  12330984.24845  23747601.568    23747610.376
  20237206.449    -9375661.23849  -7289651.55848  20237205.744    20237212.273
  22120828.893   -15033083.30649 -11459390.72646  22120827.840    22120836.860
  23157875.076    -9891060.65749  -7699589.37546  23157874.747    23157883.350
  24037210.093    15615399.17149  12162020.26945  24037209.765    24037220.412
 03  3 26 18 40 30.0000000  0  7G30G24G 4G 5G10G 6G 9
  21004112.845   -19853073.57749 -15451685.31947  21004112.905    21004119.158
  21305466.254     2238840.79249   1749616.27147  21305465.883    21305473.293
  23766781.255    15932727.84149  12409521.51545  23766781.269    23766790.125
  20238480.078    -9368968.41049  -7284436.39648  20238479.362    20238485.899
  22106159.218   -15110172.57649 -11519460.22746  22106158.195    22106167.237
  23145334.274    -9956963.26249  -7750942.00746  23145333.969    23145342.487
  24055693.537    15712529.42149  12237705.98645  24055693.190    24055703.882
 03  3 26 18 41  0.0000000  0  7G30G24G 4G 5G10G 6G 9
  20992239.441   -19915468.63949 -15500304.83947  20992239.505    20992245.790
  21317175.193     2300371.71049   1797562.39247  21317174.817    21317182.280
  23785974.803    16033590.25149  12488115.45145  23785974.832    23785983.729
  20239853.265    -9361752.50749  -7278813.64048  20239852.552    20239859.058
  22091561.949   -15186881.53349 -11579233.39046  22091560.921    22091569.941
  23132804.207   -10022809.32149  -7802250.57446  23132803.863    23132812.359
  24074179.882    15809675.07349  12313403.68845  24074179.552    24074190.299
 03  3 26 18 41 30.0000000  0  7G30G24G 4G 5G10G 6G 9
  20980442.278   -19977463.20749 -15548612.28447  20980442.352    20980448.657
  21328943.492     2362214.28149   1845751.36347  21328943.120    21328950.592
  23805181.817    16134523.39149  12566764.50345  23805181.825    23805190.737
  20241326.071    -9354012.92549  -7272782.82348  20241325.352    20241331.848
  22077037.717   -15263206.77149 -11638707.54546  22077036.666    22077045.677
  23120284.938   -10088598.63249  -7853514.91046  23120284.590    23120293.069
  24092668.628    15906833.33249  12389111.22145  24092668.263    24092679.040
 03  3 26 18 42  0.0000000  0  7G30G24G 4G 5G10G 6G 9
  20968721.771   -20039054.96549 -15596605.85947  20968721.836    20968728.095
  21340770.512     2424365.59249   1894180.91347  21340770.142    21340777.650
  23824401.847    16235524.92649  12645466.84045  23824401.890    23824410.814
  20242898.579    -9345749.56149  -7266343.86748  20242897.863    20242904.351
  22062587.061   -15339145.36249 -11697880.41446  22062586.020    22062595.037
  23107776.413   -10154331.29049  -7904735.11046  23107776.119    23107784.483
  24111159.217    16004001.16349  12464826.22345  24111158.872    24111169.644
 03  3 26 18 42 30.0000000  0  7G30G24G 4G 5G10G 6G 9
  20957078.396   -20100241.49849 -15644283.67647  20957078.466    20957084.678
  21352655.898     2486823.62449   1942849.45947  21352655.534    21352663.093
  23843634.497    16336592.94649  12724220.99645  23843634.495    23843643.436
  20244570.865    -9336961.70649  -7259496.21648  20244570.146    20244576.647
  22048210.649   -15414693.74549 -11756749.22846  22048209.612    22048218.588
  23095278.793   -10220006.85249  -7955910.82846  23095278.462    23095286.811
  24129651.172    16101176.02849  12540546.70245  24129650.800    24129661.525
 03  3 26 18 43  0.0000000  0  7G30G24G 4G 5G10G 6G 9
  20945512.486   -20161020.80049 -15691644.17247  20945512.563    20945518.735
  21364599.177     2549585.93149   1991755.10347  21364598.816    21364606.414
  23862879.384    16437725.04149  12803025.06545  23862879.382    23862888.418
  20246342.956    -9327649.35749  -7252239.87248  20246342.239    20246348.754
  22033908.968   -15489849.45649 -11815312.06747  22033907.923    22033916.865
  23082792.001   -10285625.50649  -8007042.19546  23082791.646    23082799.966
  24148143.885    16198354.79549  12616270.20245  24148143.478    24148154.212
 03  3 26 18 43 30.0000000  0  7G30G24G 4G 5G10G 6G 9
  20934024.505   -20221390.42149 -15738685.43247  20934024.576    20934030.725
  21376599.987     2612650.41549   2040896.20947  21376599.628    21376607.252
  23882136.131    16538919.23049  12881877.53945  23882136.021    23882145.269
  20248214.963    -9317811.96749  -7244574.40448  20248214.243    20248220.787
  22019682.613   -15564609.20649 -11873566.36547  22019681.592    22019690.461
  23070316.086   -10351187.07549  -8058129.08246  23070315.723    23070323.985
  24166636.790    16295534.78649  12691994.66745  24166636.406    24166647.159
 03  3 26 18 44  0.0000000  0  7G30G24G 4G 5G10G 6G 9
  20922614.913   -20281348.24549 -15785405.81547  20922615.005    20922621.096
  21388657.798     2676014.41849   2090270.71547  21388657.440    21388665.086
  23901404.256    16640173.40449  12960776.74745  23901404.141    23901413.366
  20250186.932    -9307449.40849  -7236499.71648  20250186.208    20250192.757
  22005532.165   -15638970.01849 -11931509.79947  22005531.148    22005539.993
  23057851.016   -10416691.52249  -8109171.46546  23057850.632    23057858.887
  24185129.301    16392712.95349  12767717.70245  24185128.873    24185139.756
 03  3 26 18 44 30.0000000  0  7G30G24G 4G 5G10G 6G 9
  20911284.323   -20340891.24749 -15831802.96247  20911284.389    20911290.436
  21400772.298     2739676.24849   2139877.28647  21400771.934    21400779.586
  23920683.478    16741486.04049  13039721.49045  23920683.425    23920692.701
  20252259.074    -9296560.45049  -7228014.85048  20252258.343    20252264.888
  21991458.307   -15712928.44949 -11989139.68847  21991457.281    21991466.148
  23045396.968   -10482138.16549  -8160168.81346  23045396.554    23045404.747
  24203621.169    16489887.28249  12843437.74145  24203620.722    24203631.578
 03  3 26 18 45  0.0000000  0  7G30G24G 4G 5G10G 6G 9
  20900032.953   -20400017.75949 -15877875.57047  20900033.008    20900039.009
  21412942.956     2803633.40049   2189713.97947  21412942.598    21412950.244
  23939973.334    16842854.45549  13118709.72245  23939973.321    23939982.604
  20254431.353    -9285145.26149  -7219119.92848  20254430.619    20254437.175
  21977461.561   -15786481.50849 -12046453.71047  21977460.541    21977469.412
  23032953.794   -10547527.32649  -8211121.36946  23032953.378    23032961.558
  24222111.662    16587054.47349  12919152.22145  24222111.221    24222122.076
 03  3 26 18 45 30.0000000  0  7G30G24G 4G 5G10G 6G 9
  20888861.304   -20458725.34249 -15923621.74047  20888861.362    20888867.350
  21425169.427     2867883.58549   2239779.01047  21425169.064    21425176.696
  23959273.477    16944276.97649  13197740.12545  23959273.430    23959282.828
  20256703.795    -9273203.60249  -7209814.76948  20256703.056    20256709.639
  21963542.585   -15859626.03249 -12103449.39647  21963541.557    21963550.413
  23020521.603   -10612858.86249  -8262029.01146  23020521.185    23020529.369
  24240600.253    16684211.68449  12994858.91345  24240599.742    24240610.763
 03  3 26 18 46  0.0000000  0  7G30G24G 4G 5G10G 6G 9
  20877769.798   -20517011.53749 -15969039.55647  20877769.861    20877775.849
  21437451.294     2932424.91949   2290070.91147  21437450.931    21437458.512
  23978583.520    17045751.51549  13276811.05145  23978583.442    23978592.873
  20259076.514    -9260735.07349  -7200099.06548  20259075.784    20259082.352
  21949701.856   -15932359.21449 -12160124.55647  21949700.848    21949709.657
  23008100.424   -10678132.33349  -8312891.41646  23008100.024    23008108.212
  24259086.366    16781356.37449  13070555.85045  24259085.834    24259096.922
 03  3 26 18 46 30.0000000  0  7G30G24G 4G 5G10G 6G 9
  20866758.939   -20574874.01549 -16014127.20847  20866759.003    20866764.984
  21449788.106     2997254.98949   2340587.79747  21449787.731    21449795.295
  23997903.167    17147276.07649  13355920.95345  23997903.117    23997912.480
  20261549.559    -9247739.15149  -7189972.40548  20261548.822    20261555.367
  21935939.968   -16004677.95649 -12216476.77447  21935938.966    21935947.783
  22995690.333   -10743347.47449  -8363708.37146  22995689.975    22995698.118
  24277569.552    16878485.78549  13146240.87945  24277569.079    24277580.190
 03  3 26 18 47  0.0000000  0  7G30G24G 4G 5G10G 6G 9
  20855828.976   -20632310.96849 -16058883.28247  20855829.070    20855835.053
  21462179.385     3062371.18249   2391327.64047  21462179.023    21462186.527
  24017231.958    17248848.56349  13435068.21345  24017231.776    24017241.128
  20264122.974    -9234215.85749  -7179434.80548  20264122.250    20264128.786
  21922257.464   -16076579.39549 -12272503.82547  21922256.508    21922265.336
  22983291.354   -10808504.18049  -8414479.79346  22983290.989    22983299.145
  24296049.343    16975596.99049  13221911.72045  24296048.865    24296060.083
 03  3 26 18 47 30.0000000  0  7G30G24G 4G 5G10G 6G 9
  20844980.571   -20689319.69749 -16103305.67447  20844980.680    20844986.643
  21474624.664     3127771.28649   2442288.71947  21474624.307    21474631.768
  24036569.463    17350467.08849  13514251.36345  24036569.368    24036578.715
  20266796.812    -9220164.92349  -7168486.05748  20266796.099    20266802.634
  21908655.050   -16148060.20449 -12328203.10947  21908654.094    21908662.935
  22970903.603   -10873602.11049  -8465205.40546  22970903.235    22970911.384
  24314525.240    17072687.65249  13297566.55545  24314524.785    24314536.016
 03  3 26 18 48  0.0000000  0  7G30G24G 4G 5G10G 6G 9
  20834213.983   -20745898.53749 -16147393.08347  20834214.074    20834220.074
  21487123.466     3193452.63449   2493468.94747  21487123.104    21487130.528
  24055915.264    17452129.11849  13593468.41445  24055915.216    24055924.450
  20269570.993    -9205586.66849  -7157126.41148  20269570.278    20269576.814
  21895133.211   -16219117.94049 -12383572.73047  21895132.225    21895141.035
  22958526.997   -10938641.64549  -8515885.52746  22958526.603    22958534.751
  24332996.588    17169754.47949  13373202.81545  24332996.107    24333007.398
 03  3 26 18 48 30.0000000  0  7G30G24G 4G 5G10G 6G 9
  20823529.684   -20802044.93149 -16191143.52647  20823529.780    20823535.803
  21499675.410     3259413.26449   2544866.79347  21499675.044    21499682.438
  24075268.962    17553833.01049  13672718.07745  24075268.878    24075278.214
  20272445.642    -9190480.52149  -7145355.41948  20272444.908    20272451.439
  21881692.511   -16289749.16149 -12438610.00447  21881691.490    21881700.275
  22946161.573   -11003622.13449  -8566519.64046  22946161.233    22946169.309
  24351462.878    17266794.75649  13448818.36945  24351462.483    24351473.669
 03  3 26 18 49  0.0000000  0  7G30G24G 4G 5G10G 6G 9
  20812928.100   -20857756.76849 -16234555.34647  20812928.180    20812934.235
  21512280.049     3325650.95549   2596480.53647  21512279.679    21512287.051
  24094630.219    17655576.64849  13751998.70045  24094630.143    24094639.457
  20275420.729    -9174846.51649  -7133173.11048  20275419.989    20275426.553
  21868333.479   -16359951.23649 -12493312.87247  21868332.469    21868341.200
  22933807.398   -11068543.72949  -8617107.85946  22933807.046    22933815.095
  24369923.631    17363805.66549  13524411.03945  24369923.282    24369934.510
 03  3 26 18 49 30.0000000  0  7G30G24G 4G 5G10G 6G 9
  20802409.618   -20913031.78749 -16277626.79047  20802409.692    20802415.777
  21524936.960     3392163.18249   2648308.19547  21524936.576    21524943.941
  24113998.730    17757358.13749  13831308.83845  24113998.646    24114008.039
  20278496.265    -9158684.44049  -7120579.31648  20278495.530    20278502.114
  21855056.688   -16429721.12749 -12547678.97447  21855055.700    21855064.394
  22921464.469   -11133406.01349  -8667649.85046  22921464.130    22921472.133
  24388378.310    17460784.65649  13599978.83745  24388378.017    24388389.309
 03  3 26 18 50  0.0000000  0  7G30G24G 4G 5G10G 6G 9
  20791974.633   -20967867.95149 -16320356.27147  20791974.715    20791980.814
  21537645.693     3458947.85549   2700348.14347  21537645.318    21537652.660
  24133374.020    17859175.28149  13910646.74745  24133373.903    24133383.334
  20281672.291    -9141994.32949  -7107574.07248  20281671.551    20281678.166
  21841862.625   -16499056.09649 -12601706.17847  21841861.634    21841870.316
  22909132.870   -11198209.01249  -8718145.65346  22909132.537    22909140.562
  24406826.388    17557728.84149  13675519.50445  24406826.125    24406837.376
 03  3 26 18 50 30.0000000  0  7G30G24G 4G 5G10G 6G 9
  20781623.593   -21022262.91149 -16362741.95747  20781623.681    20781629.793
  21550405.871     3526002.70349   2752598.61747  21550405.495    21550412.822
  24152755.799    17961026.48349  13990011.20545  24152755.754    24152765.124
  20284948.809    -9124775.98049  -7094157.21348  20284948.093    20284954.721
  21828751.947   -16567953.18149 -12655392.17247  21828750.940    21828759.591
  22896812.624   -11262952.26049  -8768594.89246  22896812.277    22896820.303
  24425267.308    17654635.54749  13751030.97045  24425267.079    24425278.401
 03  3 26 18 51  0.0000000  0  7G30G24G 4G 5G10G 6G 9
  20771356.905   -21076214.66049 -16404782.28547  20771356.989    20771363.090
  21563216.979     3593325.42149   2805057.82247  21563216.606    21563223.960
  24172143.615    18062909.20949  14069400.23845  24172143.583    24172152.878
  20288325.923    -9107029.38549  -7080328.72948  20288325.205    20288331.845
  21815725.063   -16636409.47949 -12708734.69647  21815724.079    21815732.694
  22884503.756   -11327635.54349  -8818997.40446  22884503.408    22884511.452
  24443700.621    17751502.01049  13826511.06345  24443700.318    24443711.706
 03  3 26 18 51 30.0000000  0  7G30G24G 4G 5G10G 6G 9
  20761175.072   -21129720.68549 -16446475.29747  20761175.158    20761181.265
  21576078.586     3660913.56449   2857723.85747  21576078.212    21576085.617
  24191537.182    18164822.22649  14148812.85545  24191537.167    24191546.483
  20291803.599    -9088754.25149  -7066088.40148  20291802.877    20291809.507
  21802782.729   -16704421.82449 -12761731.28947  21802781.748    21802790.332
  22872206.387   -11392258.53949  -8869352.94946  22872206.031    22872214.102
  24462125.781    17848325.75649  13901957.85745  24462125.533    24462136.936
 03  3 26 18 52  0.0000000  0  7G30G24G 4G 5G10G 6G 9
  20751078.401   -21182779.04649 -16487819.48047  20751078.477    20751084.588
  21588990.334     3728764.99749   2910595.05247  21588989.963    21588997.404
  24210936.111    18266763.42349  14228247.44045  24210936.077    24210945.391
  20295381.851    -9069950.68749  -7051436.30848  20295381.130    20295387.753
  21789925.381   -16771987.49149 -12814379.82547  21789924.389    21789932.956
  22859920.443   -11456821.21549  -8919661.48346  22859920.087    22859928.219
  24480542.302    17945104.07949  13977369.26445  24480541.973    24480553.503
 03  3 26 18 52 30.0000000  0  7G30G24G 4G 5G10G 6G 9
  20741067.405   -21235387.36849 -16528812.98547  20741067.468    20741073.594
  21601951.817     3796877.92649   2963670.00647  21601951.450    21601958.931
  24230339.978    18368730.68649  14307702.33345  24230339.925    24230349.264
  20299060.722    -9050618.34849  -7036372.18148  20299060.003    20299066.615
  21777153.587   -16839103.39949 -12866677.90247  21777152.611    21777161.161
  22847646.020   -11521323.32449  -8969922.81646  22847645.674    22847653.815
  24498949.634    18041834.07849  14052743.02245  24498949.250    24498960.843
 03  3 26 18 53  0.0000000  0  7G30G24G 4G 5G10G 6G 9
  20731142.433   -21287543.49049 -16569454.12347  20731142.499    20731148.631
  21614962.590     3865249.81349   3016946.74547  21614962.223    21614969.729
  24249748.475    18470722.33049  14387176.23445  24249748.498    24249757.811
  20302840.187    -9030757.33249  -7020896.10148  20302839.467    20302846.062
  21764467.978   -16905766.75949 -12918623.34047  21764466.993    21764475.573
  22835383.242   -11585764.50649  -9020136.68946  22835382.893    22835391.039
  24517347.278    18138513.29249  14128077.19445  24517346.894    24517358.525
 03  3 26 18 53 30.0000000  0  7G30G24G 4G 5G10G 6G 9
  20721303.889   -21339245.22749 -16609741.19447  20721303.980    20721310.139
  21628022.238     3933878.60449   3070423.67347  21628021.882    21628029.429
  24269161.238    18572736.57449  14466667.73145  24269161.209    24269170.647
  20306720.237    -9010367.66249  -7005008.08148  20306719.521    20306726.106
  21751869.032   -16971974.64149 -12970213.86347  21751868.025    21751876.615
  22823132.107   -11650144.40949  -9070302.81546  22823131.725    22823139.906
  24535734.730    18235139.20549  14203369.83245  24535734.424    24535746.146
 03  3 26 18 54  0.0000000  0  7G30G24G 4G 5G10G 6G 9
  20711552.222   -21390490.64949 -16649672.69447  20711552.311    20711558.463
  21641130.273     4002761.55749   3124098.64347  21641129.897    21641137.468
  24288577.948    18674771.36649  14546175.22945  24288577.857    24288587.397
  20310700.883    -8989449.48649  -6988708.24148  20310700.165    20310706.744
  21739357.284   -17037724.18749 -13021447.23947  21739356.277    21739364.854
  22810892.623   -11714463.00349  -9120421.15246  22810892.238    22810900.418
  24554111.505    18331708.83049  14278618.60245  24554111.162    24554123.021
 03  3 26 18 54 30.0000000  0  7G30G24G 4G 5G10G 6G 9
  20701887.812   -21441277.60849 -16689246.94847  20701887.891    20701894.045
  21654286.309     4071896.71049   3177970.14047  21654285.940    21654293.508
  24307998.203    18776824.79449  14625697.26845  24307998.143    24308007.674
  20314782.092    -8968002.83349  -6971996.59748  20314781.369    20314787.952
  21726933.248   -17103012.79149 -13072321.44547  21726932.238    21726940.813
  22798664.895   -11778719.99949  -9170491.49646  22798664.503    22798672.713
  24572477.101    18428219.63149  14353821.53445  24572476.767    24572488.713
 03  3 26 18 55  0.0000000  0  7G30G24G 4G 5G10G 6G 9
  20692311.060   -21491603.65549 -16728462.05547  20692311.141    20692317.300
  21667489.889     4141281.83549   3232036.41047  21667489.519    21667497.125
  24327421.634    18878895.13649  14705232.46645  24327421.646    24327431.006
  20318963.857    -8946027.63149  -6954873.10048  20318963.115    20318969.731
  21714597.462   -17167837.55849 -13122834.22447  21714596.468    21714605.022
  22786448.884   -11842915.09749  -9220513.62146  22786448.510    22786456.732
  24590831.026    18524668.97349  14428976.56345  24590830.712    24590842.732
 03  3 26 18 55 30.0000000  0  7G30G24G 4G 5G10G 6G 9
  20682822.369   -21541467.02649 -16767316.63347  20682822.440    20682828.619
  21680740.665     4210915.00949   3286295.97247  21680740.286    21680747.953
  24346847.915    18980980.50449  14784779.38345  24346847.838    24346857.242
  20323246.120    -8923524.15049  -6937337.95848  20323245.380    20323252.029
  21702350.473   -17232195.74949 -13172983.44147  21702349.486    21702358.013
  22774244.759   -11907047.95249  -9270487.24046  22774244.399    22774252.623
  24609172.687    18621054.06349  14504081.52145  24609172.493    24609184.530
 03  3 26 18 56  0.0000000  0  7G30G24G 4G 5G10G 6G 9
  20673422.115   -21590865.57349 -16805809.01047  20673422.198    20673428.392
  21694038.104     4280793.34849   3340746.57447  21694037.740    21694045.449
  24366276.666    19083078.97549  14864336.49545  24366276.627    24366286.070
  20327628.879    -8900492.48049  -6919391.23848  20327628.146    20327634.833
  21690192.863   -17296084.43549 -13222766.80747  21690191.863    21690200.402
  22762052.546   -11971118.12449  -9320412.02046  22762052.180    22762060.390
  24627501.713    18717372.64549  14579134.67445  24627501.466    24627513.503
 03  3 26 18 56 30.0000000  0  7G30G24G 4G 5G10G 6G 9
  20664110.704   -21639797.40449 -16843937.71247  20664110.794    20664117.000
  21707381.721     4350914.52549   3395386.39847  21707381.343    21707389.115
  24385707.541    19185188.55549  14943902.27345  24385707.546    24385716.959
  20332112.077    -8876933.16749  -6901033.36848  20332111.362    20332118.053
  21678125.060   -17359501.24449 -13272182.47647  21678124.057    21678132.586
  22749872.253   -12035125.79449  -9370288.09246  22749871.891    22749880.100
  24645817.453    18813621.64049  14654133.58045  24645817.165    24645829.322
 03  3 26 18 57  0.0000000  0  7G30G24G 4G 5G10G 6G 9
  20654888.485   -21688260.26949 -16881700.98347  20654888.578    20654894.781
  21720771.259     4421276.83549   3450214.12047  21720770.893    21720778.691
  24405140.262    19287307.69649  15023475.51245  24405140.303    24405149.608
  20336695.760    -8852845.98949  -6882264.17248  20336695.039    20336701.756
  21666147.562   -17422443.31449 -13321228.22147  21666146.569    21666155.100
  22737703.926   -12099070.38249  -9420115.00546  22737703.595    22737711.796
  24664119.550    18909798.64449  14729076.39545  24664119.265    24664131.420
 03  3 26 18 57 30.0000000  0  8G30G17G24G 4G 5G10G 6G 9
  20645755.026   -21736256.89849 -16919100.95647  20645755.131    20645761.307
  25035453.316    -1439947.30649  -1085281.53745  25035452.667    25035467.159
  21734205.238     4491872.88849   3505223.97847  21734204.873    21734212.723
  24424573.483    19389429.61349  15103050.90145  24424573.500    24424582.914
  20341378.915    -8828235.95749  -6863087.56448  20341378.207    20341384.937
  21654260.017   -17484912.62449 -13369905.58547  21654259.009    21654267.567
  22725546.756   -12162956.39449  -9469896.28146  22725546.461    22725554.636
  24682406.504    19005896.16349  14803957.27545  24682406.225    24682418.603
 03  3 26 18 58  0.0000000  0  8G30G17G24G 4G 5G10G 6G 9
  20636711.590   -21783780.68449 -16956132.47848  20636711.682    20636717.808
  25017638.345    -1533564.85949  -1158230.12945  25017637.560    25017652.213
  21747684.279     4562705.46349   3560418.13947  21747683.922    21747691.798
  24444007.819    19491557.21449  15182630.71745  24444007.865    24444017.350
  20346162.391    -8803098.79849  -6843500.20848  20346161.675    20346168.395
  21642463.818   -17546901.98449 -13418208.96247  21642462.795    21642471.387
  22713401.710   -12226778.99349  -9519628.13546  22713401.409    22713409.589
  24700678.690    19101915.94949  14878777.56745  24700678.356    24700690.802
 03  3 26 18 58 30.0000000  0  8G30G17G24G 4G 5G10G 6G 9
  20627758.995   -21830827.12449 -16992792.04148  20627759.090    20627765.160
  24999846.659    -1627060.12549  -1231083.43945  24999845.827    24999860.600
  21761208.341     4633774.69149   3615796.70447  21761207.959    21761215.878
  24463443.379    19593691.22249  15262215.53345  24463443.460    24463452.932
  20351046.678    -8777432.05649  -6823500.18948  20351045.954    20351052.665
  21630759.970   -17608406.05649 -13466134.18847  21630758.967    21630767.549
  22701269.302   -12290535.34049  -9569308.37246  22701268.958    22701277.165
  24718936.223    19197858.27349  14953537.49445  24718935.696    24718948.414
 03  3 26 18 59  0.0000000  0  8G30G17G24G 4G 5G10G 6G 9
  20618897.370   -21877395.32749 -17029078.95448  20618897.474    20618903.488
  24982078.236    -1720433.02849  -1303841.40245  24982077.258    24982092.248
  21774776.791     4705077.08149   3671356.95847  21774776.406    21774784.332
  24482879.568    19695828.51749  15341802.90345  24482879.685    24482889.160
  20356031.418    -8751237.18349  -6803088.64048  20356030.693    20356037.377
  21619148.752   -17669423.24249 -13513680.01747  21619147.745    21619156.346
  22689149.295   -12354226.27449  -9618937.63746  22689148.959    22689157.133
  24737178.199    19293719.19949  15028234.00545  24737177.707    24737190.363
 03  3 26 18 59 30.0000000  0  8G30G17G24G 4G 5G10G 6G 9
  20610127.069   -21923483.76449 -17064992.02448  20610127.166    20610133.169
  24964333.248    -1813683.38849  -1376503.87745  24964332.272    24964347.148
  21788389.082     4776609.96349   3727096.81547  21788388.692    21788396.597
  24502315.972    19797966.92749  15421391.12145  24502316.070    24502325.625
  20361116.502    -8724515.03349  -6782266.22748  20361115.783    20361122.467
  21607630.540   -17729951.73249 -13560845.05247  21607629.539    21607638.143
  22677041.699   -12417851.88349  -9668515.99246  22677041.381    22677049.569
  24755404.130    19389495.71849  15102864.72645  24755403.750    24755416.381
 03  3 26 19  0  0.0000000  0  8G30G17G24G 4G 5G10G 6G 9
  20601448.358   -21969090.75649 -17100529.94248  20601448.434    20601454.452
  24946611.767    -1906809.56049  -1449069.58345  24946610.960    24946625.521
  21802044.771     4848370.75849   3783014.26747  21802044.389    21802052.272
  24521752.240    19900104.60149  15500978.78945  24521752.284    24521761.901
  20366301.829    -8697265.99049  -6761033.25148  20366301.113    20366307.833
  21596205.853   -17789988.87149 -13607627.21047  21596204.848    21596213.453
  22664946.554   -12481412.13649  -9718043.42246  22664946.205    22664954.457
  24773613.389    19485184.85549  15177427.34945  24773613.114    24773625.866
 03  3 26 19  0 30.0000000  0  8G30G17G24G 4G 5G10G 6G 9
  20592861.595   -22014214.33149 -17135691.17248  20592861.669    20592867.725
  24928914.058    -1999810.55549  -1521537.74745  24928913.303    24928927.817
  21815743.422     4920357.29549   3839107.62647  21815743.015    21815750.888
  24541187.978    20002239.57949  15580564.37245  24541188.019    24541197.565
  20371587.340    -8669490.57449  -6739390.11448  20371586.614    20371593.372
  21584875.154   -17849532.28949 -13654024.64847  21584874.143    21584882.717
  22652863.798   -12544906.82849  -9767519.76346  22652863.499    22652871.742
  24791805.552    19580784.11249  15251919.94045  24791805.330    24791818.202
 03  3 26 19  1  0.0000000  0  8G30G17G24G 4G 5G10G 6G 9
  20584367.170   -22058852.73549 -17170474.34748  20584367.249    20584373.324
  24911240.418    -2092685.13349  -1593907.40245  24911239.598    24911254.173
  21829484.553     4992567.21849   3895375.06047  21829484.142    21829492.027
  24560622.891    20104370.08049  15660146.45145  24560622.874    24560632.461
  20376972.917    -8641189.30149  -6717337.22048  20376972.196    20376978.973
  21573638.842   -17908579.49249 -13700035.43047  21573637.821    21573646.397
  22640793.591   -12608335.81049  -9816944.90746  22640793.315    22640801.609
  24809980.128    19676290.79349  15326340.39545  24809979.768    24809992.717
 03  3 26 19  1 30.0000000  0  8G30G17G24G 4G 5G10G 6G 9
  20575965.411   -22103004.31349 -17204878.17748  20575965.505    20575971.571
  24893591.123    -2185432.33649  -1666177.79345  24893590.326    24893604.878
  21843267.646     5064997.74749   3951814.39347  21843267.271    21843275.163
  24580056.442    20206493.59149  15739723.10845  24580056.370    24580066.101
  20382458.443    -8612362.88349  -6694875.12148  20382457.728    20382464.527
  21562497.371   -17967128.13749 -13745657.71847  21562496.374    21562504.936
  22628735.965   -12671698.93649  -9866318.73146  22628735.652    22628744.013
  24828136.451    19771701.86749  15400686.33445  24828136.238    24828149.245
 03  3 26 19  2  0.0000000  0  8G30G17G24G 4G 5G10G 6G 9
  20567656.674   -22146666.83649 -17238900.92748  20567656.767    20567662.855
  24875966.147    -2278051.24149  -1738348.21745  24875965.388    24875979.911
  21857092.420     5137647.25449   4008424.35547  21857092.060    21857099.998
  24599488.508    20308609.04349  15819293.46345  24599488.568    24599498.207
  20388043.867    -8583011.27949  -6672003.78648  20388043.161    20388049.995
  21551451.366   -18025175.37349 -13790889.30447  21551450.341    21551458.904
  22616690.957   -12734995.69149  -9915640.84746  22616690.641    22616699.010
  24846274.197    19867015.04449  15474955.98345  24846273.862    24846286.812
 03  3 26 19  2 30.0000000  0  8G30G17G24G 4G 5G10G 6G 9
  20559441.382   -22189838.55649 -17272541.23048  20559441.475    20559447.595
  24858365.946    -2370540.44549  -1810417.56245  24858365.082    24858379.677
  21870958.424     5210513.41249   4065203.12747  21870958.061    21870966.043
  24618918.628    20410714.56249  15898856.07745  24618918.637    24618928.199
  20393729.099    -8553135.09749  -6648723.69048  20393728.395    20393735.258
  21540501.137   -18082719.00549 -13835728.46547  21540500.122    21540508.669
  22604658.650   -12798225.80949  -9964911.03446  22604658.321    22604666.668
  24864392.781    19962227.85349  15549147.43145  24864392.329    24864405.575
 03  3 26 19  3  0.0000000  0  8G30G17G24G 4G 5G10G 6G 9
  20551319.789   -22232517.62049 -17305797.64548  20551319.877    20551326.053
  24840790.628    -2462898.94549  -1882385.05645  24840789.839    24840804.243
  21884865.141     5283593.68549   4122148.75647  21884864.783    21884872.803
  24638346.506    20512808.44049  15978409.62345  24638346.588    24638356.103
  20399514.127    -8522734.76949  -6625035.16748  20399513.411    20399520.283
  21529647.204   -18139756.42049 -13880173.17147  21529646.176    21529654.767
  22592639.063   -12861389.13249 -10014129.16946  22592638.732    22592647.080
  24882491.842    20057337.51649  15623258.50245  24882491.428    24882504.734
 03  3 26 19  3 30.0000000  0  8G30G17G24G 4G 5G10G 6G 9
  20543292.419   -22274701.71249 -17338668.37048  20543292.525    20543298.706
  24823240.327    -2555125.58249  -1954249.79945  24823239.469    24823254.026
  21898812.335     5356886.33449   4179259.87347  21898811.958    21898819.975
  24657771.931    20614889.40849  16057953.11445  24657772.010    24657781.558
  20405398.900    -8491810.40849  -6600938.30848  20405398.187    20405405.076
  21518890.154   -18196284.84649 -13924221.26147  21518889.123    21518897.739
  22580632.326   -12924484.73549 -10063294.52546  22580632.024    22580640.342
  24900570.799    20152341.87549  15697287.49945  24900570.493    24900583.619
 03  3 26 19  4  0.0000000  0  8G30G17G24G 4G 5G10G 6G 9
  20535359.530   -22316389.26849 -17371152.18448  20535359.636    20535365.813
  24805715.478    -2647219.00249  -2026010.73845  24805714.761    24805729.118
  21912799.440     5430388.89749   4236534.56147  21912799.075    21912807.084
  24677194.502    20716955.30749  16137484.86545  24677194.554    24677204.059
  20411383.234    -8460362.69249  -6576433.64048  20411382.524    20411389.437
  21508230.406   -18252302.16049 -13967871.08747  21508229.383    21508237.996
  22568638.530   -12987512.52949 -10112407.05546  22568638.217    22568646.514
  24918629.256    20247238.36449  15771232.46745  24918629.152    24918642.279
 03  3 26 19  4 30.0000000  0  8G30G17G24G 4G 5G10G 6G 9
  20527521.299   -22357579.62649 -17403248.56848  20527521.393    20527527.556
  24788215.968    -2739179.09349  -2097667.77745  24788215.276    24788229.478
  21926825.804     5504097.73149   4293969.99147  21926825.444    21926833.431
  24696613.684    20819003.16749  16217002.58345  24696613.800    24696623.281
  20417466.803    -8428393.45449  -6551522.59248  20417466.102    20417473.011
  21497668.161   -18307806.87749 -14011121.47847  21497667.145    21497675.731
  22556657.483   -13050473.47449 -10161467.48646  22556657.151    22556665.414
  24936666.449    20342022.82849  15845090.12045  24936666.254    24936679.578
 03  3 26 19  5  0.0000000  0  8G30G17G24G 4G 5G10G 6G 9
  20519778.588   -22398268.04949 -17434953.83648  20519778.673    20519784.802
  24770742.638    -2831001.94049  -2169217.87845  24770741.872    24770756.021
  21940891.663     5578014.06949   4351567.10547  21940891.307    21940899.275
  24716029.714    20921034.21949  16296507.17945  24716029.928    24716039.295
  20423650.145    -8395900.13549  -6526203.17148  20423649.441    20423656.343
  21487204.466   -18362793.88349 -14053968.46447  21487203.449    21487212.030
  22544689.712   -13113364.39249 -10210473.37046  22544689.387    22544697.578
  24954682.400    20436695.86749  15918860.94345  24954682.063    24954695.528
 03  3 26 19  5 30.0000000  0  8G30G17G24G 4G 5G10G 6G 9
  20512131.350   -22438454.49049 -17466267.95148  20512131.437    20512137.570
  24753295.082    -2922688.75149  -2240661.97645  24753294.362    24753308.447
  21954996.213     5652133.77849   4409322.69547  21954995.853    21955003.802
  24735441.949    21023045.20349  16375996.13345  24735442.020    24735451.566
  20429932.769    -8362884.99949  -6500477.13748  20429932.062    20429938.962
  21476839.446   -18417262.27849 -14096411.33647  21476838.424    21476846.952
  22532735.032   -13176186.61649 -10259425.72346  22532734.673    22532742.843
  24972676.333    20531253.24849  15992541.63645  24972675.976    24972689.880
 03  3 26 19  6  0.0000000  0  8G30G17G24G 4G 5G10G 6G 9
  20504580.041   -22478137.09549 -17497189.46148  20504580.134    20504586.260
  24735873.849    -3014237.45749  -2311998.45545  24735873.111    24735887.239
  21969139.063     5726454.64849   4467235.02747  21969138.682    21969146.605
  24754849.995    21125034.51849  16455468.20845  24754850.113    24754859.681
  20436314.534    -8329348.68749  -6474344.98948  20436313.834    20436320.736
  21466573.601   -18471209.54149 -14138448.12947  21466572.561    21466581.061
  22520793.493   -13238939.58149 -10308324.10846  22520793.169    22520801.324
  24990647.778    20625692.39049  16066130.19245  24990647.555    24990661.416
 03  3 26 19  6 30.0000000  0  8G30G17G24G 4G 5G10G 6G 9
  20497124.950   -22517313.92849 -17527716.86548  20497125.036    20497131.164
  24718479.039    -3105647.24849  -2383226.67545  24718478.374    24718492.439
  21983319.805     5800974.78049   4525302.62947  21983319.425    21983327.340
  24774253.597    21227000.62449  16534922.20545  24774253.650    24774263.345
  20442795.425    -8295291.63549  -6447807.07048  20442794.718    20442801.649
  21456407.375   -18524633.24249 -14180076.94847  21456406.349    21456414.838
  22508865.212   -13301622.75949 -10357168.11146  22508864.887    22508873.057
  25008596.252    20720011.11749  16139624.91645  25008595.888    25008610.189
 03  3 26 19  7  0.0000000  0  7G30G17G24G 5G10G 6G 9
  20489766.568   -22555982.46049 -17557848.18848  20489766.650    20489772.792
  24701110.974    -3196916.45349  -2454345.36645  24701110.248    24701124.198
  21997538.168     5875692.52049   4583524.20947  21997537.792    21997545.719
  20449375.438    -8260713.68249  -6420863.25948  20449374.722    20449381.672
  21446341.371   -18577530.45349 -14221295.52047  21446340.358    21446348.841
  22496950.458   -13364235.12549 -10405956.93146  22496950.145    22496958.253
  25026521.483    20814207.52149  16213024.30745  25026521.090    25026535.243
 03  3 26 19  7 30.0000000  0  7G30G17G24G 5G10G 6G 9
  20482506.296   -22594135.33349 -17587577.70048  20482506.386    20482512.560
  24683770.944    -3288038.08749  -2525349.05445  24683770.172    24683784.121
  22011794.776     5950611.33249   4641902.46247  22011794.422    22011802.343
  20456055.478    -8225609.86749  -6393509.68148  20456054.768    20456061.760
  21436377.074   -18629893.25549 -14262097.66147  21436376.046    21436384.502
  22485050.332   -13426770.68849 -10454685.90346  22485050.004    22485058.126
  25044424.180    20908284.94249  16286331.00345  25044423.816    25044438.087
 03  3 26 19  8  0.0000000  0  7G30G17G24G 5G10G 6G 9
  20475342.686   -22631780.26649 -17616911.41548  20475342.775    20475348.986
  24666457.376    -3379020.63549  -2596244.36845  24666456.598    24666470.539
  22026087.497     6025719.91049   4700428.58547  22026087.127    22026095.090
  20462833.657    -8189990.31349  -6365754.22948  20462832.946    20462839.972
  21426513.043   -18681728.95849 -14302489.07847  21426512.004    21426520.436
  22473163.064   -13489238.53649 -10503362.10146  22473162.743    22473170.845
  25062301.869    21002231.21349  16359535.49245  25062301.338    25062315.904
 03  3 26 19  8 30.0000000  0  7G30G17G24G 5G10G 6G 9
  20468276.383   -22668913.99749 -17645846.79248  20468276.467    20468282.678
  24649170.860    -3469861.52349  -2667029.29645  24649170.125    24649183.907
  22040416.127     6101017.24949   4759101.79447  22040415.748    22040423.727
  20469710.172    -8153854.16549  -6337596.24048  20469709.465    20469716.496
  21416750.019   -18733033.66449 -14342466.73047  21416749.003    21416757.411
  22461289.124   -13551636.72849 -10551984.02846  22461288.793    22461296.839
  25080154.461    21096045.21949  16432636.91045  25080154.069    25080168.350
 03  3 26 19  9  0.0000000  0  6G30G17G24G 5G10G 6
  20461308.944   -22705528.07149 -17674377.23948  20461309.021    20461315.241
  24631912.705    -3560552.75349  -2737697.61845  24631912.012    24631925.684
  22054781.602     6176508.07449   4817925.77447  22054781.223    22054789.223
  20476686.156    -8117195.16649  -6309030.83148  20476685.446    20476692.505
  21407089.839   -18783797.86049 -14382023.20847  21407088.841    21407097.237
  22449429.809   -13613957.94849 -10600545.98646  22449429.483    22449437.411
 03  3 26 19  9 30.0000000  0  6G30G17G24G 5G10G 6
  20454439.435   -22741627.50349 -17702506.67248  20454439.506    20454445.749
  24614681.984    -3651100.09849  -2808253.82745  24614681.261    24614694.958
  22069182.157     6252183.34449   4876893.45947  22069181.803    22069189.808
  20483760.238    -8080020.87849  -6280063.89848  20483759.518    20483766.596
  21397531.605   -18834026.66449 -14421162.49547  21397530.618    21397538.994
  22437583.960   -13676208.68249 -10649053.01546  22437583.614    22437591.403
 03  3 26 19 10  0.0000000  0  6G30G17G24G 5G10G 6
  20447668.132   -22777210.94049 -17730234.03048  20447668.214    20447674.444
  24597478.815    -3741502.72949  -2878697.28645  24597477.970    24597491.637
  22083617.420     6328040.92449   4936003.20747  22083617.080    22083625.073
  20490932.206    -8042332.28049  -6250696.20348  20490931.483    20490938.555
  21388075.629   -18883717.83349 -14459882.84347  21388074.634    21388083.027
  22425751.552   -13738388.73849 -10697504.97646  22425751.205    22425758.855
 03  3 26 19 10 30.0000000  0  6G30G17G24G 5G10G 6
  20440995.531   -22812275.70049 -17757557.22348  20440995.613    20441001.859
  24580303.523    -3831758.60849  -2949026.38545  24580302.741    24580316.369
  22098087.187     6404079.61349   4995254.08047  22098086.832    22098094.792
  20498202.057    -8004129.23549  -6220927.63848  20498201.330    20498208.380
  21378722.533   -18932868.39549 -14498181.93847  21378721.539    21378729.955
  22413932.806   -13800496.72649 -10745900.76546  22413932.417    22413940.009
 03  3 26 19 11  0.0000000  0  6G30G17G24G 5G10G 6
  20434422.034   -22846819.56549 -17784474.52748  20434422.114    20434428.354
  24563156.524    -3921866.03749  -3019239.82645  24563155.781    24563169.282
  22112591.071     6480297.56749   5054644.63047  22112590.702    22112598.612
  20505569.797    -7965411.77249  -6190758.22748  20505569.080    20505576.099
  21369472.869   -18981475.44049 -14536057.51047  21369471.863    21369480.315
  22402127.990   -13862531.40549 -10794239.43846  22402127.610    22402135.130
 03  3 26 19 11 30.0000000  0  6G30G17G24G 5G10G 6
  20427948.067   -22880840.49849 -17810984.34748  20427948.166    20427954.368
  24546038.016    -4011823.61849  -3089336.49245  24546037.252    24546050.774
  22127128.773     6556693.34249   5114173.73947  22127128.408    22127136.282
  20513035.334    -7926180.24249  -6160188.24448  20513034.622    20513041.646
  21360327.155   -19029536.52049 -14573507.65047  21360326.154    21360334.549
  22390337.215   -13924492.08349 -10842520.44746  22390336.862    22390344.327
 03  3 26 19 12  0.0000000  0  6G30G17G24G 5G10G 6
  20421573.971   -22914336.84349 -17837085.39848  20421574.058    20421580.225
  24528948.203    -4101630.23749  -3159315.55145  24528947.453    24528961.123
  22141699.903     6633264.88849   5173839.80447  22141699.530    22141707.422
  20520598.491    -7886435.60849  -6129218.44548  20520597.786    20520604.835
  21351285.737   -19077049.34949 -14610530.58647  21351284.733    21351293.092
  22378560.647   -13986378.29549 -10890743.43746  22378560.285    22378567.736
 03  3 26 19 12 30.0000000  0  6G30G17G24G 5G10G 6
  20415299.982   -22947306.87149 -17862776.33348  20415300.082    20415306.215
  24511887.424    -4191284.88249  -3229176.18845  24511886.644    24511900.215
  22156304.029     6710010.00149   5233641.12847  22156303.660    22156311.593
  20528259.162    -7846178.49049  -6097849.30448  20528258.452    20528265.505
  21342349.074   -19124011.66949 -14647124.55147  21342348.070    21342356.445
  22366798.331   -14048189.57349 -10938908.03046  22366797.968    22366805.344
 03  3 26 19 13  0.0000000  0  6G30G17G24G 5G10G 6
  20409126.510   -22979748.82649 -17888055.78048  20409126.616    20409132.722
  24494855.781    -4280786.26749  -3298917.41345  24494855.075    24494868.452
  22170940.801     6786926.66949   5293576.13447  22170940.437    22170948.418
  20536017.264    -7805409.60049  -6066081.37748  20536016.552    20536023.595
  21333517.582   -19170421.21749 -14683287.78347  21333516.604    21333524.959
  22355050.383   -14109925.15749 -10987013.64546  22355050.011    22355057.373
 03  3 26 19 13 30.0000000  0  6G30G17G24G 5G10G 6
  20403053.796   -23011661.13649 -17912922.52148  20403053.890    20403060.012
  24477853.499    -4370133.55949  -3368538.56645  24477852.825    24477866.101
  22185609.858     6864013.07549   5353643.40347  22185609.512    22185617.546
  20543872.580    -7764129.81849  -6033915.35548  20543871.853    20543878.932
  21324791.720   -19216275.92649 -14719018.67747  21324790.725    21324799.059
  22343316.970   -14171584.50449 -11035059.85646  22343316.604    22343323.916
 03  3 26 19 14  0.0000000  0  6G30G17G24G 5G10G 6
  20397082.186   -23043042.21549 -17937375.31348  20397082.264    20397088.424
  24460880.769    -4459325.32749  -3438038.52645  24460880.085    24460893.292
  22200310.815     6941267.03049   5413841.22647  22200310.465    22200318.562
  20551824.924    -7722339.93549  -6001351.84948  20551824.208    20551831.313
  21316171.812   -19261573.80249 -14754315.67847  21316170.832    21316179.105
  22331598.141   -14233167.12949 -11083046.27746  22331597.797    22331605.091
 03  3 26 19 14 30.0000000  0  6G30G17G24G 5G10G 6
  20391211.898   -23073890.77449 -17961413.15548  20391211.988    20391218.160
  24443937.809    -4548360.69749  -3507416.63445  24443937.145    24443950.349
  22215043.272     7018686.45549   5474167.98747  22215042.916    22215051.054
  20559874.172    -7680040.96149  -5968391.65348  20559873.466    20559880.595
  21307658.230   -19306312.78049 -14789177.16847  21307657.246    21307665.495
  22319893.987   -14294672.69149 -11130972.65846  22319893.649    22319900.950
 03  3 26 19 15  0.0000000  0  6G30G17G24G 5G10G 6
  20385443.272   -23104205.16749 -17985034.76348  20385443.341    20385449.542
  24427024.774    -4637238.86549  -3576672.23045  24427024.043    24427037.326
  22229806.734     7096268.94949   5534621.82247  22229806.395    22229814.599
  20568020.148    -7637233.79449  -5935035.45848  20568019.436    20568026.576
  21299251.395   -19350490.96549 -14823601.68347  21299250.386    21299258.653
  22308204.612   -14356100.69649 -11178838.60146  22308204.271    22308211.542
 03  3 26 19 15 30.0000000  0  6G30G17G24G 5G10G 6
  20379776.640   -23133983.46149 -18008238.63348  20379776.714    20379782.938
  24410141.840    -4725958.49349  -3645804.29345  24410141.111    24410154.423
  22244600.951     7174013.12749   5595201.64947  22244600.603    22244608.848
  20576262.744    -7593918.88949  -5901283.62648  20576262.040    20576269.162
  21290951.715   -19394105.85249 -14857587.26047  21290950.702    21290958.967
  22296530.158   -14417450.16449 -11226643.34746  22296529.824    22296537.102
 03  3 26 19 16  0.0000000  0  6G30G17G24G 5G10G 6
  20374212.280   -23163224.35949 -18031023.75148  20374212.366    20374218.614
  24393289.258    -4814518.57149  -3714812.01145  24393288.608    24393301.898
  22259425.535     7251916.77049   5655905.72847  22259425.171    22259433.449
  20584601.767    -7550097.40249  -5867137.05448  20584601.047    20584608.191
  21282759.549   -19437155.68949 -14891132.54447  21282758.543    21282766.757
  22284870.696   -14478720.80849 -11274386.67346  22284870.345    22284877.653
 03  3 26 19 16 30.0000000  0  6G30G17G24G 5G10G 6
  20368750.436   -23191926.41849 -18053388.99848  20368750.537    20368756.771
  24376467.255    -4902917.85849  -3783694.44345  24376466.653    24376479.953
  22274280.124     7329977.95249   5716732.57347  22274279.757    22274288.032
  20593036.951    -7505770.38049  -5832596.56048  20593036.238    20593043.380
  21274675.296   -19479638.64249 -14924236.10247  21274674.290    21274682.477
  22273226.325   -14539912.20449 -11322068.25046  22273225.937    22273233.313
 03  3 26 19 17  0.0000000  0  6G30G17G24G 5G10G 6
  20363391.492   -23220088.00949 -18075333.10448  20363391.587    20363397.825
  24359676.123    -4991155.63949  -3852451.02945  24359675.528    24359688.655
  22289164.249     7408194.51449   5777680.49147  22289163.883    22289172.188
  20601568.205    -7460938.65549  -5797662.79148  20601567.492    20601574.629
  21266699.252   -19521552.64649 -14956896.32147  21266698.261    21266706.451
  22261597.130   -14601023.46649 -11369687.38247  22261596.757    22261604.202
 03  3 26 19 17 30.0000000  0  6G30G17G24G 5G10G 6
  20358135.575   -23247708.08449 -18096855.24348  20358135.656    20358141.887
  24342915.874    -5079231.04849  -3921081.08845  24342915.241    24342928.358
  22304077.529     7486564.04849   5838747.62247  22304077.169    22304085.488
  20610195.242    -7415603.57449  -5762336.80048  20610194.519    20610201.672
  21258831.829   -19562896.04049 -14989111.91947  21258830.838    21258839.018
  22249983.197   -14662054.47249 -11417243.97947  22249982.847    22249990.355
 03  3 26 19 18  0.0000000  0  6G30G17G24G 5G10G 6
  20352982.947   -23274785.27749 -18117954.35648  20352983.033    20352989.253
  24326186.755    -5167143.10749  -3989583.85445  24326186.162    24326199.254
  22319019.505     7565084.48049   5899932.33747  22319019.134    22319027.481
  20618917.792    -7369766.27849  -5726619.47048  20618917.081    20618924.248
  21251073.327   -19603667.13249 -15020881.56847  21251072.329    21251080.486
  22238384.665   -14723004.73349 -11464737.64447  22238384.307    22238391.881
 03  3 26 19 18 30.0000000  0  6G30G17G24G 5G10G 6
  20347933.967   -23301317.79449 -18138629.04848  20347934.048    20347940.279
  24309488.794    -5254891.01449  -4057958.69845  24309488.192    24309501.315
  22333989.834     7643753.94349   5961233.17147  22333989.441    22333997.824
  20627735.798    -7323427.44749  -5690511.33448  20627735.076    20627742.269
  21243424.190   -19643863.57949 -15052203.44147  21243423.194    21243431.316
  22226801.639   -14783873.49649 -11512167.81147  22226801.316    22226808.919
 03  3 26 19 19  0.0000000  0  6G30G17G24G 5G10G 6
  20342988.910   -23327304.24149 -18158878.23048  20342989.002    20342995.184
  24292822.356    -5342473.12949  -4126204.35545  24292821.790    24292834.902
  22348988.214     7722570.85749   6022648.89947  22348987.828    22348996.244
  20636649.105    -7276587.91549  -5654013.04248  20636648.395    20636655.604
  21235884.737   -19683483.65949 -15083076.19847  21235883.744    21235891.856
  22215234.285   -14844659.96449 -11559533.83947  22215233.944    22215241.603
 03  3 26 19 19 30.0000000  0  6G30G17G24G 5G10G 6
  20338148.078   -23352743.23049 -18178700.82048  20338148.163    20338154.331
  24276187.605    -5429888.69549  -4194320.23245  24276186.996    24276200.063
  22364014.262     7801533.09149   6084177.87446  22364013.885    22364022.322
  20645657.476    -7229248.76349  -5617125.43548  20645656.759    20645663.960
  21228455.343   -19722525.40749 -15113498.30747  21228454.337    21228462.441
  22203682.717   -14905363.51049 -11606835.25847  22203682.391    22203690.099
 03  3 26 19 20  0.0000000  0  6G30G17G24G 5G10G 6
  20333411.668   -23377633.36249 -18198095.73048  20333411.752    20333417.878
  24259584.721    -5517136.66049  -4262305.52145  24259584.090    24259597.191
  22379067.653     7880638.98449   6145818.77946  22379067.284    22379075.741
  20654760.751    -7181411.03749  -5579849.33148  20654760.027    20654767.229
  21221136.335   -19760987.06449 -15143468.39647  21221135.324    21221143.446
  22192147.096   -14965983.53949 -11654071.60347  22192146.757    22192154.498
 03  3 26 19 20 30.0000000  0  6G30G17G24G 5G10G 6
  20328779.844   -23401973.70449 -18217062.23048  20328779.919    20328786.029
  24243013.843    -5604216.36349  -4330159.67545  24243013.262    24243026.333
  22394147.854     7959885.90349   6207569.58446  22394147.464    22394155.988
  20663958.603    -7133076.29449  -5542185.93648  20663957.879    20663965.073
  21213927.945   -19798867.06649 -15172985.24347  21213926.954    21213935.093
  22180627.423   -15026519.80949 -11701242.67947  22180627.072    22180634.789
 03  3 26 19 21  0.0000000  0  6G30G17G24G 5G10G 6
  20324253.008   -23425762.39249 -18235598.87548  20324253.072    20324259.213
  24226475.237    -5691126.73849  -4397881.90745  24226474.651    24226487.669
  22409254.616     8039272.33349   6269429.09146  22409254.236    22409262.846
  20673250.889    -7084245.32749  -5504135.88248  20673250.167    20673257.372
  21206830.682   -19836163.32849 -15202047.23047  21206829.687    21206837.866
  22169123.892   -15086971.22349 -11748347.63647  22169123.515    22169131.240
 03  3 26 19 21 30.0000000  0  6G30G17G24G 5G10G 6
  20319831.265   -23448998.68149 -18253705.07748  20319831.353    20319837.501
  24209968.978    -5777867.17349  -4465471.71845  24209968.318    24209981.263
  22424387.478     8118796.07449   6331395.58846  22424387.100    22424395.784
  20682637.304    -7034919.72549  -5465700.39648  20682636.568    20682643.772
  21199844.720   -19872874.61649 -15230653.40147  21199843.714    21199851.867
  22157636.537   -15147337.75649 -11795386.44947  22157636.148    22157643.855
 03  3 26 19 22  0.0000000  0  6G30G17G24G 5G10G 6
  20315514.912   -23471681.36749 -18271379.89848  20315514.992    20315521.151
  24193495.208    -5864436.86949  -4532928.49245  24193494.512    24193507.423
  22439546.062     8198455.06949   6393467.48946  22439545.676    22439554.453
  20692117.685    -6985100.48749  -5426880.25748  20692116.945    20692124.121
  21192970.344   -19908999.44749 -15258802.58747  21192969.333    21192977.471
  22146165.443   -15207618.79449 -11842358.64147  22146165.069    22146172.736
 03  3 26 19 22 30.0000000  0  6G30G17G24G 5G10G 6
  20311304.230   -23493808.63449 -18288621.92648  20311304.307    20311310.494
  24177054.251    -5950834.15849  -4600250.92845  24177053.584    24177066.418
  22454730.107     8278247.71549   6455643.54146  22454729.714    22454738.563
  20701691.801    -6934788.33849  -5387676.02848  20701691.057    20701698.227
  21186208.029   -19944535.43149 -15286492.93647  21186207.014    21186215.155
  22134710.793   -15267813.27449 -11889263.40147  22134710.419    22134718.096
 03  3 26 19 23  0.0000000  0  6G30G17G24G 5G10G 6
  20307199.478   -23515379.32449 -18305430.26048  20307199.558    20307205.760
  24160646.233    -6037058.51049  -4667438.60845  24160645.603    24160658.364
  22469939.149     8358171.70149   6517921.92946  22469938.765    22469947.659
  20711359.427    -6883984.75449  -5348088.86548  20711358.695    20711365.871
  21179558.058   -19979481.08649 -15313723.29047  21179557.038    21179565.181
  22123272.734   -15327920.61449 -11936100.25547  22123272.337    22123280.017
 03  3 26 19 23 30.0000000  0  6G30G17G24G 5G10G 6
  20303200.749   -23536392.69049 -18321804.31348  20303200.827    20303207.036
  24144271.324    -6123108.89049  -4734490.73045  24144270.580    24144283.360
  22485172.809     8438225.08649   6580301.14946  22485172.449    22485181.339
  20721120.252    -6832691.24249  -5308119.94048  20721119.507    20721126.718
  21173020.660   -20013835.07649 -15340492.60547  21173019.654    21173027.774
  22111851.315   -15387940.42149 -11982868.90147  22111850.924    22111858.632
 03  3 26 19 24  0.0000000  0  6G30G17G24G 5G10G 6
  20299308.379   -23556847.12349 -18337742.83148  20299308.451    20299314.674
  24127929.654    -6208984.55949  -4801406.71445  24127928.863    24127941.648
  22500430.777     8518406.04549   6642779.77246  22500430.396    22500439.294
  20730974.161    -6780908.61449  -5267769.89048  20730973.436    20730980.656
  21166596.209   -20047595.70349 -15366799.57047  21166595.201    21166603.297
  22100446.732   -15447871.78049 -12029568.63147  22100446.369    22100454.078
 03  3 26 19 24 30.0000000  0  6G30G17G24G 5G10G 6
  20295522.667   -23576741.27049 -18353244.76448  20295522.742    20295528.943
  24111621.437    -6294684.42149  -4868185.71345  24111620.693    24111633.350
  22515712.759     8598713.24949   6705356.76346  22515712.407    22515721.289
  20740920.947    -6728638.14949  -5227039.70048  20740920.220    20740927.442
  21160284.980   -20080761.46849 -15392643.00547  21160283.970    21160292.025
  22089059.040   -15507714.10749 -12076198.98547  22089058.683    22089066.414
 03  3 26 19 25  0.0000000  0  6G30G17G24G 5G10G 6
  20291843.713   -23596074.42349 -18368309.55948  20291843.789    20291849.968
  24095346.819    -6380207.64249  -4934827.06045  24095346.029    24095358.722
  22531018.248     8679144.04149   6768030.05446  22531017.881    22531026.741
  20750960.279    -6675881.30949  -5185930.52048  20750959.540    20750966.781
  21154087.218   -20113330.77249 -15418021.67047  21154086.201    21154094.235
  22077688.430   -15567466.92149 -12122759.58847  22077688.075    22077695.809
 03  3 26 19 25 30.0000000  0  6G30G17G24G 5G10G 6
  20288271.734   -23614845.35749 -18382936.26448  20288271.812    20288277.972
  24079106.144    -6465552.83849  -5001329.68345  24079105.422    24079117.904
  22546346.953     8759696.67049   6830798.27846  22546346.599    22546355.400
  20761091.910    -6622639.19349  -5144443.20948  20761091.166    20761098.453
  21148003.259   -20145302.22549 -15442934.47747  21148002.253    21148010.250
  22066335.016   -15627129.41949 -12169249.81147  22066334.684    22066342.350
 03  3 26 19 26  0.0000000  0  6G30G17G24G 5G10G 6
  20284806.915   -23633053.14549 -18397124.15348  20284806.990    20284813.164
  24062899.292    -6550720.08749  -5067693.65145  24062898.552    24062911.068
  22561698.462     8840368.99249   6893659.79046  22561698.091    22561706.841
  20771315.621    -6568913.35249  -5102578.96748  20771314.888    20771322.187
  21142033.317   -20176674.40349 -15467380.31347  21142032.316    21142040.313
  22054998.887   -15686701.19849 -12215669.35047  22054998.532    22055006.160
 03  3 26 19 26 30.0000000  0  6G30G17G24G 5G10G 6
  20281449.452   -23650696.62949 -18410872.32548  20281449.535    20281455.685
  24046726.547    -6635708.11349  -5133917.97945  24046725.808    24046738.297
  22577072.483     8921159.42449   6956613.33246  22577072.118    22577080.714
  20781631.166    -6514705.02649  -5060338.76148  20781630.427    20781637.762
  21136177.702   -20207445.97549 -15491358.14247  21136176.689    21136184.702
  22043680.178   -15746181.57649 -12262017.67147  22043679.808    22043687.369
 03  3 26 19 27  0.0000000  0  6G30G17G24G 5G10G 6
  20278199.692   -23667774.34449 -18424179.64148  20278199.764    20278205.921
  24030588.001    -6720516.13349  -5200002.03645  24030587.280    24030599.809
  22592468.625     9002066.18249   7019657.50246  22592468.239    22592476.720
  20792038.274    -6460015.44549  -5017723.55348  20792037.522    20792044.891
  21130436.753   -20237614.84149 -15514866.33347  21130435.724    21130443.764
  22032379.104   -15805569.29949 -12308293.78447  22032378.732    22032386.219
 03  3 26 19 27 30.0000000  0  6G30G17G24G 5G10G 6
  20275057.758   -23684285.39749 -18437045.40348  20275057.850    20275064.004
  24014483.925    -6805143.21349  -5265945.09845  24014483.239    24014495.735
  22607886.581     9083087.43649   7082790.88846  22607886.186    22607894.570
  20802536.624    -6404846.12749  -4974734.52448  20802535.884    20802543.329
  21124810.735   -20267179.82549 -15537903.97547  21124809.718    21124817.743
  22021095.669   -15864863.94949 -12354497.37647  22021095.323    22021102.749
 03  3 26 19 28  0.0000000  0  6G30G17G24G 5G10G 6
  20272023.820   -23700228.66549 -18449468.73648  20272023.910    20272030.114
  23998414.435    -6889588.14949  -5331746.23745  23998413.774    23998426.290
  22623325.890     9164221.19149   7146011.94046  22623325.468    22623333.835
  20813126.085    -6349198.17749  -4931372.53348  20813125.363    20813132.849
  21119299.913   -20296139.47449 -15560469.92147  21119298.884    21119306.880
  22009830.138   -15924064.72149 -12400627.81847  22009829.802    22009837.212
 03  3 26 19 28 30.0000000  0  6G30G17G24G 5G10G 6
  20269098.142   -23715603.25749 -18461448.94548  20269098.235    20269104.456
  23982379.775    -6973850.24149  -5397404.89845  23982379.065    23982391.709
  22638786.307     9245465.73349   7209319.31546  22638785.844    22638794.223
  20823806.383    -6293073.12349  -4887638.77648  20823805.669    20823813.178
  21113904.523   -20324492.52949 -15582563.19847  21113903.489    21113911.468
  21998582.573   -15983170.96849 -12446684.60147  21998582.219    21998589.597
 03  3 26 19 29  0.0000000  0  6G30G17G24G 5G10G 6
  20266280.879   -23730408.09749 -18472985.19248  20266280.966    20266287.198
  23966380.087    -7057928.59949  -5462920.38245  23966379.421    23966391.972
  22654267.400     9326819.40949   7272711.72946  22654266.987    22654275.381
  20834577.205    -6236472.20349  -4843534.21448  20834576.483    20834583.982
  21108624.730   -20352237.72149 -15604182.80847  21108623.684    21108631.661
  21987353.214   -16042181.68749 -12492666.94747  21987352.862    21987360.187
 03  3 26 19 29 30.0000000  0  6G30G17G24G 5G10G 6
  20263572.214   -23744642.36149 -18484076.83848  20263572.311    20263578.518
  23950415.420    -7141822.93749  -5528292.48545  23950414.753    23950427.269
  22669768.886     9408280.15449   7336187.58746  22669768.476    22669776.911
  20845438.300    -6179397.13849  -4799060.18548  20845437.584    20845445.082
  21103460.872   -20379373.74749 -15625327.73847  21103459.829    21103467.809
  21976142.053   -16101096.54949 -12538574.59947  21976141.704    21976148.967
 03  3 26 19 30  0.0000000  0  6G30G17G24G 5G10G 6
  20260972.310   -23758305.02349 -18494723.08048  20260972.401    20260978.616
  23934486.101    -7225531.99649  -5593520.22145  23934485.441    23934497.785
  22685290.359     9489846.12649   7399745.43146  22685289.971    22685298.463
  20856389.387    -6121849.08349  -4754217.60148  20856388.672    20856396.169
  21098413.201   -20405899.28449 -15645996.96047  21098412.163    21098420.160
  21964949.322   -16159914.65049 -12584406.85547  21964948.982    21964956.168
 03  3 26 19 30 30.0000000  0  6G30G17G24G 5G10G 6
  20258481.297   -23771395.25849 -18504923.27448  20258481.385    20258487.599
  23918592.115    -7309055.27349  -5658603.17945  23918591.444    23918603.685
  22700831.468     9571515.16249   7463383.57846  22700831.071    22700839.678
  20867430.136    -6063829.83749  -4709007.85048  20867429.419    20867436.910
  21093481.911   -20431813.41449 -15666189.75747  21093480.887    21093488.843
  21953775.175   -16218635.20849 -12630163.10047  21953774.818    21953781.966
 03  3 26 19 31  0.0000000  0  6G30G17G24G 5G10G 6
  20256099.427   -23783912.06349 -18514676.64048  20256099.514    20256105.725
  23902733.677    -7392391.45049  -5723540.34745  23902733.013    23902745.227
  22716391.872     9653285.85649   7527100.93546  22716391.479    22716400.179
  20878560.325    -6005340.68049  -4663431.93148  20878559.604    20878567.062
  21088667.255   -20457114.47849 -15685904.83847  21088666.220    21088674.193
  21942619.651   -16277257.43349 -12675842.72347  21942619.301    21942626.452
 03  3 26 19 31 30.0000000  0  6G30G17G24G 5G10G 6
  20253826.858   -23795854.36649 -18523982.34448  20253826.937    20253833.133
  23886910.968    -7475539.98349  -5788331.29145  23886910.236    23886922.405
  22731971.333     9735156.52849   7590896.19946  22731970.924    22731979.770
  20889779.671    -5946382.91249  -4617490.86348  20889778.947    20889786.387
  21083969.427   -20481801.48149 -15705141.43247  21083968.413    21083976.396
  21931483.025   -16335780.36449 -12721444.97547  21931482.681    21931489.923
 03  3 26 19 32  0.0000000  0  6G30G17G24G 5G10G 6
  20251663.778   -23807221.47849 -18532839.84548  20251663.855    20251670.050
  23871124.150    -7558499.84349  -5852975.22745  23871123.466    23871135.503
  22747569.426     9817125.24249   7654767.86046  22747569.035    22747577.946
  20901087.878    -5886958.16649  -4571185.92248  20901087.148    20901094.580
  21079388.724   -20505873.19849 -15723898.57447  21079387.704    21079395.685
  21920365.441   -16394203.33549 -12766969.33947  21920365.117    21920372.401
 03  3 26 19 32 30.0000000  0  6G30G17G24G 5G10G 6
  20249610.214   -23818012.89349 -18541248.74948  20249610.297    20249616.486
  23855373.231    -7641270.98949  -5917472.10845  23855372.549    23855384.571
  22763185.877     9899189.90549   7718714.28946  22763185.485    22763194.396
  20912484.624    -5827068.20649  -4524518.47348  20912483.888    20912491.318
  21074925.279   -20529328.66649 -15742175.51947  21074924.254    21074932.244
  21909266.989   -16452525.88049 -12812415.44147  21909266.650    21909274.028
 03  3 26 19 33  0.0000000  0  6G30G17G24G 5G10G 6
  20247666.468   -23828227.39049 -18549208.10948  20247666.572    20247672.754
  23839658.502    -7723851.91949  -5981820.75145  23839657.798    23839669.865
  22778820.237     9981349.00449   7782734.29846  22778819.861    22778828.762
  20923969.610    -5766714.32149  -4477489.52648  20923968.878    20923976.314
  21070579.297   -20552166.54849 -15759971.23147  21070578.282    21070586.281
  21898187.866   -16510747.07049 -12857782.56447  21898187.530    21898194.925
 03  3 26 19 33 30.0000000  0  6G30G17G24G 5G10G 6
  20245832.651   -23837864.37049 -18556717.45648  20245832.752    20245838.913
  23823980.074    -7806241.92049  -6046020.62845  23823979.462    23823991.459
  22794472.334    10063600.97449   7846826.67146  22794471.965    22794480.853
  20935542.567    -5705898.27049  -4430100.45148  20935541.846    20935549.270
  21066351.003   -20574386.03349 -15777285.07547  21066349.979    21066357.969
  21887128.203   -16568866.17349 -12903070.14147  21887127.857    21887135.215
 03  3 26 19 34  0.0000000  0  6G30G17G24G 5G10G 6
  20244108.814   -23846923.26649 -18563776.34848  20244108.905    20244115.084
  23808338.083    -7888440.58849  -6110071.40545  23808337.451    23808349.358
  22810141.687    10145943.61649   7910989.69446  22810141.317    22810150.138
  20947203.142    -5644621.68749  -4382352.52148  20947202.413    20947209.846
  21062240.658   -20595985.94049 -15794116.13047  21062239.625    21062247.591
  21876088.099   -16626882.43249 -12948277.58747  21876087.730    21876095.042
 03  3 26 19 34 30.0000000  0  6G30G17G24G 5G10G 6
  20242495.155   -23855403.30249 -18570384.18148  20242495.242    20242501.412
  23792732.690    -7970446.88449  -6173972.27845  23792731.995    23792743.947
  22825828.038    10228375.23149   7975222.05346  22825827.628    22825836.398
  20958951.023    -5582886.28649  -4334247.07148  20958950.290    20958957.757
  21058248.327   -20616965.61849 -15810463.88547  21058247.299    21058255.274
  21865067.644   -16684795.27649 -12993404.44247  21865067.279    21865074.564
 03  3 26 19 35  0.0000000  0  6G30G17G24G 5G10G 6
  20240991.811   -23863303.71449 -18576540.35748  20240991.893    20240998.048
  23777163.964    -8052260.42249  -6237722.94045  23777163.313    23777175.226
  22841530.964    10310894.05149   8039522.37146  22841530.557    22841539.278
  20970785.925    -5520693.50849  -4285785.22248  20970785.197    20970792.697
  21054374.255   -20637323.79249 -15826327.35047  21054373.221    21054381.210
  21854067.044   -16742603.58649 -13038449.84347  21854066.704    21854073.963
 03  3 26 19 35 30.0000000  0  6G30G17G24G 5G10G 6
  20239598.901   -23870623.62349 -18582244.19648  20239598.987    20239605.156
  23761632.122    -8133880.31049  -6301322.69245  23761631.435    23761643.353
  22857250.167    10393498.45149   8103889.37646  22857249.735    22857258.460
  20982707.636    -5458044.90449  -4236968.19048  20982706.914    20982714.419
  21050618.722   -20657059.30949 -15841705.62947  21050617.691    21050625.653
  21843086.498   -16800306.52749 -13083413.14647  21843086.156    21843093.413
 03  3 26 19 36  0.0000000  0  6G30G17G24G 5G10G 6
  20238316.545   -23877362.45049 -18587495.23948  20238316.615    20238322.836
  23746137.258    -8215305.96049  -6364771.10445  23746136.552    23746148.440
  22872985.314    10476186.81649   8168321.81346  22872984.882    22872993.550
  20994715.705    -5394942.29349  -4187797.38148  20994714.981    20994722.513
  21046981.713   -20676171.58749 -15856598.26447  21046980.689    21046988.627
  21832126.160   -16857903.32749 -13128293.73547  21832125.824    21832133.087
 03  3 26 19 36 30.0000000  0  6G30G17G24G 5G10G 6
  20237144.864   -23883519.61949 -18592293.04248  20237144.926    20237151.158
  23730679.573    -8296536.29549  -6428067.31145  23730678.783    23730690.678
  22888736.122    10558957.65549   8232818.49946  22888735.698    22888744.371
  21006809.897    -5331387.10349  -4138273.91547  21006809.159    21006816.749
  21043463.549   -20694659.43749 -15871004.33847  21043462.534    21043470.458
  21821186.183   -16915393.04949 -13173090.88947  21821185.848    21821193.126
 03  3 26 19 37  0.0000000  0  6G30G17G24G 5G10G 6
  20236084.025   -23889094.41849 -18596637.05248  20236084.090    20236090.350
  23715259.136    -8377570.77649  -6491210.90945  23715258.349    23715270.160
  22904502.169    10641808.73249   8297377.71346  22904501.713    22904510.414
  21018989.830    -5267381.18349  -4088399.23247  21018989.097    21018996.721
  21040064.361   -20712522.14849 -15884923.29047  21040063.347    21040071.241
  21810266.738   -16972774.92049 -13217804.00247  21810266.417    21810273.695
 03  3 26 19 37 30.0000000  0  6G30G17G24G 5G10G 6
  20235134.103   -23894086.26649 -18600526.81648  20235134.168    20235140.441
  23699876.057    -8458408.75549  -6554201.39145  23699875.298    23699887.091
  22920283.261    10724738.93449   8361998.58146  22920282.838    22920291.558
  21031255.230    -5202926.06849  -4038174.53047  21031254.515    21031262.163
  21036784.373   -20729758.84249 -15898354.44147  21036783.358    21036791.194
  21799368.047   -17030047.90049 -13262432.27347  21799367.722    21799375.010
 03  3 26 19 38  0.0000000  0  6G30G17G24G 5G10G 6
  20234295.251   -23898494.54149 -18603961.85148  20234295.309    20234301.602
  23684530.632    -8539049.04949  -6617037.83445  23684529.862    23684541.669
  22936078.987    10807746.19149   8426679.48946  22936078.593    22936087.341
  21043605.832    -5138023.48649  -3987601.14847  21043605.105    21043612.791
  21033623.664   -20746368.58949 -15911297.06347  21033622.636    21033630.417
  21788490.204   -17087211.26049 -13306975.12747  21788489.872    21788497.155
 03  3 26 19 38 30.0000000  0  6G30G17G24G 5G10G 6
  20233567.498   -23902318.85149 -18606941.84748  20233567.573    20233573.873
  23669222.783    -8619491.53449  -6679720.14145  23669222.039    23669233.842
  22951889.129    10890828.91949   8491419.22746  22951888.748    22951897.554
  21056041.222    -5072675.24249  -3936680.49847  21056040.506    21056048.213
  21030582.290   -20762350.96549 -15923750.83047  21030581.262    21030589.024
  21777633.346   -17144264.27949 -13351431.99647  21777633.008    21777640.266
 03  3 26 19 39  0.0000000  0  6G30G17G24G 5G10G 6
  20232951.058   -23905558.48749 -18609466.25448  20232951.129    20232957.418
  23653952.803    -8699735.02449  -6742247.39846  23653952.060    23653963.883
  22967713.330    10973985.38049   8556216.40446  22967712.953    22967721.804
  21068561.152    -5006882.87549  -3885413.77847  21068560.429    21068568.166
  21027660.555   -20777704.69849 -15935714.75047  21027659.524    21027667.277
  21766797.685   -17201206.05149 -13395802.19247  21766797.340    21766804.583
 03  3 26 19 39 30.0000000  0  6G30G17G24G 5G10G 6
  20232445.876   -23908213.12149 -18611534.81448  20232445.949    20232452.254
  23638720.740    -8779779.39949  -6804619.50146  23638720.025    23638731.742
  22983551.199    11057213.38649   8621069.34146  22983550.789    22983559.652
  21081165.185    -4940648.47849  -3833802.61947  21081164.443    21081172.219
  21024858.507   -20792429.35649 -15947188.48447  21024857.484    21024865.235
  21755983.343   -17258035.78949 -13440085.08647  21755982.996    21755990.194
 03  3 26 19 40  0.0000000  0  6G30G17G24G 5G10G 6
  20232052.120   -23910282.36049 -18613147.22648  20232052.212    20232058.496
  23623526.841    -8859623.68549  -6866835.69646  23623526.094    23623537.829
  22999402.430    11140511.71049   8685977.04846  22999402.015    22999410.936
  21093852.985    -4873973.91649  -3781848.47647  21093852.250    21093860.035
  21022176.255   -20806524.43849 -15958171.65047  21022175.251    21022182.994
  21745190.483   -17314752.58549 -13484279.97047  21745190.118    21745197.314
 03  3 26 19 40 30.0000000  0  6G30G17G24G 5G10G 6
  20231769.876   -23911765.84649 -18614303.20248  20231769.957    20231776.206
  23608370.982    -8939267.66249  -6928895.80746  23608370.266    23608381.982
  23015266.723    11223878.79049   8750938.33646  23015266.323    23015275.277
  21106624.258    -4806860.80349  -3729552.59947  21106623.518    21106631.320
  21019613.976   -20819989.13149 -15968663.60247  21019612.965    21019620.681
  21734419.276   -17371355.63149 -13528386.22147  21734418.915    21734426.140
 03  3 26 19 41  0.0000000  0  6G30G17G24G 5G10G 6
  20231599.205   -23912662.78849 -18615002.13448  20231599.275    20231605.512
  23593253.454    -9018710.43349  -6990799.13746  23593252.661    23593264.467
  23031143.809    11307313.11649   8815952.01646  23031143.441    23031152.411
  21119478.657    -4739310.61249  -3676916.14647  21119477.920    21119485.729
  21017171.817   -20832822.57249 -15978663.67647  21017170.805    21017178.521
  21723669.954   -17427843.72449 -13572402.90247  21723669.577    21723676.817
 03  3 26 19 41 30.0000000  0  6G30G17G24G 5G10G 6
  20231540.244   -23912972.79349 -18615243.71248  20231540.316    20231546.552
  23578174.384    -9097951.01749  -7052544.92846  23578173.590    23578185.360
  23047033.366    11390812.95349   8881016.75746  23047033.031    23047042.018
  21132415.847    -4671325.28249  -3623940.62747  21132415.133    21132422.969
  21014849.893   -20845024.27249 -15988171.48647  21014848.883    21014856.611
  21712942.656   -17484215.88149 -13616329.24147  21712942.273    21712949.557
 03  3 26 19 42  0.0000000  0  6G30G17G24G 5G10G 6
  20231592.982   -23912695.63249 -18615027.75548  20231593.060    20231599.287
  23563133.846    -9176989.00049  -7114132.83946  23563133.033    23563144.787
  23062935.081    11474376.73249   8946131.33046  23062934.732    23062943.780
  21145435.459    -4602906.78149  -3570627.57447  21145434.740    21145442.609
  21012648.268   -20856593.74249 -15997186.64947  21012647.257    21012655.030
  21702237.558   -17540471.36649 -13660164.66647  21702237.194    21702244.529
 03  3 26 19 42 30.0000000  0  6G30G17G24G 5G10G 6
  20231757.595   -23911830.73049 -18614353.81848  20231757.666    20231763.890
  23548131.957    -9255823.65149  -7175562.32146  23548131.148    23548142.937
  23078848.696    11558002.94949   9011294.54146  23078848.326    23078857.379
  21158537.221    -4534056.88749  -3516978.37347  21158536.500    21158544.369
  21010567.133   -20867530.07449 -16005708.45647  21010566.108    21010573.939
  21691554.847   -17596609.13049 -13703908.36147  21691554.509    21691561.872
 03  3 26 19 43  0.0000000  0  6G30G17G24G 5G10G 6
  20232034.043   -23910377.88949 -18613221.74948  20232034.114    20232040.346
  23533168.896    -9334454.31149  -7236832.85046  23533168.107    23533179.821
  23094773.784    11641689.62949   9076504.86646  23094773.471    23094782.519
  21171720.689    -4464777.49549  -3462994.49747  21171719.963    21171727.831
  21008606.505   -20877832.84849 -16013736.57647  21008605.485    21008613.376
  21680894.722   -17652628.44549 -13747559.76047  21680894.359    21680901.742
 03  3 26 19 43 30.0000000  0  6G30G17G24G 5G10G 6
  20232422.495   -23908336.69449 -18611631.22448  20232422.565    20232428.773
  23518244.767    -9412880.44749  -7297944.02346  23518244.009    23518255.649
  23110710.196    11725435.31749   9141761.15646  23110709.888    23110718.887
  21184985.547    -4395070.42749  -3408677.36947  21184984.820    21184992.719
  21006766.532   -20887501.69949 -16021270.73847  21006765.539    21006773.449
  21670257.357   -17708528.09749 -13791117.91547  21670256.993    21670264.368
 03  3 26 19 44  0.0000000  0  6G30G17G24G 5G10G 6
  20232922.932   -23905706.84949 -18609582.01248  20232923.009    20232929.240
  23503359.692    -9491101.49349  -7358895.36346  23503358.974    23503370.510
  23126657.517    11809238.58349   9207062.34546  23126657.188    23126666.209
  21198331.454    -4324937.56449  -3354028.45647  21198330.731    21198338.653
  21005047.352   -20896536.12049 -16028310.54847  21005046.349    21005054.241
  21659642.920   -17764307.26549 -13834582.18347  21659642.542    21659649.917
 03  3 26 19 44 30.0000000  0  6G30G17G24G 5G10G 6
  20233535.419   -23902488.25649 -18607074.03648  20233535.485    20233541.761
  23488513.784    -9569116.85049  -7419686.45246  23488513.071    23488524.527
  23142615.505    11893098.15249   9272407.39246  23142615.151    23142624.187
  21211757.929    -4254381.03149  -3299049.40947  21211757.216    21211765.160
  21003448.979   -20904935.81849 -16034855.76547  21003447.966    21003455.821
  21649051.523   -17819965.26549 -13877952.03547  21649051.154    21649058.525
 03  3 26 19 45  0.0000000  0  6G30G17G24G 5G10G 6
  20234259.969   -23898680.75149 -18604107.16848  20234260.053    20234266.350
  23473707.091    -9646925.96449  -7480316.81646  23473706.352    23473717.795
  23158583.782    11977011.83549   9337794.60446  23158583.446    23158592.475
  21225264.704    -4183402.68949  -3243741.68047  21225263.986    21225271.973
  21001971.417   -20912700.39949 -16040906.08647  21001970.398    21001978.240
  21638483.363   -17875501.18449 -13921226.75847  21638482.990    21638490.338
 03  3 26 19 45 30.0000000  0  6G30G17G24G 5G10G 6
  20235096.651   -23894284.02149 -18600681.16548  20235096.724    20235103.030
  23458939.845    -9724528.08649  -7540785.89646  23458939.055    23458950.483
  23174562.079    12060978.10349   9403222.78646  23174561.695    23174570.776
  21238851.417    -4112004.20549  -3188106.57347  21238850.699    21238858.701
  21000614.845   -20919829.21049 -16046461.00347  21000613.828    21000621.636
  21627938.704   -17930913.61949 -13964405.25247  21627938.330    21627945.643
 03  3 26 19 46  0.0000000  0  6G30G17G24G 5G10G 6
  20236045.551   -23889297.67849 -18596795.72648  20236045.627    20236051.922
  23444212.060    -9801922.59649  -7601093.19046  23444211.291    23444222.649
  23190550.130    12144995.77649   9468691.03046  23190549.766    23190558.825
  21252517.763    -4040187.44449  -3132145.53147  21252517.038    21252525.054
  20999379.373   -20926321.70149 -16051520.08347  20999378.363    20999386.120
  21617417.694   -17986201.61449 -14007486.78147  21617417.333    21617424.614
 03  3 26 19 46 30.0000000  0  6G30G17G24G 5G10G 6
  20237106.681   -23883721.46149 -18592450.64248  20237106.772    20237113.077
  23429523.855    -9879108.88249  -7661238.23946  23429523.118    23429534.437
  23206547.636    12229063.37049   9534198.17546  23206547.281    23206556.422
  21266263.371    -3967954.04449  -3075859.83847  21266262.633    21266270.657
  20998265.036   -20932177.51249 -16056083.05047  20998264.024    20998271.780
  21606920.633   -18041364.04449 -14050470.46747  21606920.270    21606927.506
 03  3 26 19 47  0.0000000  0  6G30G17G24G 5G10G 6
  20238280.070   -23877555.40649 -18587645.94748  20238280.150    20238286.484
  23414875.391    -9956086.40149  -7721220.60446  23414874.690    23414885.985
  23222554.351    12313179.21849   9599742.90846  23222554.000    23222563.234
  21280087.838    -3895306.25149  -3019251.24347  21280087.122    21280095.154
  20997271.899   -20937396.58149 -16060149.85247  20997270.892    20997278.630
  21596447.593   -18096400.09449 -14093355.67647  21596447.231    21596454.431
 03  3 26 19 47 30.0000000  0  6G30G17G24G 5G10G 6
  20239565.660   -23870799.54349 -18582381.66248  20239565.740    20239572.098
  23400266.729   -10032855.03649  -7781040.20446  23400266.013    23400277.270
  23238570.030    12397341.97649   9665324.20746  23238569.713    23238578.996
  21293990.773    -3822246.19549  -2962321.40447  21293990.047    21293998.094
  20996399.958   -20941978.73849 -16063720.34947  20996398.955    20996406.694
  21585998.784   -18151308.93549 -14136141.76547  21585998.424    21586005.597
 03  3 26 19 48  0.0000000  0  6G30G17G24G 5G10G 6
  20240963.526   -23863453.82149 -18576657.74848  20240963.612    20240969.995
  23385697.927   -10109414.10949  -7840696.51146  23385697.229    23385708.465
  23254594.324    12481550.01849   9730940.78146  23254594.019    23254603.335
  21307971.767    -3748776.05349  -2905072.02047  21307971.039    21307979.078
  20995649.199   -20945923.97449 -16066794.54847  20995648.185    20995655.942
  21575574.321   -18206089.70049 -14178828.05847  21575573.981    21575581.158
 03  3 26 19 48 30.0000000  0  6G30G17G24G 5G10G 6
  20242473.577   -23855518.29549 -18570474.24948  20242473.667    20242480.084
  23371169.205   -10185762.82549  -7900188.88946  23371168.478    23371179.709
  23270626.880    12565801.24749   9796591.00446  23270626.541    23270635.944
  21322030.355    -3674897.84549  -2847504.66247  21322029.646    21322037.689
  20995019.670   -20949232.21149 -16069372.37947  20995018.681    20995026.389
  21565174.398   -18260741.40849 -14221413.78247  21565174.071    21565181.261
 03  3 26 19 49  0.0000000  0  6G30G17G24G 5G10G 6
  20244095.918   -23846992.87349 -18563831.08948  20244096.014    20244102.430
  23356680.553   -10261900.79949  -7959517.04946  23356679.797    23356691.050
  23286667.497    12650094.59549   9862274.03946  23286667.165    23286676.570
  21336166.203    -3600613.76049  -2789621.03747  21336165.490    21336173.538
  20994511.412   -20951903.12149 -16071453.59347  20994510.423    20994518.128
  21554799.283   -18315262.85149 -14263898.00747  21554798.953    21554806.192
 03  3 26 19 49 30.0000000  0  6G30G17G24G 5G10G 6
  20245830.506   -23837877.69749 -18556728.38448  20245830.603    20245837.043
  23342232.112   -10337827.46649  -8018680.55846  23342231.360    23342242.562
  23302715.811    12734428.35549   9927988.57846  23302715.436    23302724.882
  21350378.877    -3525925.98149  -2731422.84847  21350378.171    21350386.231
  20994124.435   -20953936.78649 -16073038.25047  20994123.441    20994131.163
  21544449.090   -18369653.44449 -14306280.26547  21544448.759    21544456.009
 03  3 26 19 50  0.0000000  0  6G30G17G24G 5G10G 6
  20247677.350   -23828172.69549 -18549166.07148  20247677.445    20247683.880
  23327823.949   -10413542.57549  -8077679.21246  23327823.204    23327834.313
  23318771.530    12818801.18949   9993733.57446  23318771.141    23318780.600
  21364668.044    -3450836.27949  -2672911.47047  21364667.338    21364675.423
  20993858.776   -20955332.78549 -16074126.01747  20993857.765    20993865.526
  21534124.017   -18423911.91649 -14348559.57747  21534123.676    21534130.932
 03  3 26 19 50 30.0000000  0  6G30G17G24G 5G10G 6
  20249636.431   -23817877.77349 -18541144.08148  20249636.538    20249642.950
  23313456.165   -10489045.65549  -8136512.66646  23313455.400    23313466.412
  23334834.479    12903211.99449  10059508.14046  23334834.090    23334843.556
  21379033.313    -3375346.53449  -2614088.37347  21379032.604    21379040.718
  20993714.444   -20956091.10949 -16074716.90347  20993713.435    20993721.206
  21523824.358   -18478037.06749 -14390735.00547  21523824.017    21523831.267
 03  3 26 19 51  0.0000000  0  6G30G17G24G 5G10G 6
  20251707.822   -23806992.73549 -18532662.26248  20251707.924    20251714.312
  23299128.868   -10564335.66749  -8195180.07446  23299128.129    23299139.080
  23350904.345    12987659.39749  10125311.22746  23350903.966    23350913.427
  21393474.345    -3299458.63449  -2554955.02647  21393473.636    21393481.793
  20993691.553   -20956211.32549 -16074810.56047  20993690.550    20993698.347
  21513550.247   -18532027.71749 -14432805.63347  21513549.919    21513557.160
 03  3 26 19 51 30.0000000  0  6G30G17G24G 5G10G 6
  20253891.492   -23795517.59849 -18523720.62648  20253891.593    20253897.942
  23284842.239   -10639411.75349  -8253680.79746  23284841.499    23284852.475
  23366980.790    13072141.51549  10191141.36846  23366980.416    23366989.884
  21407990.749    -3223174.68249  -2495513.05947  21407990.037    21407998.231
  20993790.061   -20955693.46249 -16074407.01547  20993789.062    20993796.868
  21503301.968   -18585882.83249 -14474770.65147  21503301.634    21503308.872
 03  3 26 19 52  0.0000000  0  6G30G17G24G 5G10G 6
  20256187.425   -23783452.62249 -18514319.37848  20256187.523    20256193.865
  23270596.337   -10714273.99749  -8312014.90346  23270595.602    23270606.545
  23383063.605    13156657.23249  10256997.68146  23383063.222    23383072.778
  21422582.131    -3146496.79449  -2435764.13447  21422581.425    21422589.642
  20994010.005   -20954537.48049 -16073506.23547  20994009.000    20994016.858
  21493079.670   -18639601.33749 -14516629.22047  21493079.331    21493086.580
 03  3 26 19 52 30.0000000  0  6G30G17G24G 5G10G 6
  20258595.576   -23770797.85549 -18504458.55148  20258595.676    20258602.001
  23256391.207   -10788921.83349  -8370181.92846  23256390.466    23256401.418
  23399152.550    13241205.22149  10322879.14846  23399152.203    23399161.738
  21437248.097    -3069426.81849  -2375709.68647  21437247.412    21437255.631
  20994351.384   -20952743.39149 -16072108.23447  20994350.404    20994358.258
  21482883.618   -18693182.02349 -14558380.39447  21482883.289    21482890.537
 03  3 26 19 53  0.0000000  0  6G30G17G24G 5G10G 6
  20261115.920   -23757553.57149 -18494138.36048  20261116.011    20261122.343
  23242226.991   -10863354.82649  -8428181.53546  23242226.262    23242237.151
  23415247.410    13325783.93249  10388784.55746  23415247.071    23415256.557
  21451988.202    -2991967.11449  -2315351.55647  21451987.498    21451995.785
  20994814.162   -20950311.60049 -16070213.32247  20994813.173    20994821.015
  21472713.947   -18746623.96549 -14600023.45447  21472713.610    21472720.851
 03  3 26 19 53 30.0000000  0  6G30G17G24G 5G10G 6
  20263748.305   -23743720.35149 -18483359.26148  20263748.389    20263754.760
  23228103.664   -10937572.99149  -8486013.75446  23228102.939    23228113.824
  23431347.809    13410391.64149  10454712.54546  23431347.455    23431356.876
  21466802.063    -2914120.16049  -2254691.66947  21466801.363    21466809.678
  20995398.207   -20947242.33949 -16067821.67847  20995397.199    20995405.038
  21462570.777   -18799926.54949 -14641557.92147  21462570.452    21462577.688
 03  3 26 19 54  0.0000000  0  6G30G17G24G 5G10G 6
  20266492.754   -23729298.16849 -18472121.23048  20266492.849    20266499.255
  23214021.414   -11011575.41549  -8543677.87446  23214020.707    23214031.519
  23447453.437    13495026.86249  10520661.98146  23447453.026    23447462.443
  21481689.248    -2835887.74149  -2193731.42347  21481688.546    21481696.893
  20996103.535   -20943535.56049 -16064933.27247  20996102.561    20996110.412
  21452454.431   -18853088.44549 -14682982.76547  21452454.095    21452461.297
 03  3 26 19 54 30.0000000  0  6G30G17G24G 5G10G 6
  20269349.224   -23714287.44349 -18460424.59248  20269349.321    20269355.772
  23199980.283   -11085361.89849  -8601173.72346  23199979.578    23199990.328
  23463564.011    13579688.14749  10586631.73046  23463563.633    23463572.962
  21496649.341    -2757272.39049  -2132472.79247  21496648.630    21496656.979
  20996930.134   -20939191.75349 -16061548.48547  20996929.139    20996936.977
  21442365.029   -18906108.58449 -14724297.14747  21442364.690    21442371.887
 03  3 26 19 55  0.0000000  0  6G30G17G24G 5G10G 6
  20272317.684   -23698688.00149 -18448269.21448  20272317.767    20272324.278
  23185980.304   -11158931.78449  -8658500.79746  23185979.581    23185990.310
  23479679.407    13664374.50849  10652621.02546  23479679.076    23479688.363
  21511681.951    -2678275.97649  -2070917.22347  21511681.243    21511689.580
  20997878.045   -20934210.44849 -16057666.94947  20997877.042    20997884.851
  21432302.909   -18958985.55049 -14765499.96447  21432302.586    21432309.696
 03  3 26 19 55 30.0000000  0  6G30G17G24G 5G10G 6
  20275398.120   -23682500.23049 -18435655.39848  20275398.224    20275404.742
  23172021.544   -11232284.74449  -8715658.82646  23172020.864    23172031.601
  23495799.331    13749084.69949  10718628.86046  23495798.997    23495808.295
  21526786.674    -2598900.54149  -2009066.31347  21526785.946    21526794.283
  20998947.174   -20928591.95149 -16053288.89647  20998946.172    20998953.949
  21422268.248   -19011718.26049 -14806590.37347  21422267.903    21422274.991
 03  3 26 19 56  0.0000000  0  6G30G17G24G 5G10G 6
  20278590.581   -23665724.04949 -18422583.08548  20278590.664    20278597.165
  23158104.259   -11305419.80249  -8772647.07346  23158103.609    23158114.338
  23511923.440    13833817.21249  10784654.10846  23511923.105    23511932.448
  21541963.166    -2519147.83049  -1946921.42247  21541962.449    21541970.779
  21000137.590   -20922336.29449 -16048414.36147  21000136.598    21000144.329
  21412261.298   -19064305.33449 -14847567.30147  21412260.940    21412267.980
 03  3 26 19 56 30.0000000  0  6G30G17G24G 5G10G 6
  20281894.962   -23648359.74949 -18409052.48948  20281895.056    20281901.516
  23144228.630   -11378336.21749  -8829464.95146  23144227.964    23144238.706
  23528051.680    13918571.21849  10850696.10346  23528051.319    23528060.652
  21557211.025    -2439020.03349  -1884484.26047  21557210.324    21557218.705
  21001449.255   -20915443.58149 -16043043.41547  21001448.250    21001456.010
  21402282.248   -19116745.54149 -14888429.78247  21402281.909    21402288.898
 03  3 26 19 57  0.0000000  0  6G30G17G24G 5G10G 6
  20285310.941   -23630408.78749 -18395064.75848  20285311.041    20285317.498
  23130394.533   -11451034.68849  -8886112.98946  23130393.882    23130404.507
  23544183.578    14003344.58049  10916753.17846  23544183.212    23544192.593
  21572529.606    -2358520.65049  -1821757.55147  21572528.889    21572537.321
  21002881.852   -20907915.10749 -16037177.07447  21002880.858    21002888.617
  21392331.123   -19169038.99449 -14929177.91047  21392330.768    21392337.769
 03  3 26 19 57 30.0000000  0  6G30G17G24G 5G10G 6
  20288838.572   -23611871.05049 -18380619.79548  20288838.659    20288845.098
  23116602.023   -11523514.75249  -8942590.84946  23116601.350    23116611.894
  23560318.906    14088136.18149  10982824.47346  23560318.531    23560327.980
  21587918.604    -2277651.23349  -1758742.50047  21587917.885    21587926.352
  21004435.454   -20899750.69449 -16030815.19647  21004434.483    21004442.239
  21382408.275   -19221183.90849 -14969810.29147  21382407.947    21382414.935
 03  3 26 19 58  0.0000000  0  6G30G17G24G 5G10G 6
  20292477.805   -23592746.86349 -18365717.86048  20292477.890    20292484.353
  23102851.149   -11595775.80949  -8998898.05046  23102850.480    23102860.960
  23576457.436    14172944.64649  11048908.90946  23576457.018    23576466.619
  21603377.577    -2196414.00549  -1695440.84747  21603376.873    21603385.364
  21006110.029   -20890950.97649 -16023958.27047  21006109.063    21006116.759
  21372513.893   -19273179.14349 -15010326.04347  21372513.577    21372520.540
 03  3 26 19 58 30.0000000  0  6G30G17G24G 5G10G 6
  20296228.594   -23573036.31949 -18350359.02348  20296228.683    20296235.163
  23089142.129   -11667816.99349  -9055033.92746  23089141.460    23089151.875
  23592598.918    14257768.98049  11115005.69045  23592598.584    23592608.197
  21618906.263    -2114810.75549  -1631853.98047  21618905.553    21618914.036
  21007905.570   -20881515.63649 -16016606.05547  21007904.570    21007912.198
  21362648.309   -19325023.02649 -15050723.85547  21362647.977    21362654.942
 03  3 26 19 59  0.0000000  0  6G30G17G24G 5G10G 6
  20300090.835   -23552740.26249 -18334543.94448  20300090.919    20300097.400
  23075474.905   -11739638.18949  -9110998.37346  23075474.271    23075484.636
  23608743.211    14342607.75249  11181113.73845  23608742.857    23608752.505
  21634504.083    -2032844.10149  -1567983.94547  21634503.365    21634511.820
  21009821.878   -20871445.58249 -16008759.25947  21009820.874    21009828.475
  21352811.635   -19376714.99049 -15091003.29047  21352811.296    21352818.270
 03  3 26 19 59 30.0000000  0  6G30G17G24G 5G10G 6
  20304064.341   -23531859.52549 -18318273.26948  20304064.429    20304070.915
  23061849.563   -11811239.52949  -9166791.51546  23061848.904    23061859.241
  23624890.042    14427459.58749  11247231.96545  23624889.729    23624899.360
  21650170.623    -1950516.50149  -1503832.65347  21650169.909    21650178.301
  21011858.766   -20860741.52649 -16000418.43347  21011857.744    21011865.385
  21343004.091   -19428254.00149 -15131163.53947  21343003.746    21343010.724
 03  3 26 20  0  0.0000000  0  6G30G17G24G 5G10G 6
  20308149.080   -23510394.35849 -18301547.19448  20308149.161    20308155.656
  23048266.170   -11882620.39949  -9222412.86646  23048265.508    23048275.795
  23641039.054    14512322.71549  11313358.98445  23641038.679    23641048.375
  21665905.394    -1867830.25149  -1439401.89547  21665904.686    21665913.030
  21014016.263   -20849403.77849 -15991583.82047  21014015.240    21014022.898
  21333225.851   -19479638.75549 -15171203.59347  21333225.505    21333232.507
 03  3 26 20  0 30.0000000  0  6G30G17G24G 5G10G 6
  20312344.888   -23488345.33049 -18284366.16548  20312344.976    20312351.473
  23034724.810   -11953780.40149  -9277862.11846  23034724.153    23034734.329
  23657190.076    14597196.03249  11379493.93645  23657189.698    23657199.309
  21681707.964    -1784787.63149  -1374693.44647  21681707.246    21681715.583
  21016294.178   -20837433.08449 -15982255.99847  21016293.173    21016300.861
  21323477.205   -19530868.08949 -15211122.54247  21323476.854    21323483.877
 03  3 26 20  1  0.0000000  0  6G30G17G24G 5G10G 6
  20316651.456   -23465714.23649 -18266731.57648  20316651.525    20316658.050
  23021225.254   -12024720.58749  -9333140.07946  23021224.568    23021234.764
  23673342.583    14682077.20749  11445635.00545  23673342.156    23673351.792
  21697577.739    -1701391.89349  -1309709.85047  21697577.030    21697585.337
  21018692.301   -20824830.80449 -15972436.03547  21018691.293    21018699.001
  21313758.123   -19581942.02949 -15250920.40047  21313757.773    21313764.818
 03  3 26 20  1 30.0000000  0  6G30G17G24G 5G10G 6
  20321069.154   -23442499.21449 -18248641.97948  20321069.236    20321075.748
  23007768.018   -12095438.37849  -9388244.74546  23007767.325    23007777.545
  23689496.693    14766967.04849  11511782.83645  23689496.243    23689505.913
  21713514.691    -1617643.13249  -1244451.16447  21713513.987    21713522.278
  21021210.998   -20811595.16149 -15962122.53947  21021209.989    21021217.674
  21304069.306   -19632857.14649 -15290594.50247  21304068.950    21304075.968
 03  3 26 20  2  0.0000000  0  6G30G17G24G 5G10G 6
  20325597.765   -23418701.32849 -18230098.20148  20325597.841    20325604.364
  22994353.135   -12165933.73749  -9443176.09046  22994352.411    22994362.698
  23705652.240    14851864.38849  11577936.51445  23705651.769    23705661.445
  21729518.295    -1533544.04949  -1178919.50647  21729517.568    21729525.862
  21023849.994   -20797727.18049 -15951316.32647  21023848.992    21023856.641
  21294410.923   -19683612.40649 -15330144.04347  21294410.576    21294417.579
 03  3 26 20  2 30.0000000  0  6G30G17G24G 5G10G 6
  20330237.081   -23394321.56149 -18211101.00648  20330237.160    20330243.691
  22980980.660   -12236206.19249  -9497933.74746  22980979.919    22980990.255
  23721808.873    14936767.33049  11644094.53645  23721808.403    23721818.036
  21745588.001    -1449097.41549  -1113117.02647  21745587.253    21745595.561
  21026609.115   -20783227.88649 -15940018.17647  21026608.112    21026615.762
  21284783.035   -19734207.18849 -15369568.53847  21284782.692    21284789.696
 03  3 26 20  3  0.0000000  0  6G30G17G24G 5G10G 6
  20334986.992   -23369360.68149 -18191651.00348  20334987.071    20334993.621
  22967650.577   -12306255.61849  -9552517.62146  22967649.877    22967660.232
  23737966.340    15021674.82749  11710256.13045  23737965.869    23737975.454
  21761723.375    -1364305.67749  -1047045.63347  21761722.633    21761730.998
  21029488.247   -20768097.84049 -15928228.53247  21029487.259    21029494.905
  21275185.922   -19784640.28349 -15408867.03647  21275185.576    21275192.578
 03  3 26 20  3 30.0000000  0  6G30G17G24G 5G10G 6
  20339847.347   -23343819.37449 -18171748.71748  20339847.437    20339853.987
  22954362.904   -12376082.35449  -9606927.97246  22954362.246    22954372.542
  23754124.443    15106585.68949  11776420.32245  23754124.012    23754133.501
  21777923.967    -1279171.11949   -980707.11347  21777923.247    21777931.646
  21032487.298   -20752337.81749 -15915947.99547  21032486.303    21032493.937
  21265619.841   -19834910.40649 -15448038.54547  21265619.498    21265626.506
 03  3 26 20  4  0.0000000  0  6G30G17G24G 5G10G 6
  20344818.041   -23317698.29249 -18151394.65648  20344818.125    20344824.681
  22941117.818   -12445685.45249  -9661164.06146  22941117.145    22941127.394
  23770282.904    15191498.36349  11842585.93745  23770282.466    23770291.895
  21794189.369    -1193696.14649   -914103.33147  21794188.647    21794197.084
  21035606.070   -20735948.65649 -15903177.23047  21035605.064    21035612.682
  21256084.958   -19885016.51549 -15487082.25747  21256084.629    21256091.648
 03  3 26 20  4 30.0000000  0  6G30G17G24G 5G10G 6
  20349898.942   -23290998.11349 -18130589.35448  20349899.028    20349905.580
  22927915.295   -12515065.06249  -9715226.01146  22927914.595    22927924.836
  23786441.480    15276411.84749  11908752.18645  23786441.069    23786450.509
  21810519.148    -1107882.86149   -847235.93047  21810518.422    21810526.909
  21038844.444   -20718930.78549 -15889916.56247  21038843.442    21038851.087
  21246581.556   -19934957.07349 -15525996.96747  21246581.218    21246588.246
 03  3 26 20  5  0.0000000  0  6G30G17G24G 5G10G 6
  20355089.879   -23263719.67049 -18109333.45648  20355089.974    20355096.512
  22914755.291   -12584220.82849  -9769113.54146  22914754.616    22914764.836
  23802600.041    15361325.20249  11974918.32645  23802599.614    23802609.135
  21826912.831    -1021733.88249   -780106.95147  21826912.113    21826920.624
  21042202.250   -20701285.42349 -15876166.93347  21042201.247    21042208.895
  21237109.859   -19984731.12749 -15564781.93547  21237109.505    21237116.537
 03  3 26 20  5 30.0000000  0  6G30G17G24G 5G10G 6
  20360390.706   -23235863.77249 -18087627.59348  20360390.785    20360397.349
  22901638.024   -12653152.05649  -9822826.09646  22901637.347    22901647.546
  23818758.300    15446236.94649  12041083.21545  23818757.857    23818767.362
  21843369.976     -935251.28849   -712718.01147  21843369.250    21843377.795
  21045679.388   -20683013.06249 -15861928.74747  21045678.370    21045686.025
  21227670.059   -20034337.36749 -15603436.13947  21227669.710    21227676.730
 03  3 26 20  6  0.0000000  0  6G30G17G24G 5G10G 6
  20365801.180   -23207431.54049 -18065472.63748  20365801.269    20365807.853
  22888563.404   -12721859.12949  -9876363.99846  22888562.728    22888572.920
  23834916.010    15531145.69849  12107245.76845  23834915.551    23834925.038
  21859890.101     -848437.92349   -645071.32747  21859889.364    21859897.991
  21049275.588   -20664114.81349 -15847202.85047  21049274.580    21049282.247
  21218262.398   -20083774.82549 -15641958.82847  21218262.063    21218269.061
 03  3 26 20  6 30.0000000  0  6G30G17G24G 5G10G 6
  20371321.246   -23178423.53349 -18042869.03148  20371321.338    20371327.934
  22875531.638   -12790341.35349  -9929726.70146  22875530.930    22875541.115
  23851072.886    15616050.33049  12173405.10345  23851072.486    23851081.967
  21876472.738     -761295.78449   -577168.46147  21876472.013    21876480.717
  21052990.777   -20644591.21049 -15831989.66747  21052989.798    21052997.465
  21208887.132   -20133041.99149 -15680348.81847  21208886.783    21208893.768
 03  3 26 20  7  0.0000000  0  6G30G17G24G 5G10G 6
  20376950.756   -23148840.49849 -18019817.35048  20376950.860    20376957.476
  22862542.610   -12858598.80249  -9982914.25646  22862541.912    22862552.053
  23867228.798    15700949.88349  12239560.50545  23867228.412    23867237.961
  21893117.518     -673827.15249   -509011.18747  21893116.790    21893125.613
  21056824.877   -20624442.99649 -15816289.77447  21056823.884    21056831.570
  21199544.557   -20182137.48649 -15718605.04147  21199544.221    21199551.170
 03  3 26 20  7 30.0000000  0  6G30G17G24G 5G10G 6
  20382689.512   -23118683.31049 -17996318.27848  20382689.598    20382696.230
  22849596.500   -12926630.70949 -10035926.05346  22849595.804    22849605.928
  23883383.578    15785843.36849  12305711.16445  23883383.178    23883392.808
  21909823.986     -586034.46649   -440601.40547  21909823.265    21909832.165
  21060777.657   -20603671.11949 -15800103.90547  21060776.638    21060784.323
  21190234.866   -20231060.11449 -15756726.55747  21190234.526    21190241.464
 03  3 26 20  8  0.0000000  0  6G30G17G24G 5G10G 6
  20388537.369   -23087952.95349 -17972372.57948  20388537.459    20388544.080
  22836693.309   -12994437.10249 -10088762.13346  22836692.647    22836702.744
  23899536.916    15870729.31249  12371855.94145  23899536.484    23899546.221
  21926591.654     -497920.29749   -371941.11447  21926590.927    21926599.879
  21064848.921   -20582276.52149 -15783432.80047  21064847.889    21064855.614
  21180958.323   -20279808.72649 -15794712.48347  21180957.998    21180964.914
 03  3 26 20  8 30.0000000  0  6G30G17G24G 5G10G 6
  20394494.098   -23056650.29449 -17947980.93148  20394494.185    20394500.787
  22823833.186   -13062017.44549 -10141422.06346  22823832.509    22823842.598
  23915688.605    15955606.53849  12437993.92345  23915688.184    23915697.991
  21943419.990     -409487.05549   -303032.19747  21943419.267    21943428.273
  21069038.402   -20560260.52949 -15766277.49347  21069037.379    21069045.132
  21171715.169   -20328381.94849 -15832561.73547  21171714.837    21171721.750
 03  3 26 20  9  0.0000000  0  6G30G17G24G 5G10G 6
  20400559.521   -23024776.49549 -17923144.23848  20400559.606    20400566.206
  22811016.009   -13129372.10849 -10193906.14746  22811015.313    22811025.367
  23931838.515    16040474.50649  12504124.70245  23931838.163    23931847.992
  21960308.589     -320737.33649   -233876.67547  21960307.875    21960316.867
  21073346.021   -20537623.90149 -15748638.56447  21073344.997    21073352.754
  21162505.583   -20376778.76649 -15870273.53847  21162505.262    21162512.143
 03  3 26 20  9 30.0000000  0  6G30G17G24G 5G10G 6
  20406733.421   -22992332.61249 -17897863.32648  20406733.502    20406740.127
  22798241.817   -13196500.62849 -10246214.01946  22798241.096    22798251.122
  23947986.379    16125331.72549  12570247.08045  23947986.004    23947995.915
  21977256.975     -231673.57749   -164476.44547  21977256.252    21977265.250
  21077771.588   -20514367.52449 -15730516.72147  21077770.573    21077778.284
  21153329.837   -20424997.89549 -15907846.87447  21153329.505    21153336.389
 03  3 26 20 10  0.0000000  0  6G30G17G24G 5G10G 6
  20413015.627   -22959319.41749 -17872138.79648  20413015.713    20413022.342
  22785510.683   -13263402.97749 -10298345.65546  22785509.960    22785519.950
  23964132.001    16210177.01749  12636360.16745  23964131.646    23964141.597
  21994264.637     -142298.11849    -94833.34147  21994263.878    21994272.921
  21082314.908   -20490492.34349 -15711912.69547  21082313.888    21082321.587
  21144188.127   -20473037.92049 -15945280.64847  21144187.793    21144194.702
 03  3 26 20 10 30.0000000  0  6G30G17G24G 5G10G 6
  20419405.929   -22925738.12949 -17845971.59848  20419406.009    20419412.673
  22772822.719   -13330078.53349 -10350300.57046  22772822.003    22772831.945
  23980275.083    16295009.33049  12702463.14545  23980274.720    23980284.752
  22011331.125      -52613.46649    -24949.30547  22011330.373    22011339.446
  21086975.709   -20465999.69249 -15692827.51947  21086974.681    21086982.404
  21135080.675   -20520897.78649 -15982574.03747  21135080.338    21135087.287
 03  3 26 20 11  0.0000000  0  6G30G17G24G 5G10G 6
  20425904.224   -22891589.49149 -17819362.30948  20425904.301    20425910.959
  22760177.894   -13396527.27249 -10402078.73746  22760177.177    22760187.065
  23996415.536    16379827.62949  12768555.19445  23996415.187    23996425.196
  22028456.069       37378.22049     45173.98347  22028455.308    22028464.405
  21091753.830   -20440890.41349 -15673261.85047  21091752.833    21091760.541
  21126007.820   -20568575.74049 -16019725.67047  21126007.499    21126014.475
 03  3 26 20 11 30.0000000  0  6G30G17G24G 5G10G 6
  20432510.259   -22856874.62349 -17792311.80148  20432510.357    20432516.984
  22747576.321   -13462748.71049 -10453679.78646  22747575.601    22747585.422
  24012553.075    16464630.67049  12834635.37845  24012552.726    24012562.667
  22045638.915      127674.45849    115534.58147  22045638.182    22045647.284
  21096649.157   -20415165.62049 -15653216.56247  21096648.154    21096655.819
  21116969.869   -20616070.40749 -16056734.48147  21116969.546    21116976.547
 03  3 26 20 12  0.0000000  0  6G30G17G24G 5G10G 6
  20439223.920   -22821594.36549 -17764820.73048  20439224.020    20439230.619
  22735018.038   -13528742.75849 -10505103.64946  22735017.325    22735027.105
  24028687.609    16549417.80449  12900703.13745  24028687.276    24028697.179
  22062879.272      218272.84149    186130.61047  22062878.557    22062887.716
  21101661.379   -20388826.26949 -15632692.39747  21101660.345    21101668.009
  21107967.092   -20663380.29549 -16093599.31247  21107966.759    21107973.767
 03  3 26 20 12 30.0000000  0  6G30G17G24G 5G10G 6
  20446044.930   -22785749.96449 -17736890.06648  20446045.037    20446051.610
  22722503.099   -13594509.09649 -10556350.07146  22722502.379    22722512.135
  24044818.866    16634187.97549  12966757.70145  24044818.568    24044828.485
  22080176.628      309170.77949    256960.06247  22080175.922    22080185.131
  21106790.319   -20361873.53249 -15611690.27647  21106789.294    21106796.923
  21098999.718   -20710504.18149 -16130319.20247  21098999.387    21099006.369
 03  3 26 20 13  0.0000000  0  6G30G17G24G 5G10G 6
  20452972.989   -22749342.86949 -17708520.94148  20452973.081    20452979.647
  22710031.431   -13660047.77049 -10607419.09246  22710030.733    22710040.474
  24060946.703    16718940.02249  13032798.11945  24060946.403    24060956.269
  22097530.520      400365.67149    328020.91647  22097529.808    22097539.061
  21112035.708   -20334308.67049 -15590211.17547  21112034.703    21112042.302
  21090067.917   -20757441.01749 -16166893.34247  21090067.570    21090074.579
 03  3 26 20 13 30.0000000  0  6G30G17G24G 5G10G 6
  20460007.920   -22712374.24549 -17679714.26048  20460008.001    20460014.563
  22697603.152   -13725358.82149 -10658310.74746  22697602.437    22697612.135
  24077070.860    16803672.77749  13098823.51545  24077070.530    24077080.558
  22114940.491      491855.10049    399311.26746  22114939.786    22114949.062
  21117397.356   -20306133.20749 -15568256.27947  21117396.351    21117403.929
  21081171.878   -20804189.76749 -16203320.92747  21081171.519    21081178.544
 03  3 26 20 14  0.0000000  0  6G30G17G24G 5G10G 6
  20467149.449   -22674845.32449 -17650470.98548  20467149.537    20467156.129
  22685218.176   -13790442.11049 -10709024.93246  22685217.461    22685227.106
  24093191.206    16888385.10149  13164832.99645  24093190.901    24093200.915
  22132406.034      583636.59449    470829.19546  22132405.314    22132414.617
  21122874.964   -20277348.33649 -15545826.51847  21122873.939    21122881.519
  21072311.871   -20850749.10249 -16239600.91347  21072311.522    21072318.573
 03  3 26 20 14 30.0000000  0  6G30G17G24G 5G10G 6
  20474397.372   -22636757.30449 -17620792.04948  20474397.440    20474404.096
  22672876.493   -13855297.55949 -10759561.57046  22672875.765    22672885.436
  24109307.515    16973076.02749  13230825.79445  24109307.173    24109317.277
  22149926.568      675707.27849    542572.47446  22149925.836    22149935.182
  21128468.257   -20247955.37249 -15522922.91947  21128467.246    21128474.849
  21063488.243   -20897117.46849 -16275732.09647  21063487.901    21063494.979
 03  3 26 20 15  0.0000000  0  6G30G17G24G 5G10G 6
  20481751.457   -22598111.14849 -17590678.20948  20481751.558    20481758.256
  22660578.264   -13919924.70449 -10809920.31646  22660577.559    22660587.195
  24125419.571    17057744.90649  13296801.41545  24125419.230    24125429.382
  22167501.768      768065.07249    614539.46846  22167501.018    22167510.389
  21134177.104   -20217955.21449 -15499546.18647  21134176.094    21134183.733
  21054701.231   -20943293.32349 -16311713.27047  21054700.874    21054708.012
 03  3 26 20 15 30.0000000  0  6G30G17G24G 5G10G 6
  20489211.534   -22558908.22849 -17560130.52248  20489211.634    20489218.393
  22648323.527   -13984323.17249 -10860100.87046  22648322.853    22648332.462
  24141527.196    17142390.56949  13362758.94645  24141526.868    24141537.071
  22185131.125      860707.55249    686728.30046  22185130.373    22185139.781
  21140001.250   -20187349.17149 -15475697.33147  21140000.232    21140007.893
  21045951.102   -20989275.45449 -16347543.49047  21045950.752    21045957.906
 03  3 26 20 16  0.0000000  0  6G30G17G24G 5G10G 6
  20496777.340   -22519149.83849 -17529150.00348  20496777.446    20496784.248
  22636112.334   -14048493.25049 -10910103.46446  22636111.636    22636121.197
  24157630.241    17227011.83749  13428697.47945  24157629.870    24157640.188
  22202814.118      953631.94149    759136.80446  22202813.392    22202822.805
  21145940.397   -20156138.79149 -15451377.56447  21145939.371    21145947.055
  21037238.097   -21035062.53049 -16383221.72447  21037237.783    21037244.916
 03  3 26 20 16 30.0000000  0  6G30G17G24G 5G10G 6
  20504448.643   -22478837.14549 -17497737.56248  20504448.745    20504455.571
  22623944.617   -14112434.81149 -10959927.99046  22623943.900    22623953.435
  24173728.416    17311607.92549  13494616.37545  24173728.076    24173738.377
  22220550.357     1046835.98749    831763.21846  22220549.643    22220559.028
  21151994.319   -20124325.23349 -15426587.79247  21151993.300    21152001.005
  21028562.510   -21080653.08649 -16418746.82447  21028562.189    21028569.254
 03  3 26 20 17  0.0000000  0  6G30G17G24G 5G10G 6
  20512225.212   -22437971.13349 -17465893.96448  20512225.302    20512232.154
  22611820.539   -14176147.15749 -11009573.91746  22611819.823    22611829.319
  24189821.613    17396178.22549  13560515.16745  24189821.265    24189831.688
  22238339.343     1140317.45949    904605.80746  22238338.649    22238348.034
  21158162.773   -20091909.55749 -15401328.83847  21158161.759    21158169.524
  21019924.701   -21126045.35749 -16454117.42147  21019924.359    21019931.404
 03  3 26 20 17 30.0000000  0  6G30G17G24G 5G10G 6
  20520106.806   -22396553.30649 -17433620.38348  20520106.906    20520113.761
  22599740.003   -14239630.49249 -11059041.39146  22599739.296    22599748.764
  24205909.748    17480721.54449  13626392.95145  24205909.418    24205919.922
  22256180.656     1234073.57849    977662.40446  22256179.957    22256189.349
  21164445.487   -20058893.56649 -15375602.11147  21164444.500    21164452.299
  21011324.758   -21171238.24249 -16489332.65347  21011324.433    21011331.441
 03  3 26 20 18  0.0000000  0  6G30G17G24G 5G10G 6
  20528093.085   -22354585.36449 -17400918.14048  20528093.197    20528100.021
  22587703.048   -14302884.63849 -11108330.28146  22587702.319    22587711.810
  24221992.570    17565236.86449  13692248.90245  24221992.264    24222002.682
  22274073.699     1328101.63649   1050930.90646  22274072.980    22274082.393
  21170842.220   -20025278.58549 -15349408.63447  21170841.221    21170849.052
  21002763.051   -21216230.38249 -16524391.45947  21002762.710    21002769.727
 03  3 26 20 18 30.0000000  0  6G30G17G24G 5G10G 6
  20536183.799   -22312068.54749 -17367788.20448  20536183.906    20536190.716
  22575709.719   -14365909.68749 -11157440.65846  22575708.982    22575718.456
  24238069.924    17649723.11749  13758082.20445  24238069.554    24238080.086
  22292018.015     1422399.23149   1124409.43446  22292017.287    22292026.704
  21177352.658   -19991066.01949 -15322749.49847  21177351.645    21177359.504
  20994239.801   -21261020.43649 -16559292.79447  20994239.470    20994246.475
 03  3 26 20 19  0.0000000  0  6G30G17G24G 5G10G 6
  20544378.651   -22269004.59349 -17334231.92648  20544378.762    20544385.575
  22563759.970   -14428705.80649 -11206372.65046  22563759.235    22563768.683
  24254141.611    17734179.64949  13823892.35345  24254141.267    24254151.752
  22310013.068     1516963.44249   1198095.71046  22310012.350    22310021.800
  21183976.475   -19956257.63549 -15295626.08847  21183975.479    21183983.337
  20985755.215   -21305607.19449 -16594035.72247  20985754.864    20985761.876
 03  3 26 20 19 30.0000000  0  6G30G17G24G 5G10G 6
  20552677.383   -22225394.56849 -17300250.13748  20552677.497    20552684.316
  22551853.848   -14491272.62549 -11255125.96546  22551853.127    22551862.565
  24270207.394    17818605.43249  13889678.55345  24270207.065    24270217.598
  22328058.377     1611792.03049   1271987.99346  22328057.697    22328067.150
  21190713.407   -19920854.82849 -15268039.49447  21190712.385    21190720.311
  20977309.556   -21349989.16049 -16628619.06347  20977309.211    20977316.238
 03  3 26 20 20  0.0000000  0  6G30G17G24G 5G10G 6
  20561079.767   -22181239.97449 -17265844.01048  20561079.890    20561086.699
  22539991.426   -14553609.72149 -11303700.27646  22539990.709    22540000.173
  24286267.210    17902999.61849  13955440.12445  24286266.897    24286277.404
  22346153.547     1706882.35449   1346084.22846  22346152.880    22346162.382
  21197563.135   -19884859.17649 -15239990.95147  21197562.133    21197570.052
  20968903.179   -21394164.96049 -16663041.75647  20968902.841    20968909.844
 03  3 26 20 20 30.0000000  0  6G30G17G24G 5G10G 6
  20569585.518   -22136542.42149 -17231014.80048  20569585.642    20569592.429
  22528172.659   -14615717.21349 -11352095.67846  22528171.961    22528181.447
  24302320.745    17987361.00149  14021176.13345  24302320.413    24302330.982
  22364298.040     1802231.91149   1420382.45646  22364297.379    22364306.882
  21204525.453   -19848272.10349 -15211481.55247  21204524.463    21204532.348
  20960536.279   -21438133.35449 -16697302.83847  20960535.933    20960542.927
 03  3 26 20 21  0.0000000  0  6G30G17G24G 5G10G 6
  20578194.385   -22091302.97749 -17195763.33648  20578194.492    20578201.274
  22516397.629   -14677595.08549 -11400312.15346  22516396.923    22516406.446
  24318367.913    18071688.97249  14086886.10745  24318367.664    24318378.209
  22382491.392     1897838.33249   1494880.84346  22382490.704    22382500.220
  21211600.042   -19811095.10549 -15182512.47347  21211599.036    21211606.881
  20952209.198   -21481892.40249 -16731400.78847  20952208.848    20952215.810
 03  3 26 20 21 30.0000000  0  6G30G17G24G 5G10G 6
  20586906.030   -22045523.30249 -17160090.91648  20586906.131    20586912.916
  22504666.240   -14739243.22749 -11448349.62546  22504665.544    22504675.203
  24334408.550    18155982.65349  14152569.35045  24334408.309    24334418.782
  22400733.195     1993699.13749   1569577.44146  22400732.525    22400742.064
  21218786.569   -19773329.77049 -15153084.94947  21218785.560    21218793.387
  20943922.197   -21525440.77449 -16765334.57647  20943921.855    20943928.822
 03  3 26 20 22  0.0000000  0  6G30G17G24G 5G10G 6
  20595720.172   -21999204.95849 -17123998.75348  20595720.279    20595727.070
  22492978.564   -14800661.76449 -11496208.17046  22492977.915    22492987.616
  24350442.552    18240241.15049  14218225.18245  24350442.269    24350452.761
  22419022.872     2089811.49749   1644470.06146  22419022.204    22419031.827
  21226084.722   -19734977.63249 -15123200.17847  21226083.708    21226091.535
  20935675.563   -21568777.15349 -16799103.17247  20935675.234    20935682.188
 03  3 26 20 22 30.0000000  0  6G30G17G24G 5G10G 6
  20604636.457   -21952349.74549 -17087488.25348  20604636.557    20604643.384
  22481334.726   -14861850.50649 -11543887.66146  22481334.056    22481343.756
  24366469.635    18324463.62249  14283852.95745  24366469.404    24366479.873
  22437359.924     2186172.81549   1719556.66946  22437359.230    22437368.937
  21233494.212   -19696040.48449 -15092859.56647  21233493.199    21233501.025
  20927469.525   -21611900.38949 -16832705.68647  20927469.184    20927476.141
 03  3 26 20 23  0.0000000  0  6G30G17G24G 5G10G 6
  20613654.592   -21904959.30049 -17050560.68948  20613654.694    20613661.545
  22469734.620   -14922809.57649 -11591388.18846  22469733.947    22469743.565
  24382489.608    18408648.91249  14349451.75345  24382489.493    24382499.733
  22455743.810     2282780.53249   1794835.26646  22455743.132    22455752.908
  21241014.693   -19656520.08049 -15062064.47447  21241013.682    21241021.485
  20919304.249   -21654809.08049 -16866141.02747  20919303.907    20919310.852
 03  3 26 20 23 30.0000000  0  6G30G17G24G 5G10G 6
  20622774.254   -21857035.30849 -17013217.37848  20622774.360    20622781.228
  22458178.220   -14983539.21049 -11638709.93447  22458177.517    22458187.063
  24398502.394    18492796.05149  14415020.82745  24398502.239    24398512.558
  22474174.069     2379631.72249   1870303.59046  22474173.393    22474183.215
  21248645.834   -19616418.27349 -15030816.33747  21248644.819    21248652.645
  20911180.096   -21697501.88649 -16899408.14247  20911179.752    20911186.692
 03  3 26 20 24  0.0000000  0  7G30G17G24G29G 5G10G 6
  20631994.516   -21808582.62249 -16975462.09047  20631994.617    20632001.503
  22446664.822   -15044042.51849 -11685855.31547  22446664.118    22446673.604
  24414507.108    18576900.92749  14480556.96045  24414506.939    24414517.332
  24650208.098    -3349572.39249  -2592300.61245  24650207.736    24650222.169
  22492649.562     2476720.57449   1945957.10046  22492648.873    22492658.708
  21256386.633   -19575740.00849 -14999119.01247  21256385.640    21256393.476
  20903096.596   -21739980.75849 -16932508.55847  20903096.258    20903103.196
 03  3 26 20 24 30.0000000  0  7G30G17G24G29G 5G10G 6
  20641315.384   -21759601.50749 -16937295.04547  20641315.485    20641322.355
  22435194.789   -15104317.98849 -11732823.16847  22435194.069    22435203.521
  24430503.947    18660964.51249  14546060.89645  24430503.654    24430514.224
  24636883.821    -3419590.95249  -2646860.29845  24636883.441    24636897.786
  22511170.079     2574045.94649   2021794.90846  22511169.402    22511179.220
  21264237.083   -19534485.57249 -14966972.72947  21264236.095    21264243.921
  20895054.416   -21782242.66149 -16965439.91047  20895054.085    20895061.013
 03  3 26 20 25  0.0000000  0  7G30G17G24G29G 5G10G 6
  20650737.379   -21710088.55049 -16898713.57447  20650737.482    20650744.372
  22423769.030   -15164360.69749 -11779609.64747  22423768.318    22423777.736
  24446493.627    18744990.80049  14611535.79345  24446493.196    24446504.022
  24623576.043    -3489522.59949  -2701352.24745  24623575.694    24623590.061
  22529736.099     2671610.23449   2097818.88846  22529735.408    22529745.207
  21272197.840   -19492651.77949 -14934375.00947  21272196.844    21272204.663
  20887054.765   -21824281.15749 -16998197.17747  20887054.413    20887061.356
 03  3 26 20 25 30.0000000  0  7G30G17G24G29G 5G10G 6
  20660260.205   -21660045.92549 -16859719.37647  20660260.319    20660267.227
  22412387.410   -15224171.31549 -11826215.26947  22412386.707    22412396.096
  24462475.979    18828978.40349  14676980.53845  24462475.551    24462486.463
  24610285.269    -3559364.69149  -2755774.40445  24610285.124    24610299.310
  22548347.004     2769410.33849   2174026.62046  22548346.284    22548356.043
  21280268.404   -19450240.83949 -14901327.56047  21280267.387    21280275.197
  20879097.760   -21866095.28849 -17030779.61947  20879097.402    20879104.382
 03  3 26 20 26  0.0000000  0  7G30G17G24G29G 5G10G 6
  20669883.144   -21609477.24349 -16820315.26747  20669883.247    20669890.188
  22401049.666   -15283751.19649 -11872641.09847  22401048.957    22401058.367
  24478450.432    18912924.76049  14742393.13545  24478450.061    24478461.158
  24597011.831    -3629116.18449  -2810125.95945  24597011.684    24597025.692
  22567001.919     2867441.91449   2250414.71646  22567001.180    22567010.947
  21288448.108   -19407256.25649 -14867833.11547  21288447.085    21288454.922
  20871183.422   -21907685.39149 -17063187.48947  20871183.081    20871190.059
 03  3 26 20 26 30.0000000  0  7G30G17G24G29G 5G10G 6
  20679605.877   -21558384.17449 -16780502.54447  20679605.977    20679612.941
  22389755.796   -15343100.61449 -11918887.34747  22389755.115    22389764.527
  24494416.978    18996829.15049  14807773.03845  24494416.618    24494427.877
  24583756.186    -3698774.15949  -2864404.63845  24583755.951    24583770.076
  22585700.334     2965702.24349   2326981.06046  22585699.615    22585709.410
  21296736.596   -19363699.99349 -14833893.20147  21296735.597    21296743.443
  20863311.966   -21949050.21749 -17095419.82147  20863311.630    20863318.602
 03  3 26 20 27  0.0000000  0  7G30G17G24G29G 5G10G 6
  20689427.942   -21506768.99349 -16740282.98147  20689428.047    20689435.030
  22378505.684   -15402219.94949 -11964954.30447  22378505.024    22378514.437
  24510375.309    19080690.21049  14873119.16845  24510374.900    24510386.158
  24570518.797    -3768336.23749  -2918608.58845  24570518.554    24570532.449
  22604441.689     3064188.42149   2403723.37846  22604440.991    22604450.812
  21305133.429   -19319574.19549 -14799509.50847  21305132.464    21305140.344
  20855483.602   -21990188.67149 -17127475.76448  20855483.279    20855490.225
 03  3 26 20 27 30.0000000  0  7G30G17G24G29G 5G10G 6
  20699348.996   -21454633.73949 -16699658.16647  20699349.099    20699356.099
  22367299.412   -15461109.32649 -12010842.07747  22367298.732    22367308.159
  24526325.250    19164506.95349  14938430.76445  24526324.798    24526336.193
  24557300.255    -3837799.47249  -2972735.52645  24557299.925    24557313.878
  22623225.479     3162897.51849   2480639.40146  22623224.797    22623234.696
  21313638.304   -19274880.90149 -14764683.60547  21313637.346    21313645.256
  20847698.540   -22031099.48149 -17159354.32048  20847698.209    20847705.136
 03  3 26 20 28  0.0000000  0  7G30G17G24G29G 5G10G 6
  20709368.682   -21401980.10249 -16658629.41747  20709368.792    20709375.812
  22356136.822   -15519769.00549 -12056550.86247  22356136.129    22356145.568
  24542266.660    19248278.58549  15003707.21845  24542266.332    24542277.577
  24544101.052    -3907161.01649  -3026783.20445  24544100.733    24544114.644
  22642051.233     3261826.98449   2557727.13846  22642050.535    22642060.517
  21322250.812   -19229622.27649 -14729417.17947  21322249.853    21322257.751
  20839957.044   -22071781.31349 -17191054.45248  20839956.698    20839963.663
 03  3 26 20 28 30.0000000  0  8G30G17G24G29G 5G10G 6G23
  20719486.627   -21348810.03249 -16617198.25047  20719486.738    20719493.795
  22345017.932   -15578199.01549 -12102080.68847  22345017.237    22345026.687
  24558199.228    19332004.16549  15068947.79045  24558198.972    24558210.146
  24530921.651    -3976418.21749  -3080749.58145  24530921.277    24530935.061
  22660918.353     3360973.95649   2634984.36146  22660917.653    22660927.763
  21330970.535   -19183800.27649 -14693711.75947  21330969.557    21330977.413
  20832259.356   -22112232.66749 -17222574.98947  20832259.007    20832266.030
                  -1306295.26949   -970344.93043
 03  3 26 20 29  0.0000000  0  8G30G17G24G29G 5G10G 6G23
  20729702.492   -21295125.50949 -16575366.21947  20729702.615    20729709.698
  22333942.659   -15636399.76749 -12147431.87247  22333941.964    22333951.438
  24574122.898    19415682.62049  15134151.62545  24574122.559    24574133.669
  24517762.672    -4045568.21849  -3134632.42445  24517762.227    24517776.018
  22679826.280     3460335.46649   2712408.74346  22679825.613    22679835.849
  21339797.038   -19137416.81449 -14657568.83547  21339796.046    21339803.885
  20824605.772   -22152452.28949 -17253914.95747  20824605.436    20824612.494
                  -1414928.38849  -1054993.67544                  24379093.882
 03  3 26 20 29 30.0000000  0  8G30G17G24G29G 5G10G 6G23
  20740015.287   -21240931.68149 -16533137.31947  20740015.406    20740022.496
  22322910.457   -15694374.06049 -12192606.59347  22322909.771    22322919.242
  24590036.896    19499310.45349  15199316.02745  24590036.512    24590047.620
  24504624.020    -4114611.16049  -3188431.85145  24504623.703    24504637.305
  22698774.015     3559906.09949   2789996.08346  22698773.366    22698783.640
  21348729.377   -19090477.09549 -14620992.46647  21348728.383    21348736.243
  20816995.981   -22192441.83049 -17285075.63247  20816995.644    20817002.722
  24358417.348    -1523492.79449  -1139588.81744  24358415.420    24358432.916
 03  3 26 20 30  0.0000000  0  8G30G17G24G29G 5G10G 6G23
  20750425.100   -21186228.05849 -16490511.17947  20750425.219    20750432.323
  22311921.771   -15752119.83649 -12237603.25247  22311921.069    22311930.550
  24605941.408    19582888.82449  15264441.87845  24605941.091    24605952.233
  24491506.764    -4183541.72449  -3242143.73645  24491506.393    24491519.930
  22717761.469     3659685.33249   2867745.96946  22717760.811    22717771.154
  21357767.644   -19042981.05449 -14583982.60547  21357766.666    21357774.503
  20809430.726   -22232197.62149 -17316054.17148  20809430.381    20809437.471
  24337771.996    -1631983.96649  -1224126.94444  24337771.102    24337787.762
 03  3 26 20 30 30.0000000  0  8G30G17G24G29G 5G10G 6G23
  20760931.803   -21131015.18249 -16447488.22047  20760931.916    20760939.048
  22300976.665   -15809636.33949 -12282421.25447  22300975.966    22300985.470
  24621836.721    19666418.59449  15329529.86445  24621836.307    24621847.645
  24478411.652    -4252356.02649  -3295765.02845  24478411.328    24478424.868
  22736788.383     3759671.85949   2945657.36846  22736787.709    22736798.152
  21366911.662   -18994929.23349 -14546539.66347  21366910.675    21366918.489
  20801910.470   -22271716.80749 -17346848.33848  20801910.127    20801917.209
  24317141.243    -1740397.97349  -1308604.94545  24317139.545    24317157.294
 03  3 26 20 31  0.0000000  0  8G30G17G24G29G 5G10G 6G23
  20771535.520   -21075292.54549 -16404068.04547  20771535.635    20771542.790
  22290075.660   -15866921.16149 -12327058.72647  22290074.962    22290084.479
  24637723.048    19749901.28849  15394581.17045  24637722.649    24637734.081
  24465339.703    -4321048.34749  -3349291.26245  24465339.369    24465352.860
  22755854.693     3859865.37549   3023730.05846  22755854.039    22755864.506
  21376161.570   -18946321.12149 -14508663.24747  21376160.562    21376168.366
  20794435.944   -22310995.64649 -17377455.23048  20794435.612    20794442.721
  24296526.177    -1848729.83049  -1393018.93945  24296524.917    24296542.431
 03  3 26 20 31 30.0000000  0  8G30G17G24G29G 5G10G 6G23
  20782235.780   -21019062.47149 -16360252.46647  20782235.907    20782243.103
  22279218.745   -15923974.08149 -12371515.50447  22279218.069    22279227.607
  24653600.254    19833335.98749  15459595.06545  24653599.788    24653611.413
  24452291.430    -4389616.10949  -3402720.44545  24452290.962    24452304.535
  22774959.858     3960262.80649   3101961.63946  22774959.213    22774969.678
  21385516.854   -18897158.92349 -14470355.07447  21385515.855    21385523.617
  20787007.396   -22350032.88449 -17407873.85948  20787007.084    20787014.171
  24275927.045    -1956977.49649  -1477367.33445  24275925.786    24275943.556
 03  3 26 20 32  0.0000000  0  8G30G17G24G29G 5G10G 6G23
  20793032.162   -20962327.49349 -16316043.45547  20793032.293    20793039.491
  22268405.734   -15980796.38049 -12415792.57547  22268405.054    22268414.612
  24669468.013    19916721.12649  15524570.34045  24669467.563    24669479.134
  24439267.326    -4458057.05149  -3456050.81245  24439266.808    24439280.630
  22794103.274     4060861.09149   3180349.73746  22794102.611    22794113.054
  21394977.081   -18847445.37049 -14431617.27947  21394976.076    21394983.819
  20779625.022   -22388827.62549 -17438103.52948  20779624.725    20779631.757
  24255344.321    -2065138.96349  -1561648.56145  24255343.186    24255360.821
 03  3 26 20 32 30.0000000  0  8G30G17G24G29G 5G10G 6G23
  20803924.088   -20905090.37549 -16271443.16747  20803924.213    20803931.374
  22257636.524   -16037388.58349 -12459890.34847  22257635.859    22257645.380
  24685326.145    20000055.59849  15589506.12145  24685325.584    24685337.403
  24426267.746    -4526369.18749  -3509280.82845  24426267.258    24426281.005
  22813284.176     4161656.63149   3258891.53046  22813283.502    22813293.967
  21404541.557   -18797183.73949 -14392452.40647  21404540.575    21404548.291
  20772288.906   -22427379.25449 -17468143.75748  20772288.594    20772295.566
  24234778.309    -2173212.62049  -1645861.38445  24234777.093    24234794.678
 03  3 26 20 33  0.0000000  0  8G30G17G24G29G 5G10G 6G23
  20814911.182   -20847353.18249 -16226453.21347  20814911.307    20814918.433
  22246911.081   -16093750.96849 -12503809.04847  22246910.395    22246919.885
  24701174.430    20083338.54849  15654401.76545  24701174.003    24701185.921
  24413293.288    -4594549.34949  -3562408.01945  24413292.899    24413306.527
  22832502.115     4262646.78549   3337584.97646  22832501.438    22832511.902
  21414210.030   -18746375.76149 -14352861.80447  21414209.041    21414216.758
  20764999.326   -22465686.30449 -17497993.40648  20764999.020    20765006.007
  24214229.506    -2281196.05549  -1730003.89545  24214228.459    24214245.955
 03  3 26 20 33 30.0000000  0  8G30G17G24G29G 5G10G 6G23
  20825993.016   -20789118.11749 -16181075.30647  20825993.145    20826000.264
  22236229.314   -16149883.77049 -12547548.85047  22236228.639    22236238.116
  24717012.708    20166568.88549  15719256.42945  24717012.298    24717024.394
  24400344.462    -4662595.05649  -3615430.43145  24400344.323    24400357.590
  22851756.577     4363828.65249   3416427.79846  22851755.859    22851766.389
  21423982.075   -18695023.73749 -14312847.26847  21423981.086    21423988.798
  20757756.512   -22503747.48549 -17527651.46748  20757756.204    20757763.222
  24193698.250    -2389087.07149  -1814074.41645  24193697.242    24193714.574
 03  3 26 20 34  0.0000000  0  8G30G17G24G29G 5G10G 6G23
  20837169.177   -20730387.30449 -16135311.10647  20837169.298    20837176.445
  22225591.197   -16205787.17749 -12591109.90447  22225590.514    22225600.010
  24732840.859    20249745.73649  15784069.41545  24732840.311    24732852.584
  24387421.757    -4730503.35149  -3668345.78745  24387421.630    24387434.862
  22871046.936     4465199.49749   3495417.88746  22871046.244    22871056.740
  21433857.189   -18643129.93049 -14272410.56347  21433856.200    21433863.897
  20750560.748   -22541561.48249 -17557116.92148  20750560.446    20750567.498
  24173185.026    -2496883.03049  -1898070.88045  24173184.123    24173201.476
 03  3 26 20 34 30.0000000  0  8G30G17G24G29G 5G10G 6G23
  20848439.297   -20671162.61849 -16089162.07047  20848439.416    20848446.581
  22214996.747   -16261460.90249 -12634491.97847  22214996.078    22215005.634
  24748658.705    20332868.66549  15848840.37645  24748658.190    24748670.506
  24374525.824    -4798271.04649  -3721151.59345  24374525.608    24374538.936
  22890372.793     4566756.74349   3574553.19746  22890372.085    22890382.617
  21443834.977   -18590696.39649 -14231553.29347  21443833.973    21443841.670
  20743412.336   -22579126.69349 -17586388.51248  20743412.015    20743419.093
  24152690.409    -2604581.45149  -1981991.33945  24152689.591    24152706.791
 03  3 26 20 35  0.0000000  0  8G30G17G24G29G 5G10G 6G23
  20859802.966   -20611446.50349 -16042630.10447  20859803.079    20859810.256
  22204445.882   -16316905.82849 -12677695.77247  22204445.222    22204454.769
  24764466.209    20415936.75649  15913568.60545  24764465.756    24764478.027
  24361657.171    -4865895.57049  -3773845.83245  24361656.906    24361670.171
  22909733.514     4668497.43549   3653831.46746  22909732.831    22909743.397
  21453915.002   -18537725.57449 -14190277.36247  21453913.994    21453921.704
  20736311.527   -22616441.85049 -17615465.25648  20736311.200    20736318.261
  24132214.810    -2712180.13449  -2065834.08345  24132214.086    24132231.021
 03  3 26 20 35 30.0000000  0  8G30G17G24G29G 5G10G 6G23
  20871259.710   -20551240.98349 -15995716.77747  20871259.817    20871267.020
  22193938.548   -16372122.12249 -12720721.41447  22193937.897    22193947.442
  24780263.115    20498949.56149  15978253.74745  24780262.632    24780275.003
  24348816.359    -4933373.98049  -3826426.21945  24348816.195    24348829.127
  22929128.708     4770419.11549   3733250.75746  22929128.024    22929138.671
  21464096.857   -18484219.54549 -14148584.38447  21464095.856    21464103.595
  20729258.575   -22653505.49249 -17644346.01348  20729258.253    20729265.321
  24111758.623    -2819676.63849  -2149597.22345  24111757.858    24111774.670
 03  3 26 20 36  0.0000000  0  8G30G17G24G29G 5G10G 6G23
  20882809.243   -20490547.76649 -15948423.43547  20882809.352    20882816.591
  22183474.794   -16427109.36549 -12763568.57647  22183474.150    22183483.718
  24796049.461    20581906.54849  16042895.39945  24796049.032    24796061.300
  24336003.845    -5000702.98849  -3878890.17145  24336003.695    24336016.854
  22948557.895     4872519.31949   3812809.14346  22948557.234    22948567.904
  21474380.200   -18430180.16649 -14106475.81047  21474379.197    21474386.976
  20722253.838   -22690315.80649 -17673029.37948  20722253.512    20722260.544
  24091322.414    -2927068.12149  -2233278.52445  24091321.645    24091338.377
 03  3 26 20 36 30.0000000  0  8G30G17G24G29G 5G10G 6G23
  20894451.148   -20429369.20049 -15900751.89647  20894451.272    20894458.535
  22173054.596   -16481867.85349 -12806237.48347  22173053.964    22173063.522
  24811824.979    20664806.96749  16107492.96845  24811824.561    24811836.866
  24323220.389    -5067879.86349  -3931235.58145  24323220.196    24323233.273
  22968020.508     4974795.11149   3892504.36946  22968019.841    22968030.573
  21484764.574   -18375609.92149 -14063953.57147  21484763.588    21484771.380
  20715297.539   -22726871.55349 -17701514.37748  20715297.208    20715304.200
  24070906.663    -3034352.23449  -2316876.16245  24070905.949    24070922.579
 03  3 26 20 37  0.0000000  0  8G30G17G24G29G 5G10G 6G23
  20906185.010   -20367707.54549 -15852703.92447  20906185.139    20906192.422
  22162677.937   -16536397.94049 -12848728.41547  22162677.288    22162686.823
  24827589.630    20747649.94949  16172045.78645  24827589.307    24827601.531
  24310466.403    -5134901.75449  -3983460.21945  24310466.145    24310479.041
  22987515.981     5077243.75349   3972334.27146  22987515.344    22987526.051
  21495249.517   -18320511.13349 -14021019.48747  21495248.539    21495256.355
  20708389.922   -22763171.29049 -17729799.89048  20708389.600    20708396.578
  24050511.801    -3141526.59849  -2400388.28245  24050511.148    24050527.475
 03  3 26 20 37 30.0000000  0  8G30G17G24G29G 5G10G 6G23
  20918010.519   -20305564.45249 -15804280.80747  20918010.652    20918017.952
  22152344.687   -16590699.36149 -12891041.16947  22152344.031    22152353.554
  24843343.358    20830435.40249  16236553.77845  24843342.981    24843355.281
  24297742.541    -5201765.22049  -4035561.41245  24297742.244    24297755.099
  23007043.960     5179863.02349   4052297.12746  23007043.305    23007054.078
  21505834.741   -18264885.57549 -13977674.93147  21505833.751    21505841.619
  20701531.378   -22799213.17249 -17757884.47848  20701531.068    20701538.043
  24030138.405    -3248588.21049  -2483812.53545  24030137.702    24030153.970
 03  3 26 20 38  0.0000000  0  8G30G17G24G29G 5G10G 6G23
  20929927.149   -20242942.46149 -15755484.52147  20929927.293    20929934.625
  22142054.916   -16644772.39449 -12933175.95547  22142054.255    22142063.766
  24859086.051    20913162.55549  16301016.33945  24859085.662    24859097.648
  24285049.350    -5268467.75749  -4087537.19245  24285048.941    24285061.936
  23026603.806     5282650.09049   4132390.73546  23026603.124    23026613.960
  21516519.752   -18208735.64849 -13933921.77647  21516518.764    21516526.645
  20694722.182   -22834995.87749 -17785767.11348  20694721.862    20694728.833
  24009786.834    -3355534.99349  -2567147.31045  24009786.161    24009802.292
 03  3 26 20 38 30.0000000  0  8G30G17G24G29G 5G10G 6G23
  20941934.547   -20179843.64849 -15706316.68947  20941934.690    20941942.030
  22131808.632   -16698616.82649 -12975132.61347  22131807.978    22131817.454
  24874817.557    20995830.80049  16365433.02145  24874817.162    24874829.174
  24272387.283    -5335006.33249  -4139385.20645  24272386.857    24272399.927
  23046195.141     5385602.27949   4212612.99646  23046194.392    23046205.283
  21527304.093   -18152063.57249 -13889761.76147  21527303.098    21527311.036
  20687962.614   -22870517.73449 -17813446.49048  20687962.272    20687969.256
  23989457.600    -3462364.35449  -2650390.57145  23989456.935    23989472.975
 03  3 26 20 39  0.0000000  0  8G30G17G24G29G 5G10G 6G23
  20954032.279   -20116270.01349 -15656778.86447  20954032.415    20954039.777
  22121605.773   -16752233.26749 -13016911.61347  22121605.112    22121614.517
  24890537.737    21078439.81249  16429803.51245  24890537.270    24890549.346
  24259757.030    -5401377.67449  -4191102.91145  24259756.590    24259769.690
  23065817.368     5488716.96149   4292961.88546  23065816.647    23065827.559
  21538187.336   -18094871.73249 -13845196.73447  21538186.344    21538194.329
  20681252.964   -22905777.17149 -17840921.38448  20681252.637    20681259.624
  23969151.156    -3569073.81449  -2733540.40645  23969150.533    23969166.489
 03  3 26 20 39 30.0000000  0  7G30G17G29G 5G10G 6G23
  20966219.842   -20052224.43549 -15606873.29347  20966219.958    20966227.349
  22111446.121   -16805622.44649 -13058513.53447  22111445.455    22111454.829
  24247159.015    -5467579.58349  -4242688.60145  24247158.622    24247171.630
  23085469.943     5591990.96249   4373434.91246  23085469.232    23085480.216
  21549168.985   -18037162.94949 -13800228.89647  21549168.001    21549176.019
  20674593.432   -22940773.21849 -17868191.03848  20674593.097    20674600.095
  23948867.884    -3675661.38549  -2816595.25845  23948867.265    23948883.178
 03  3 26 20 40  0.0000000  0  7G30G17G29G 5G10G 6G23
  20978496.780   -19987708.95249 -15556601.56447  20978496.889    20978504.295
  22101329.680   -16858784.31849 -13099938.32747  22101329.028    22101338.420
  24234593.801    -5533609.06149  -4294139.91745  24234593.550    24234606.392
  23105152.284     5695421.64449   4454030.00646  23105151.566    23105162.636
  21560248.545   -17978939.70649 -13754860.17847  21560247.561    21560255.606
  20667984.308   -22975504.42449 -17895254.32148  20667983.982    20667990.980
  23928608.306    -3782124.65449  -2899553.25045  23928607.710    23928623.467
 03  3 26 20 40 30.0000000  0  7G30G17G29G 5G10G 6G23
  20990863.090   -19922723.88549 -15505963.92247  20990863.198    20990870.613
  22091256.918   -16911716.75449 -13141184.34647  22091256.272    22091265.632
  24222062.315    -5599461.15949  -4345453.01745  24222062.076    24222074.945
  23124864.280     5799008.27549   4534746.63246  23124863.590    23124874.729
  21571425.954   -17920202.13049 -13709090.68147  21571424.963    21571433.043
  20661426.234   -23009967.22449 -17922108.46148  20661425.903    20661432.919
  23908373.278    -3888458.81249  -2982410.62645  23908372.639    23908388.376
 03  3 26 20 41  0.0000000  0  8G30G17G29G 5G10G 6G15G23
  21003317.015   -19857278.39249 -15454967.51347  21003317.126    21003324.532
  22081226.624   -16964426.37449 -13182256.73847  22081225.975    22081235.297
  24209563.952    -5665139.82549  -4396630.99145  24209563.628    24209576.354
  23144604.212     5902741.48449   4615577.46646  23144603.504    23144614.720
  21582699.558   -17860959.18949 -13662927.39647  21582698.579    21582706.634
  20654918.260   -23044166.86849 -17948757.54448  20654917.938    20654924.951
  24763569.117    -3368537.91849  -2597956.25145  24763568.589    24763584.765
  23888161.993    -3994668.27849  -3065170.84545  23888161.380    23888177.041
 03  3 26 20 41 30.0000000  0  8G30G17G29G 5G10G 6G15G23
  21015859.678   -19791366.52549 -15403607.69447  21015859.773    21015867.200
  22071239.990   -17016906.32349 -13223150.17547  22071239.329    22071248.582
  24197100.707    -5730633.86549  -4447665.11745  24197100.386    24197113.057
  23164373.075     6006626.73149   4696526.76346  23164372.419    23164383.728
  21594070.364   -17801205.36049 -13616366.02047  21594069.387    21594077.433
  20648462.197   -23078093.66849 -17975194.02248  20648461.857    20648468.877
  24747193.352    -3454592.32249  -2665011.41845  24747192.876    24747209.090
  23867976.430    -4100742.48649  -3147825.67545  23867975.805    23867991.424
 03  3 26 20 42  0.0000000  0  8G30G17G29G 5G10G 6G15G23
  21028490.459   -19724991.60349 -15351887.05647  21028490.569    21028498.023
  22061296.907   -17069157.44449 -13263865.30347  22061296.252    22061305.454
  24184672.961    -5795941.55249  -4498554.03145  24184672.580    24184685.303
  23184170.186     6110660.32149   4777591.65646  23184169.513    23184180.878
  21605537.777   -17740944.00449 -13569409.17247  21605536.788    21605544.838
  20642058.145   -23111747.31749 -18001417.65148  20642057.821    20642064.832
  24730840.887    -3540524.22849  -2731971.15245  24730840.405    24730856.489
  23847816.833    -4206680.18249  -3230374.14045  23847816.191    23847831.740
 03  3 26 20 42 30.0000000  0  8G30G17G29G 5G10G 6G15G23
  21041208.746   -19658156.75349 -15299808.03047  21041208.864    21041216.329
  22051397.155   -17121180.76449 -13304402.92247  22051396.476    22051405.669
  24172281.063    -5861060.64449  -4549295.99545  24172280.708    24172293.310
  23203994.893     6214838.81849   4858769.46346  23203994.219    23204005.613
  21617101.154   -17680178.15349 -13522059.20747  21617100.163    21617108.213
  20635706.246   -23145126.88349 -18027427.71048  20635705.928    20635712.926
  24714511.745    -3626333.93449  -2798835.64545  24714511.191    24714527.176
  23827683.587    -4312479.47249  -3312814.76145  23827682.949    23827698.433
 03  3 26 20 43  0.0000000  0  8G30G17G29G 5G10G 6G15G23
  21054014.121   -19590864.46249 -15247372.55947  21054014.229    21054021.677
  22041540.736   -17172976.36149 -13344763.09647  22041540.070    22041549.264
  24159925.512    -5925988.65149  -4599889.05445  24159925.112    24159937.754
  23223846.631     6319159.25349   4940057.87146  23223845.955    23223857.416
  21628760.038   -17618910.56449 -13474318.27647  21628759.062    21628767.093
  20629406.738   -23178231.18849 -18053223.27848  20629406.409    20629413.400
  24698205.793    -3712021.40749  -2865604.89645  24698205.139    24698221.169
  23807577.086    -4418138.19449  -3395145.86745  23807576.448    23807591.882
 03  3 26 20 43 30.0000000  0  8G30G17G29G 5G10G 6G15G23
  21066906.041   -19523117.59949 -15194582.87247  21066906.144    21066913.547
  22031727.554   -17224544.86049 -13384946.30447  22031726.883    22031736.067
  24147606.808    -5990722.80549  -4650331.07545  24147606.430    24147618.984
  23243724.790     6423618.46349   5021454.41446  23243724.085    23243735.562
  21640513.874   -17557143.88749 -13426188.44847  21640512.875    21640520.918
  20623159.787   -23211059.19049 -18078803.54448  20623159.454    20623166.448
  24681923.216    -3797586.55249  -2932278.83245  24681922.481    24681938.393
  23787497.718    -4523654.39549  -3477365.92545  23787497.089    23787512.449
 03  3 26 20 44  0.0000000  0  8G30G17G29G 5G10G 6G15G23
  21079884.018   -19454918.40449 -15141440.72247  21079884.120    21079891.500
  22021957.571   -17275886.48449 -13424952.73547  22021956.897    22021966.061
  24135325.653    -6055260.32749  -4700619.88445  24135325.362    24135337.703
  23263628.850     6528213.82649   5102957.03946  23263628.144    23263639.549
  21652362.232   -17494880.70149 -13377671.73647  21652361.242    21652369.261
  20616965.686   -23243609.34549 -18104167.30748  20616965.352    20616972.343
  24665663.869    -3883029.14749  -2998857.28145  24665663.088    24665679.055
  23767445.951    -4629025.50949  -3559472.93645  23767445.302    23767460.677
 03  3 26 20 44 30.0000000  0  9G30G17G29G 5G10G 6G15G23G26
  21092947.403   -19386270.28249 -15087948.76147  21092947.496    21092954.913
  22012230.418   -17327002.98549 -13464783.74347  22012229.750    22012238.888
  24123082.249    -6119599.11649  -4750753.84045  24123081.928    24123094.287
  23283558.101     6632941.83649   5184563.03346  23283557.409    23283568.844
  21664304.363   -17432124.58349 -13328770.91147  21664303.375    21664311.415
  20610824.597   -23275881.03049 -18129314.07848  20610824.273    20610831.241
  24649427.769    -3968349.61549  -3065340.57845  24649427.077    24649442.863
  23747422.082    -4734250.06549  -3641465.76945  23747421.423    23747436.680
  24272560.698    -3640348.00549  -2814248.69145  24272560.516    24272576.802
 03  3 26 20 45  0.0000000  0  9G30G17G29G 5G10G 6G15G23G26
  21106095.934   -19317174.48849 -15034107.96447  21106096.044    21106103.472
  22002546.355   -17377893.16949 -13504438.40447  22002545.645    22002554.783
  24110877.373    -6183735.32149  -4800729.93345  24110877.107    24110889.406
  23303512.320     6737800.84949   5266271.09946  23303511.664    23303523.135
  21676340.023   -17368876.86949 -13279487.02647  21676339.033    21676347.119
  20604736.968   -23307871.72349 -18154241.89248  20604736.628    20604743.614
  24633215.147    -4053546.75249  -3131727.76245  24633214.361    24633230.376
  23727426.810    -4839324.50349  -3723341.65145  23727426.155    23727441.308
  24255688.992    -3729008.20349  -2883334.28545  24255688.796    24255704.957
 03  3 26 20 45 30.0000000  0  9G30G17G29G 5G10G 6G15G23G26
  21119329.270   -19247633.06949 -14979919.93247  21119329.382    21119336.843
  21992905.352   -17428556.74449 -13543916.48047  21992904.659    21992913.801
  24098711.704    -6247665.73549  -4850545.67045  24098711.429    24098723.636
  23323490.984     6842788.38949   5348079.31746  23323490.323    23323501.847
  21688468.882   -17305139.54749 -13229821.62547  21688467.896    21688476.066
  20598703.155   -23339579.60949 -18178949.33848  20598702.825    20598709.816
  24617026.141    -4138619.85949  -3198018.31745  24617025.308    24617041.329
  23707460.611    -4944246.10549  -3805098.44445  23707459.937    23707475.040
  24238824.310    -3817631.77249  -2952391.34245  24238824.122    24238840.089
 03  3 26 20 46  0.0000000  0  9G30G17G29G 5G10G 6G15G23G26
  21132646.899   -19177648.84449 -14925386.85747  21132647.013    21132654.511
  21983307.339   -17478994.34849 -13583218.47747  21983306.654    21983315.822
  24086585.784    -6311387.58249  -4900198.89745  24086585.514    24086597.605
  23343493.579     6947901.74049   5429985.54646  23343492.925    23343504.478
  21700690.343   -17240915.64049 -13179777.07347  21700689.355    21700697.563
  20592723.431   -23371003.27749 -18203435.31548  20592723.104    20592730.117
  24600860.716    -4223568.72649  -3264212.05145  24600859.929    24600875.890
  23687523.916    -5049012.82249  -3886734.55445  23687523.260    23687538.228
  24221967.173    -3906215.67349  -3021417.48745  24221966.872    24221982.756
 03  3 26 20 46 30.0000000  0  9G30G17G29G 5G10G 6G15G23G26
  21146048.328   -19107224.19349 -14870510.59247  21146048.415    21146055.974
  21973752.271   -17529206.50249 -13622344.79847  21973751.608    21973760.741
  24074500.092    -6374898.23949  -4949687.55745  24074499.831    24074511.824
  23363519.536     7053138.03149   5511987.57646  23363518.902    23363530.572
  21713003.923   -17176207.79749 -13129355.42347  21713002.931    21713011.119
  20586798.035   -23402141.38449 -18227698.77848  20586797.707    20586804.730
  24584718.996    -4308393.18449  -3330308.85145  24584718.224    24584734.067
  23667617.147    -5153622.29949  -3968248.16545  23667616.431    23667631.452
  24205118.140    -3994756.87549  -3090410.36945  24205117.906    24205133.711
 03  3 26 20 47  0.0000000  0  9G30G17G29G 5G10G 6G15G23G26
  21159533.098   -19036361.53349 -14815293.02547  21159533.200    21159540.765
  21964240.105   -17579193.20549 -13661295.44347  21964239.453    21964248.541
  24062455.134    -6438194.64849  -4999009.27145  24062454.850    24062466.761
  23383568.399     7158494.53149   5594083.28346  23383567.762    23383579.598
  21725409.155   -17111017.98349 -13078558.21347  21725408.153    21725416.348
  20580927.287   -23432992.46249 -18251738.58048  20580926.961    20580933.952
  24568601.110    -4393092.69449  -3396308.29245  24568600.272    24568616.178
  23647740.839    -5258071.94649  -4049637.24245  23647740.121    23647755.015
  24188277.918    -4083251.65249  -3159367.05645  24188277.845    24188293.403
 03  3 26 20 47 30.0000000  0  9G30G17G29G 5G10G 6G15G23G26
  21173100.732   -18965063.33249 -14759736.07447  21173100.827    21173108.437
  21954770.828   -17628954.58349 -13700070.51347  21954770.149    21954779.272
  24050451.373    -6501274.12549  -5048161.95645  24050451.159    24050462.943
  23403639.586     7263968.48249   5676270.49146  23403638.978    23403650.859
  21737905.538   -17045349.05749 -13027387.66547  21737904.522    21737912.725
  20575111.427   -23463555.00249 -18275553.54748  20575111.097    20575118.076
  24552507.063    -4477666.84449  -3462210.04445  24552506.244    24552521.931
  23627895.379    -5362359.32949  -4130899.87045  23627894.750    23627909.521
  24171447.145    -4171697.09549  -3228285.30945  24171447.045    24171462.363
 03  3 26 20 48  0.0000000  0  9G30G17G29G 5G10G 6G15G23G26
  21186750.760   -18893332.21649 -14703841.78647  21186750.867    21186758.481
  21945344.294   -17678491.06849 -13738670.33947  21945343.595    21945352.726
  24038489.393    -6564133.58649  -5097143.20845  24038489.191    24038501.043
  23423732.683     7369557.32649   5758547.25145  23423732.037    23423744.040
  21750492.618   -16979203.43749 -12975845.66547  21750491.618    21750499.852
  20569350.776   -23493827.46149 -18299142.48048  20569350.445    20569357.435
  24536436.907    -4562115.53849  -3528014.04045  24536436.050    24536451.680
  23608081.299    -5466482.03449  -4212034.18545  23608080.567    23608095.304
  24154626.434    -4260089.69649  -3297162.38845  24154626.441    24154641.658
 03  3 26 20 48 30.0000000  0  9G30G17G29G 5G10G 6G15G23G26
  21200482.745   -18821170.47549 -14647611.94847  21200482.851    21200490.485
  21935960.525   -17727802.63649 -13777094.90847  21935959.851    21935968.967
  24026569.828    -6626770.30049  -5145950.87045  24026569.642    24026581.618
  23443847.104     7475258.46949   5840911.49145  23443846.453    23443858.577
  21763169.917   -16912583.77149 -12923934.28947  21763168.941    21763177.180
  20563645.647   -23523808.11849 -18322504.03448  20563645.325    20563652.332
  24520390.698    -4646438.47249  -3593720.03945  24520389.777    24520405.318
  23588299.002    -5570437.56049  -4293038.22245  23588298.352    23588312.901
  24137816.402    -4348426.13849  -3365995.70745  24137816.338    24137831.586
 03  3 26 20 49  0.0000000  0  9G30G17G29G 5G10G 6G15G23G26
  21214296.138   -18748580.93549 -14591048.76047  21214296.258    21214303.893
  21926619.494   -17776890.02049 -13815344.78647  21926618.798    21926627.930
  24014693.310    -6689181.39849  -5194582.74645  24014693.094    24014704.927
  23463982.381     7581068.96349   5923360.93645  23463981.723    23463993.931
  21775936.956   -16845492.72049 -12871655.59347  21775935.983    21775944.182
  20557996.278   -23553495.80849 -18345637.30048  20557995.955    20558002.990
  24504368.374    -4730635.52649  -3659327.95745  24504367.519    24504382.916
  23568548.908    -5674223.88949  -4373910.43045  23568548.214    23568562.740
  24121017.683    -4436703.35149  -3434782.86645  24121017.637    24121032.699
 03  3 26 20 49 30.0000000  0  9G30G17G29G 5G10G 6G15G23G26
  21228190.567   -18675565.67649 -14534153.84447  21228190.689    21228198.328
  21917321.155   -17825753.18549 -13853419.94547  21917320.445    21917329.579
  24002860.372    -6751363.73849  -5243036.37545  24002860.086    24002871.872
  23484138.035     7686986.52949   6005893.81445  23484137.350    23484149.671
  21788793.311   -16777932.62049 -12819011.41147  21788792.343    21788800.499
  20552403.038   -23582888.69949 -18368540.85548  20552402.708    20552409.747
  24488370.175    -4814706.01249  -3724837.25245  24488369.355    24488384.613
  23548831.584    -5777838.05249  -4454648.48245  23548830.874    23548845.267
  24104230.890    -4524917.68049  -3503521.02645  24104230.799    24104245.780
 03  3 26 20 50  0.0000000  0 10G30G17G29G 5G10G 6G15G23G26G18
  21242165.562   -18602127.19449 -14476929.14447  21242165.665    21242173.307
  21908065.339   -17874392.69149 -13891320.82847  21908064.632    21908073.814
  23991071.405    -6813314.58549  -5291309.59945  23991071.088    23991082.872
  23504313.507     7793008.31549   6088507.90645  23504312.872    23504325.260
  21801738.375   -16709906.18149 -12766003.84547  21801737.401    21801745.503
  20546866.115   -23611985.38849 -18391213.60848  20546865.771    20546872.849
  24472396.134    -4898649.74949  -3790247.78845  24472395.273    24472410.344
  23529147.515    -5881277.74949  -4535250.58145  23529146.751    23529161.132
  24087456.626    -4613065.68249  -3572207.50145  24087456.542    24087471.507
                  -1089267.43349   -832963.14643
 03  3 26 20 50 30.0000000  0 10G30G17G29G 5G10G 6G15G23G26G18
  21256220.605   -18528267.97149 -14419376.59947  21256220.704    21256228.324
  21898852.161   -17922808.08649 -13929047.08247  21898851.461    21898860.687
  23979326.970    -6875030.95349  -5339400.13545  23979326.598    23979338.410
  23524508.397     7899131.90149   6171201.31945  23524507.811    23524520.198
  21814771.709   -16641415.73449 -12712634.70847  21814770.708    21814778.818
  20541385.852   -23640784.26149 -18413654.29848  20541385.515    20541392.624
  24456446.260    -4982466.40949  -3855559.30445  24456445.466    24456460.388
  23509497.144    -5984540.42049  -4615714.74345  23509496.375    23509510.583
  24070695.624    -4701144.06549  -3640839.69845  24070695.535    24070710.352
                  -1200723.56949   -642686.39943
 03  3 26 20 51  0.0000000  0 10G30G17G29G 5G10G 6G15G23G26G18
  21270354.932   -18453991.83449 -14361499.18847  21270355.039    21270362.659
  21889681.321   -17971001.03149 -13966599.98947  21889680.630    21889689.867
  23967627.526    -6936511.13949  -5387306.60845  23967627.137    23967638.993
  23544721.884     8005353.31849   6253970.95145  23544721.278    23544733.718
  21827892.649   -16572464.93349 -12658906.86547  21827891.655    21827899.760
  20535962.379   -23669284.92349 -18435862.61548  20535962.039    20535969.141
  24440520.424    -5066156.74349  -3920772.41245  24440519.680    24440534.439
  23489880.651    -6087624.81149  -4696039.97845  23489879.925    23489894.049
  24053948.258    -4789150.63849  -3709415.92245  24053948.249    24053962.885
                  -1312139.84049   -729505.96743
 03  3 26 20 51 30.0000000  0 10G30G17G29G 5G10G 6G15G23G26G18
  21284568.214   -18379300.97749 -14303298.61847  21284568.310    21284575.958
  21880552.838   -18018971.56449 -14003979.59647  21880552.159    21880561.367
  23955973.686    -6997751.91249  -5435026.54245  23955973.334    23955985.036
  23564953.583     8111670.19049   6336814.97045  23564952.912    23564965.493
  21841100.691   -16503056.41549 -12604822.36747  21841099.691    21841107.812
  20530596.007   -23697485.47549 -18457837.07748  20530595.664    20530602.729
  24424618.708    -5149720.10149  -3985886.55945  24424617.980    24424632.644
  23470298.653    -6190528.18249  -4776224.16745  23470297.891    23470311.936
  24037215.223    -4877081.75849  -3777933.35145  24037215.213    24037229.852
                  -1423513.56249   -816295.28543
 03  3 26 20 52  0.0000000  0 10G30G17G29G 5G10G 6G15G23G26G18
  21298859.941   -18304197.75949 -14244776.72547  21298860.036    21298867.717
  21871466.649   -18066719.76249 -14041185.94747  21871465.959    21871475.166
  23944366.044    -7058750.33749  -5482557.64245  23944365.701    23944377.256
  23585202.965     8218080.23949   6419731.57945  23585202.324    23585214.988
  21854395.464   -16433192.42049 -12550382.94547  21854394.447    21854402.560
  20525287.044   -23725384.25849 -18479576.39848  20525286.700    20525293.743
  24408741.185    -5233156.17049  -4050901.53045  24408740.321    24408755.037
  23450751.507    -6293248.09049  -4856265.39345  23450750.753    23450764.673
  24020497.349    -4964933.73749  -3846389.10445  24020497.326    24020511.922
                  -1534842.29949   -626212.01243
 03  3 26 20 52 30.0000000  0 10G30G17G29G 5G10G 6G15G23G26G18
  21313229.856   -18228683.62149 -14185934.64147  21313229.948    21313237.653
  21862422.868   -18114245.11249 -14078218.65247  21862422.190    21862431.379
  23932805.313    -7119502.31349  -5529896.69845  23932804.914    23932816.473
  23605469.751     8324581.74949   6502719.45545  23605469.163    23605481.895
  21867776.566   -16362874.54549 -12495589.84647  21867775.564    21867783.650
  20520036.000   -23752978.81449 -18501078.65748  20520035.645    20520042.690
  24392888.174    -5316463.44749  -4115816.13145  24392887.326    24392902.123
  23431239.983    -6395781.02449  -4936160.92545  23431239.310    23431253.079
  24003795.281    -5052702.29349  -3914779.84445  24003795.169    24003809.871
                  -1646122.84549   -712924.51743
 03  3 26 20 53  0.0000000  0 10G30G17G29G 5G10G 6G15G23G26G18
  21327677.608   -18152760.61749 -14126773.95847  21327677.686    21327685.424
  21853421.584   -18161546.85149 -14115077.11947  21853420.912    21853430.115
  23921291.999    -7180004.57249  -5577041.19345  23921291.694    23921303.198
  23625753.599     8431172.87149   6585777.15745  23625752.961    23625765.799
  21881243.640   -16292104.98849 -12440444.79347  21881242.631    21881250.667
  20514843.227   -23780267.01049 -18522342.19548  20514842.880    20514849.939
  24377059.841    -5399641.25949  -4180629.88845  24377059.044    24377073.841
  23411764.554    -6498123.96749  -5015908.42845  23411763.884    23411777.546
  23987109.889    -5140383.35949  -3983102.41645  23987109.770    23987124.519
                  -1757352.43549   -799596.17843
 03  3 26 20 53 30.0000000  0 10G30G17G29G 5G10G 6G15G23G26G18
  21342202.619   -18076431.64249 -14067296.93947  21342202.700    21342210.479
  21844462.729   -18208625.85549 -14151762.02647  21844462.044    21844471.247
  23909826.698    -7240254.71849  -5623989.22945  23909826.342    23909837.845
  23646053.900     8537850.42549   6668902.20745  23646053.258    23646066.212
  21894796.151   -16220886.41549 -12384949.86047  21894795.139    21894803.114
  20509708.984   -23807247.63149 -18543366.06448  20509708.644    20509715.705
  24361256.140    -5482689.53349  -4245342.69445  24361255.294    24361270.226
  23392325.707    -6600274.80649  -5095506.23445  23392325.000    23392338.617
  23970441.744    -5227973.90149  -4051354.45645  23970441.659    23970456.259
                  -1868529.15549   -886226.82144                  24626451.608
 03  3 26 20 54  0.0000000  0 10G30G17G29G 5G10G 6G15G23G26G18
  21356804.324   -17999699.35749 -14007505.65147  21356804.412    21356812.240
  21835546.251   -18255482.08849 -14188273.34647  21835545.567    21835554.735
  23898409.945    -7300249.71449  -5670738.44745  23898409.645    23898421.049
  23666370.212     8644611.84349   6752092.60645  23666369.513    23666382.535
  21908433.519   -16149221.84749 -12329107.40447  21908432.508    21908440.456
  20504633.627   -23833919.09449 -18564149.03548  20504633.288    20504640.342
  24345477.235    -5565607.70549  -4309954.12445  24345476.357    24345491.317
  23372923.835    -6702231.19749  -5174952.52245  23372923.102    23372936.633
  23953791.463    -5315470.60149  -4119533.38745  23953791.345    23953805.963
  24605291.429    -1979650.79149   -972814.62744  24605291.211    24605305.267
 03  3 26 20 54 30.0000000  0 10G30G17G29G 5G10G 6G15G23G26G18
  21371482.215   -17922566.99749 -13947402.61747  21371482.301    21371490.141
  21826671.978   -18302116.71049 -14224611.98447  21826671.290    21826680.401
  23887042.137    -7359987.31349  -5717287.09445  23887041.935    23887053.218
  23686701.779     8751453.67749   6835345.65845  23686701.088    23686714.119
  21922155.065   -16077114.60349 -12272919.99747  21922154.058    21922162.040
  20499617.202   -23860280.55149 -18584690.43848  20499616.860    20499623.928
  24329722.921    -5648396.26849  -4374464.56645  24329722.144    24329736.988
  23353559.318    -6803991.47049  -5254245.99545  23353558.588    23353572.012
  23937159.499    -5402870.69349  -4187637.03145  23937159.510    23937174.028
  24584156.203    -2090715.52649  -1059358.07144  24584154.284    24584170.033
 03  3 26 20 55  0.0000000  0 10G30G17G29G 5G10G 6G15G23G26G18
  21386235.825   -17845036.59449 -13886989.42047  21386235.907    21386243.771
  21817839.933   -18348529.39949 -14260777.68647  21817839.234    21817848.314
  23875723.940    -7419464.34949  -5763632.70745  23875723.710    23875734.862
  23707048.250     8858373.92049   6918659.80445  23707047.552    23707060.680
  21935960.531   -16004566.70949 -12216389.23847  21935959.511    21935967.489
  20494660.220   -23886329.82449 -18604988.57848  20494659.862    20494666.957
  24313993.424    -5731054.63049  -4438873.56245  24313992.664    24314007.576
  23334232.617    -6905552.68249  -5333384.35245  23334231.918    23334245.378
  23920546.701    -5490170.22049  -4255662.32745  23920546.591    23920561.243
  24563032.269    -2201720.58949  -1145855.05245  24563030.609    24563046.874
 03  3 26 20 55 30.0000000  0 10G30G17G29G 5G10G 6G15G23G26G18
  21401064.657   -17767110.95049 -13826268.25147  21401064.731    21401072.619
  21809049.990   -18394720.87949 -14296771.01947  21809049.289    21809058.316
  23864455.853    -7478678.06449  -5809773.14145  23864455.611    23864466.727
  23727409.105     8965369.70949   7002032.81845  23727408.397    23727421.611
  21949849.293   -15931580.93549 -12159517.27447  21949848.276    21949856.295
  20489762.850   -23912065.63949 -18625042.46948  20489762.473    20489769.581
  24298288.754    -5813582.55949  -4503180.91245  24298288.026    24298302.900
  23314944.299    -7006912.56749  -5412365.84345  23314943.571    23314956.974
  23903953.687    -5577365.94549  -4323606.74345  23903953.548    23903968.089
  24541920.091    -2312664.00349  -1232304.00845  24541918.833    24541934.820
 03  3 26 20 56  0.0000000  0 10G30G17G29G 5G10G 6G15G23G26G18
  21415968.096   -17688793.16049 -13765241.51047  21415968.174    21415976.089
  21800302.019   -18440691.55949 -14332592.29147  21800301.325    21800310.336
  23853238.334    -7537626.13949  -5855706.59445  23853238.037    23853249.105
  23747783.810     9072438.15149   7085462.43845  23747783.191    23747796.434
  21963820.841   -15858160.14049 -12102306.31447  21963819.804    21963827.873
  20484925.327   -23937486.89649 -18644851.24448  20484924.971    20484932.068
  24282608.818    -5895980.20549  -4567386.74045  24282608.141    24282623.094
  23295694.696    -7108069.19149  -5491188.95745  23295694.017    23295707.296
  23887380.978    -5664454.90849  -4391467.97745  23887380.881    23887395.250
  24520820.021    -2423543.93749  -1318703.54845  24520818.791    24520834.950
 03  3 26 20 56 30.0000000  0 10G30G17G29G 5G10G 6G15G23G26G18
  21430945.728   -17610085.69849 -13703911.12747  21430945.805    21430953.733
  21791596.035   -18486441.72949 -14368241.74547  21791595.343    21791604.360
  23842071.921    -7596305.26649  -5901430.48545  23842071.598    23842082.540
  23768171.871     9179576.78049   7168946.76245  23768171.177    23768184.576
  21977874.638   -15784307.17849 -12044758.61247  21977873.624    21977881.713
  20480147.984   -23962591.89349 -18664413.58548  20480147.619    20480154.738
  24266953.896    -5978247.06549  -4631490.67445  24266953.208    24266968.200
  23276484.297    -7209019.75649  -5569851.50445  23276483.566    23276496.737
  23870829.366    -5751433.43249  -4459243.16545  23870829.179    23870843.563
  24499732.494    -2534357.73349  -1405051.54845  24499731.350    24499747.457
 03  3 26 20 57  0.0000000  0 10G30G17G29G 5G10G 6G15G23G26G18
  21445996.932   -17530991.34549 -13642279.27147  21445997.025    21446004.966
  21782931.964   -18531971.58649 -14403719.53147  21782931.271    21782940.257
  23830957.173    -7654713.18149  -5946943.03545  23830956.833    23830967.845
  23788572.759     9286782.79149   7252483.57645  23788572.084    23788585.509
  21992010.136   -15710024.80849 -11986876.30647  21992009.149    21992017.245
  20475431.088   -23987379.28249 -18683728.43948  20475430.734    20475437.839
  24251323.903    -6060383.03949  -4695492.61145  24251323.228    24251338.084
  23257313.544    -7309762.20249  -5648351.88846  23257312.778    23257325.874
  23854299.412    -5838298.17349  -4526929.70245  23854299.212    23854313.477
  24478657.975    -2645103.55249  -1491346.59845  24478657.009    24478673.099
 03  3 26 20 57 30.0000000  0 10G30G17G29G 5G10G 6G15G23G26G18
  21461121.379   -17451512.40849 -13580347.74047  21461121.465    21461129.404
  21774309.843   -18577281.17549 -14439025.67747  21774309.129    21774318.112
  23819894.644    -7712846.50349  -5992241.62545  23819894.231    23819905.422
  23808986.041     9394053.98349   7336071.17945  23808985.352    23808998.906
  22006226.896   -15635315.56349 -11928661.37547  22006225.927    22006234.053
  20470775.015   -24011847.15649 -18702794.32348  20470774.658    20470781.763
  24235718.939    -6142387.68649  -4759392.20945  24235718.201    24235732.953
  23238182.826    -7410293.80149  -5726687.98546  23238182.062    23238195.109
  23837791.660    -5925045.57849  -4594524.82145  23837791.491    23837805.775
  24457596.860    -2755778.70149  -1577586.59045  24457596.149    24457612.233
 03  3 26 20 58  0.0000000  0 10G30G17G29G 5G10G 6G15G23G26G18
  21476318.374   -17371651.92349 -13518118.89647  21476318.454    21476326.389
  21765729.515   -18622371.01949 -14474160.58647  21765728.790    21765737.767
  23808884.844    -7770702.79649  -6037324.35745  23808884.402    23808895.601
  23829411.168     9501387.43249   7419707.29245  23829410.452    23829424.074
  22020524.323   -15560182.25149 -11870116.00147  22020523.309    22020531.532
  20466180.000   -24035994.25649 -18721610.25448  20466179.629    20466186.738
  24220138.925    -6224261.04849  -4823189.51845  24220138.158    24220152.806
  23219092.645    -7510612.46749  -5804858.15746  23219091.887    23219104.903
  23821306.980    -6011672.14249  -4662025.77345  23821306.832    23821321.018
  24436549.674    -2866380.85249  -1663769.73045  24436548.930    24436565.131
 03  3 26 20 58 30.0000000  0 10G30G17G29G 5G10G 6G15G23G26G18
  21491587.586   -17291412.11549 -13455594.48047  21491587.644    21491595.594
  21757190.917   -18667241.65049 -14509124.68447  21757190.201    21757199.112
  23797928.348    -7828279.04049  -6082188.85145  23797927.958    23797939.208
  23849847.717     9608780.87049   7503390.14245  23849847.014    23849860.674
  22034902.018   -15484627.20549 -11811241.99647  22034900.985    22034909.261
  20461646.322   -24059818.91249 -18740174.92348  20461645.977    20461653.058
  24204583.989    -6306002.34349  -4886883.90045  24204583.286    24204597.891
  23200043.506    -7610715.54649  -5882860.33346  23200042.785    23200055.747
  23804845.913    -6098174.43649  -4729429.91145  23804845.839    23804859.831
  24415516.775    -2976907.84749  -1749894.29045  24415516.001    24415532.138
